<?xml version="1.0" encoding="utf-8"?>
<gpx creator="mapy.cz" version="1.1" xmlns="http://www.topografix.com/GPX/1/1" xmlns:xsi="http://www.w3.org/2001/XMLSchema-instance" xsi:schemaLocation="http://www.topografix.com/GPX/1/1 http://www.topografix.com/GPX/1/1/gpx.xsd">
<trk><name></name>
    <trkseg>
        <trkpt lat="39.81338627636433" lon="3.109437972307205"><ele>0</ele><time>1970-01-01T00:00:00Z</time><name>WP 001</name></trkpt>
        <trkpt lat="39.81350362300873" lon="3.110470622777939"><ele>0</ele><time>1970-01-01T00:00:00Z</time><name>WP 002</name></trkpt>
        <trkpt lat="39.813372194767" lon="3.1107495725154877"><ele>0</ele><time>1970-01-01T00:00:00Z</time><name>WP 003</name></trkpt>
        <trkpt lat="39.81333799660206" lon="3.1108394265174866"><ele>0</ele><time>1970-01-01T00:00:00Z</time><name>WP 004</name></trkpt>
        <trkpt lat="39.813268929719925" lon="3.1110097467899323"><ele>0</ele><time>1970-01-01T00:00:00Z</time><name>WP 005</name></trkpt>
        <trkpt lat="39.81296516954899" lon="3.1116293370723724"><ele>0</ele><time>1970-01-01T00:00:00Z</time><name>WP 006</name></trkpt>
        <trkpt lat="39.81275796890259" lon="3.112006187438965"><ele>0</ele><time>1970-01-01T00:00:00Z</time><name>WP 007</name></trkpt>
        <trkpt lat="39.812772050499916" lon="3.112231492996216"><ele>0</ele><time>1970-01-01T00:00:00Z</time><name>WP 008</name></trkpt>
        <trkpt lat="39.81281362473965" lon="3.1124916672706604"><ele>0</ele><time>1970-01-01T00:00:00Z</time><name>WP 009</name></trkpt>
        <trkpt lat="39.812971875071526" lon="3.1133902072906494"><ele>0</ele><time>1970-01-01T00:00:00Z</time><name>WP 010</name></trkpt>
        <trkpt lat="39.813027530908585" lon="3.1136691570281982"><ele>0</ele><time>1970-01-01T00:00:00Z</time><name>WP 011</name></trkpt>
        <trkpt lat="39.81320656836033" lon="3.114638775587082"><ele>0</ele><time>1970-01-01T00:00:00Z</time><name>WP 012</name></trkpt>
        <trkpt lat="39.81323406100273" lon="3.114791661500931"><ele>0</ele><time>1970-01-01T00:00:00Z</time><name>WP 013</name></trkpt>
        <trkpt lat="39.81320656836033" lon="3.114801049232483"><ele>0</ele><time>1970-01-01T00:00:00Z</time><name>WP 014</name></trkpt>
        <trkpt lat="39.813179075717926" lon="3.1148184835910797"><ele>0</ele><time>1970-01-01T00:00:00Z</time><name>WP 015</name></trkpt>
        <trkpt lat="39.81315828859806" lon="3.1148359179496765"><ele>0</ele><time>1970-01-01T00:00:00Z</time><name>WP 016</name></trkpt>
        <trkpt lat="39.813144877552986" lon="3.1148721277713776"><ele>0</ele><time>1970-01-01T00:00:00Z</time><name>WP 017</name></trkpt>
        <trkpt lat="39.813137501478195" lon="3.1149177253246307"><ele>0</ele><time>1970-01-01T00:00:00Z</time><name>WP 018</name></trkpt>
        <trkpt lat="39.813144877552986" lon="3.1149619817733765"><ele>0</ele><time>1970-01-01T00:00:00Z</time><name>WP 019</name></trkpt>
        <trkpt lat="39.81315828859806" lon="3.1149888038635254"><ele>0</ele><time>1970-01-01T00:00:00Z</time><name>WP 020</name></trkpt>
        <trkpt lat="39.81317237019539" lon="3.1150156259536743"><ele>0</ele><time>1970-01-01T00:00:00Z</time><name>WP 021</name></trkpt>
        <trkpt lat="39.813193157315254" lon="3.1150344014167786"><ele>0</ele><time>1970-01-01T00:00:00Z</time><name>WP 022</name></trkpt>
        <trkpt lat="39.81322064995766" lon="3.1150518357753754"><ele>0</ele><time>1970-01-01T00:00:00Z</time><name>WP 023</name></trkpt>
        <trkpt lat="39.8132548481226" lon="3.1150518357753754"><ele>0</ele><time>1970-01-01T00:00:00Z</time><name>WP 024</name></trkpt>
        <trkpt lat="39.81328971683979" lon="3.1150344014167786"><ele>0</ele><time>1970-01-01T00:00:00Z</time><name>WP 025</name></trkpt>
        <trkpt lat="39.81331720948219" lon="3.1150075793266296"><ele>0</ele><time>1970-01-01T00:00:00Z</time><name>WP 026</name></trkpt>
        <trkpt lat="39.81332391500473" lon="3.1149888038635254"><ele>0</ele><time>1970-01-01T00:00:00Z</time><name>WP 027</name></trkpt>
        <trkpt lat="39.81332391500473" lon="3.1149888038635254"><ele>0</ele><time>1970-01-01T00:00:00Z</time><name>WP 028</name></trkpt>
        <trkpt lat="39.81333062052727" lon="3.1149807572364807"><ele>0</ele><time>1970-01-01T00:00:00Z</time><name>WP 029</name></trkpt>
        <trkpt lat="39.813378900289536" lon="3.1149888038635254"><ele>0</ele><time>1970-01-01T00:00:00Z</time><name>WP 030</name></trkpt>
        <trkpt lat="39.81341376900673" lon="3.1149713695049286"><ele>0</ele><time>1970-01-01T00:00:00Z</time><name>WP 031</name></trkpt>
        <trkpt lat="39.81411784887314" lon="3.114738017320633"><ele>0</ele><time>1970-01-01T00:00:00Z</time><name>WP 032</name></trkpt>
        <trkpt lat="39.81433846056461" lon="3.114665597677231"><ele>0</ele><time>1970-01-01T00:00:00Z</time><name>WP 033</name></trkpt>
        <trkpt lat="39.81491781771183" lon="3.114485889673233"><ele>0</ele><time>1970-01-01T00:00:00Z</time><name>WP 034</name></trkpt>
        <trkpt lat="39.8149935901165" lon="3.114476501941681"><ele>0</ele><time>1970-01-01T00:00:00Z</time><name>WP 035</name></trkpt>
        <trkpt lat="39.81507673859596" lon="3.114459067583084"><ele>0</ele><time>1970-01-01T00:00:00Z</time><name>WP 036</name></trkpt>
        <trkpt lat="39.81511831283569" lon="3.114396035671234"><ele>0</ele><time>1970-01-01T00:00:00Z</time><name>WP 037</name></trkpt>
        <trkpt lat="39.815145805478096" lon="3.114396035671234"><ele>0</ele><time>1970-01-01T00:00:00Z</time><name>WP 038</name></trkpt>
        <trkpt lat="39.81516659259796" lon="3.1143786013126373"><ele>0</ele><time>1970-01-01T00:00:00Z</time><name>WP 039</name></trkpt>
        <trkpt lat="39.815180003643036" lon="3.114369213581085"><ele>0</ele><time>1970-01-01T00:00:00Z</time><name>WP 040</name></trkpt>
        <trkpt lat="39.815269857645035" lon="3.1143786013126373"><ele>0</ele><time>1970-01-01T00:00:00Z</time><name>WP 041</name></trkpt>
        <trkpt lat="39.81532484292984" lon="3.114359825849533"><ele>0</ele><time>1970-01-01T00:00:00Z</time><name>WP 042</name></trkpt>
        <trkpt lat="39.81568358838558" lon="3.1142351031303406"><ele>0</ele><time>1970-01-01T00:00:00Z</time><name>WP 043</name></trkpt>
        <trkpt lat="39.81602892279625" lon="3.1141264736652374"><ele>0</ele><time>1970-01-01T00:00:00Z</time><name>WP 044</name></trkpt>
        <trkpt lat="39.81660157442093" lon="3.1140191853046417"><ele>0</ele><time>1970-01-01T00:00:00Z</time><name>WP 045</name></trkpt>
        <trkpt lat="39.8168570548296" lon="3.1140191853046417"><ele>0</ele><time>1970-01-01T00:00:00Z</time><name>WP 046</name></trkpt>
        <trkpt lat="39.8170917481184" lon="3.1140460073947906"><ele>0</ele><time>1970-01-01T00:00:00Z</time><name>WP 047</name></trkpt>
        <trkpt lat="39.81731906533241" lon="3.1140822172164917"><ele>0</ele><time>1970-01-01T00:00:00Z</time><name>WP 048</name></trkpt>
        <trkpt lat="39.81787830591202" lon="3.1142163276672363"><ele>0</ele><time>1970-01-01T00:00:00Z</time><name>WP 049</name></trkpt>
        <trkpt lat="39.81793329119682" lon="3.1142257153987885"><ele>0</ele><time>1970-01-01T00:00:00Z</time><name>WP 050</name></trkpt>
        <trkpt lat="39.81800235807896" lon="3.1142431497573853"><ele>0</ele><time>1970-01-01T00:00:00Z</time><name>WP 051</name></trkpt>
        <trkpt lat="39.818140491843224" lon="3.114269971847534"><ele>0</ele><time>1970-01-01T00:00:00Z</time><name>WP 052</name></trkpt>
        <trkpt lat="39.819147661328316" lon="3.1144416332244873"><ele>0</ele><time>1970-01-01T00:00:00Z</time><name>WP 053</name></trkpt>
        <trkpt lat="39.819720312952995" lon="3.114548921585083"><ele>0</ele><time>1970-01-01T00:00:00Z</time><name>WP 054</name></trkpt>
        <trkpt lat="39.82010655105114" lon="3.114621341228485"><ele>0</ele><time>1970-01-01T00:00:00Z</time><name>WP 055</name></trkpt>
        <trkpt lat="39.82023060321808" lon="3.114648163318634"><ele>0</ele><time>1970-01-01T00:00:00Z</time><name>WP 056</name></trkpt>
        <trkpt lat="39.82037544250488" lon="3.114674985408783"><ele>0</ele><time>1970-01-01T00:00:00Z</time><name>WP 057</name></trkpt>
        <trkpt lat="39.82050687074661" lon="3.1146924197673798"><ele>0</ele><time>1970-01-01T00:00:00Z</time><name>WP 058</name></trkpt>
        <trkpt lat="39.822293892502785" lon="3.1149981915950775"><ele>0</ele><time>1970-01-01T00:00:00Z</time><name>WP 059</name></trkpt>
        <trkpt lat="39.82247292995453" lon="3.1150250136852264"><ele>0</ele><time>1970-01-01T00:00:00Z</time><name>WP 060</name></trkpt>
        <trkpt lat="39.82263185083866" lon="3.1150518357753754"><ele>0</ele><time>1970-01-01T00:00:00Z</time><name>WP 061</name></trkpt>
        <trkpt lat="39.82367388904095" lon="3.115222156047821"><ele>0</ele><time>1970-01-01T00:00:00Z</time><name>WP 062</name></trkpt>
        <trkpt lat="39.82471525669098" lon="3.115401864051819"><ele>0</ele><time>1970-01-01T00:00:00Z</time><name>WP 063</name></trkpt>
        <trkpt lat="39.82512965798378" lon="3.115474283695221"><ele>0</ele><time>1970-01-01T00:00:00Z</time><name>WP 064</name></trkpt>
        <trkpt lat="39.82572242617607" lon="3.1155815720558167"><ele>0</ele><time>1970-01-01T00:00:00Z</time><name>WP 065</name></trkpt>
        <trkpt lat="39.82629507780075" lon="3.1156808137893677"><ele>0</ele><time>1970-01-01T00:00:00Z</time><name>WP 066</name></trkpt>
        <trkpt lat="39.82654385268688" lon="3.1157250702381134"><ele>0</ele><time>1970-01-01T00:00:00Z</time><name>WP 067</name></trkpt>
        <trkpt lat="39.826902598142624" lon="3.1157974898815155"><ele>0</ele><time>1970-01-01T00:00:00Z</time><name>WP 068</name></trkpt>
        <trkpt lat="39.827943965792656" lon="3.1159771978855133"><ele>0</ele><time>1970-01-01T00:00:00Z</time><name>WP 069</name></trkpt>
        <trkpt lat="39.828075394034386" lon="3.1160040199756622"><ele>0</ele><time>1970-01-01T00:00:00Z</time><name>WP 070</name></trkpt>
        <trkpt lat="39.82822023332119" lon="3.116030842065811"><ele>0</ele><time>1970-01-01T00:00:00Z</time><name>WP 071</name></trkpt>
        <trkpt lat="39.828399270772934" lon="3.116067051887512"><ele>0</ele><time>1970-01-01T00:00:00Z</time><name>WP 072</name></trkpt>
        <trkpt lat="39.82854411005974" lon="3.1161126494407654"><ele>0</ele><time>1970-01-01T00:00:00Z</time><name>WP 073</name></trkpt>
        <trkpt lat="39.82870973646641" lon="3.1161662936210632"><ele>0</ele><time>1970-01-01T00:00:00Z</time><name>WP 074</name></trkpt>
        <trkpt lat="39.828889444470406" lon="3.116229325532913"><ele>0</ele><time>1970-01-01T00:00:00Z</time><name>WP 075</name></trkpt>
        <trkpt lat="39.82977256178856" lon="3.1165163218975067"><ele>0</ele><time>1970-01-01T00:00:00Z</time><name>WP 076</name></trkpt>
        <trkpt lat="39.83037941157818" lon="3.1167228519916534"><ele>0</ele><time>1970-01-01T00:00:00Z</time><name>WP 077</name></trkpt>
        <trkpt lat="39.83053833246231" lon="3.116767108440399"><ele>0</ele><time>1970-01-01T00:00:00Z</time><name>WP 078</name></trkpt>
        <trkpt lat="39.831428155303" lon="3.1170648336410522"><ele>0</ele><time>1970-01-01T00:00:00Z</time><name>WP 079</name></trkpt>
        <trkpt lat="39.83151063323021" lon="3.117091655731201"><ele>0</ele><time>1970-01-01T00:00:00Z</time><name>WP 080</name></trkpt>
        <trkpt lat="39.831572994589806" lon="3.1170554459095"><ele>0</ele><time>1970-01-01T00:00:00Z</time><name>WP 081</name></trkpt>
        <trkpt lat="39.83160048723221" lon="3.117091655731201"><ele>0</ele><time>1970-01-01T00:00:00Z</time><name>WP 082</name></trkpt>
        <trkpt lat="39.83162797987461" lon="3.117109090089798"><ele>0</ele><time>1970-01-01T00:00:00Z</time><name>WP 083</name></trkpt>
        <trkpt lat="39.83166955411434" lon="3.117109090089798"><ele>0</ele><time>1970-01-01T00:00:00Z</time><name>WP 084</name></trkpt>
        <trkpt lat="39.83169034123421" lon="3.117099702358246"><ele>0</ele><time>1970-01-01T00:00:00Z</time><name>WP 085</name></trkpt>
        <trkpt lat="39.83171045780182" lon="3.117072880268097"><ele>0</ele><time>1970-01-01T00:00:00Z</time><name>WP 086</name></trkpt>
        <trkpt lat="39.831814393401146" lon="3.117099702358246"><ele>0</ele><time>1970-01-01T00:00:00Z</time><name>WP 087</name></trkpt>
        <trkpt lat="39.83321450650692" lon="3.1175489723682404"><ele>0</ele><time>1970-01-01T00:00:00Z</time><name>WP 088</name></trkpt>
        <trkpt lat="39.83359403908253" lon="3.1177018582820892"><ele>0</ele><time>1970-01-01T00:00:00Z</time><name>WP 089</name></trkpt>
        <trkpt lat="39.83386293053627" lon="3.117782324552536"><ele>0</ele><time>1970-01-01T00:00:00Z</time><name>WP 090</name></trkpt>
        <trkpt lat="39.83407683670521" lon="3.117845356464386"><ele>0</ele><time>1970-01-01T00:00:00Z</time><name>WP 091</name></trkpt>
        <trkpt lat="39.83455292880535" lon="3.118017017841339"><ele>0</ele><time>1970-01-01T00:00:00Z</time><name>WP 092</name></trkpt>
        <trkpt lat="39.834904968738556" lon="3.1181511282920837"><ele>0</ele><time>1970-01-01T00:00:00Z</time><name>WP 093</name></trkpt>
        <trkpt lat="39.83512558043003" lon="3.1182584166526794"><ele>0</ele><time>1970-01-01T00:00:00Z</time><name>WP 094</name></trkpt>
        <trkpt lat="39.835270419716835" lon="3.1183402240276337"><ele>0</ele><time>1970-01-01T00:00:00Z</time><name>WP 095</name></trkpt>
        <trkpt lat="39.83549773693085" lon="3.1184743344783783"><ele>0</ele><time>1970-01-01T00:00:00Z</time><name>WP 096</name></trkpt>
        <trkpt lat="39.835863187909126" lon="3.1186996400356293"><ele>0</ele><time>1970-01-01T00:00:00Z</time><name>WP 097</name></trkpt>
        <trkpt lat="39.83638755977154" lon="3.1190040707588196"><ele>0</ele><time>1970-01-01T00:00:00Z</time><name>WP 098</name></trkpt>
        <trkpt lat="39.837050065398216" lon="3.1194090843200684"><ele>0</ele><time>1970-01-01T00:00:00Z</time><name>WP 099</name></trkpt>
        <trkpt lat="39.837381318211555" lon="3.119606226682663"><ele>0</ele><time>1970-01-01T00:00:00Z</time><name>WP 100</name></trkpt>
        <trkpt lat="39.838353618979454" lon="3.1202177703380585"><ele>0</ele><time>1970-01-01T00:00:00Z</time><name>WP 101</name></trkpt>
        <trkpt lat="39.83871906995773" lon="3.12043234705925"><ele>0</ele><time>1970-01-01T00:00:00Z</time><name>WP 102</name></trkpt>
        <trkpt lat="39.83877472579479" lon="3.120459169149399"><ele>0</ele><time>1970-01-01T00:00:00Z</time><name>WP 103</name></trkpt>
        <trkpt lat="39.83905702829361" lon="3.1206482648849487"><ele>0</ele><time>1970-01-01T00:00:00Z</time><name>WP 104</name></trkpt>
        <trkpt lat="39.83938828110695" lon="3.1208910048007965"><ele>0</ele><time>1970-01-01T00:00:00Z</time><name>WP 105</name></trkpt>
        <trkpt lat="39.83951233327389" lon="3.120998293161392"><ele>0</ele><time>1970-01-01T00:00:00Z</time><name>WP 106</name></trkpt>
        <trkpt lat="39.83955390751362" lon="3.1210345029830933"><ele>0</ele><time>1970-01-01T00:00:00Z</time><name>WP 107</name></trkpt>
        <trkpt lat="39.83966387808323" lon="3.121160566806793"><ele>0</ele><time>1970-01-01T00:00:00Z</time><name>WP 108</name></trkpt>
        <trkpt lat="39.83970545232296" lon="3.121223598718643"><ele>0</ele><time>1970-01-01T00:00:00Z</time><name>WP 109</name></trkpt>
        <trkpt lat="39.83974702656269" lon="3.12124103307724"><ele>0</ele><time>1970-01-01T00:00:00Z</time><name>WP 110</name></trkpt>
        <trkpt lat="39.83979530632496" lon="3.12124103307724"><ele>0</ele><time>1970-01-01T00:00:00Z</time><name>WP 111</name></trkpt>
        <trkpt lat="39.83986437320709" lon="3.121204823255539"><ele>0</ele><time>1970-01-01T00:00:00Z</time><name>WP 112</name></trkpt>
        <trkpt lat="39.83987778425217" lon="3.12117800116539"><ele>0</ele><time>1970-01-01T00:00:00Z</time><name>WP 113</name></trkpt>
        <trkpt lat="39.840043410658836" lon="3.1211431324481964"><ele>0</ele><time>1970-01-01T00:00:00Z</time><name>WP 114</name></trkpt>
        <trkpt lat="39.840450435876846" lon="3.1213845312595367"><ele>0</ele><time>1970-01-01T00:00:00Z</time><name>WP 115</name></trkpt>
        <trkpt lat="39.84048530459404" lon="3.121412694454193"><ele>0</ele><time>1970-01-01T00:00:00Z</time><name>WP 116</name></trkpt>
        <trkpt lat="39.84071932733059" lon="3.1215468049049377"><ele>0</ele><time>1970-01-01T00:00:00Z</time><name>WP 117</name></trkpt>
        <trkpt lat="39.84144352376461" lon="3.12198668718338"><ele>0</ele><time>1970-01-01T00:00:00Z</time><name>WP 118</name></trkpt>
        <trkpt lat="39.842002764344215" lon="3.122319281101227"><ele>0</ele><time>1970-01-01T00:00:00Z</time><name>WP 119</name></trkpt>
        <trkpt lat="39.84257474541664" lon="3.1226612627506256"><ele>0</ele><time>1970-01-01T00:00:00Z</time><name>WP 120</name></trkpt>
        <trkpt lat="39.8426578938961" lon="3.1227149069309235"><ele>0</ele><time>1970-01-01T00:00:00Z</time><name>WP 121</name></trkpt>
        <trkpt lat="39.84318897128105" lon="3.123028725385666"><ele>0</ele><time>1970-01-01T00:00:00Z</time><name>WP 122</name></trkpt>
        <trkpt lat="39.84326474368572" lon="3.123074322938919"><ele>0</ele><time>1970-01-01T00:00:00Z</time><name>WP 123</name></trkpt>
        <trkpt lat="39.84383001923561" lon="3.1234149634838104"><ele>0</ele><time>1970-01-01T00:00:00Z</time><name>WP 124</name></trkpt>
        <trkpt lat="39.84389238059521" lon="3.1234417855739594"><ele>0</ele><time>1970-01-01T00:00:00Z</time><name>WP 125</name></trkpt>
        <trkpt lat="39.84509266912937" lon="3.1241700053215027"><ele>0</ele><time>1970-01-01T00:00:00Z</time><name>WP 126</name></trkpt>
        <trkpt lat="39.845230132341385" lon="3.1242504715919495"><ele>0</ele><time>1970-01-01T00:00:00Z</time><name>WP 127</name></trkpt>
        <trkpt lat="39.8456646502018" lon="3.124510645866394"><ele>0</ele><time>1970-01-01T00:00:00Z</time><name>WP 128</name></trkpt>
        <trkpt lat="39.845768585801125" lon="3.1245656311511993"><ele>0</ele><time>1970-01-01T00:00:00Z</time><name>WP 129</name></trkpt>
        <trkpt lat="39.845761209726334" lon="3.124663531780243"><ele>0</ele><time>1970-01-01T00:00:00Z</time><name>WP 130</name></trkpt>
        <trkpt lat="39.8457819968462" lon="3.124753385782242"><ele>0</ele><time>1970-01-01T00:00:00Z</time><name>WP 131</name></trkpt>
        <trkpt lat="39.84582357108593" lon="3.124825805425644"><ele>0</ele><time>1970-01-01T00:00:00Z</time><name>WP 132</name></trkpt>
        <trkpt lat="39.84588526189327" lon="3.1248794496059418"><ele>0</ele><time>1970-01-01T00:00:00Z</time><name>WP 133</name></trkpt>
        <trkpt lat="39.84593354165554" lon="3.1248968839645386"><ele>0</ele><time>1970-01-01T00:00:00Z</time><name>WP 134</name></trkpt>
        <trkpt lat="39.8459891974926" lon="3.1249062716960907"><ele>0</ele><time>1970-01-01T00:00:00Z</time><name>WP 135</name></trkpt>
        <trkpt lat="39.84603747725487" lon="3.1248968839645386"><ele>0</ele><time>1970-01-01T00:00:00Z</time><name>WP 136</name></trkpt>
        <trkpt lat="39.846044182777405" lon="3.1249867379665375"><ele>0</ele><time>1970-01-01T00:00:00Z</time><name>WP 137</name></trkpt>
        <trkpt lat="39.846044182777405" lon="3.1250591576099396"><ele>0</ele><time>1970-01-01T00:00:00Z</time><name>WP 138</name></trkpt>
        <trkpt lat="39.84605088829994" lon="3.1252214312553406"><ele>0</ele><time>1970-01-01T00:00:00Z</time><name>WP 139</name></trkpt>
        <trkpt lat="39.84605826437473" lon="3.1254909932613373"><ele>0</ele><time>1970-01-01T00:00:00Z</time><name>WP 140</name></trkpt>
        <trkpt lat="39.84605088829994" lon="3.1258852779865265"><ele>0</ele><time>1970-01-01T00:00:00Z</time><name>WP 141</name></trkpt>
        <trkpt lat="39.845844358205795" lon="3.127942532300949"><ele>0</ele><time>1970-01-01T00:00:00Z</time><name>WP 142</name></trkpt>
        <trkpt lat="39.84579607844353" lon="3.128651976585388"><ele>0</ele><time>1970-01-01T00:00:00Z</time><name>WP 143</name></trkpt>
        <trkpt lat="39.8458094894886" lon="3.129003345966339"><ele>0</ele><time>1970-01-01T00:00:00Z</time><name>WP 144</name></trkpt>
        <trkpt lat="39.84582357108593" lon="3.1293627619743347"><ele>0</ele><time>1970-01-01T00:00:00Z</time><name>WP 145</name></trkpt>
        <trkpt lat="39.84586514532566" lon="3.129694014787674"><ele>0</ele><time>1970-01-01T00:00:00Z</time><name>WP 146</name></trkpt>
        <trkpt lat="39.8459891974926" lon="3.1302519142627716"><ele>0</ele><time>1970-01-01T00:00:00Z</time><name>WP 147</name></trkpt>
        <trkpt lat="39.846106544137" lon="3.130745440721512"><ele>0</ele><time>1970-01-01T00:00:00Z</time><name>WP 148</name></trkpt>
        <trkpt lat="39.846106544137" lon="3.1308259069919586"><ele>0</ele><time>1970-01-01T00:00:00Z</time><name>WP 149</name></trkpt>
        <trkpt lat="39.84605088829994" lon="3.1308527290821075"><ele>0</ele><time>1970-01-01T00:00:00Z</time><name>WP 150</name></trkpt>
        <trkpt lat="39.846009984612465" lon="3.130907714366913"><ele>0</ele><time>1970-01-01T00:00:00Z</time><name>WP 151</name></trkpt>
        <trkpt lat="39.8459891974926" lon="3.130970746278763"><ele>0</ele><time>1970-01-01T00:00:00Z</time><name>WP 152</name></trkpt>
        <trkpt lat="39.8459891974926" lon="3.1310056149959564"><ele>0</ele><time>1970-01-01T00:00:00Z</time><name>WP 153</name></trkpt>
        <trkpt lat="39.84599590301514" lon="3.1310686469078064"><ele>0</ele><time>1970-01-01T00:00:00Z</time><name>WP 154</name></trkpt>
        <trkpt lat="39.846016690135" lon="3.1311222910881042"><ele>0</ele><time>1970-01-01T00:00:00Z</time><name>WP 155</name></trkpt>
        <trkpt lat="39.84605088829994" lon="3.1311678886413574"><ele>0</ele><time>1970-01-01T00:00:00Z</time><name>WP 156</name></trkpt>
        <trkpt lat="39.846085757017136" lon="3.1311853229999542"><ele>0</ele><time>1970-01-01T00:00:00Z</time><name>WP 157</name></trkpt>
        <trkpt lat="39.846134036779404" lon="3.1311947107315063"><ele>0</ele><time>1970-01-01T00:00:00Z</time><name>WP 158</name></trkpt>
        <trkpt lat="39.846161529421806" lon="3.1311947107315063"><ele>0</ele><time>1970-01-01T00:00:00Z</time><name>WP 159</name></trkpt>
        <trkpt lat="39.846209809184074" lon="3.1311678886413574"><ele>0</ele><time>1970-01-01T00:00:00Z</time><name>WP 160</name></trkpt>
        <trkpt lat="39.84623059630394" lon="3.1311410665512085"><ele>0</ele><time>1970-01-01T00:00:00Z</time><name>WP 161</name></trkpt>
        <trkpt lat="39.84626479446888" lon="3.1310874223709106"><ele>0</ele><time>1970-01-01T00:00:00Z</time><name>WP 162</name></trkpt>
        <trkpt lat="39.84627149999142" lon="3.1310324370861053"><ele>0</ele><time>1970-01-01T00:00:00Z</time><name>WP 163</name></trkpt>
        <trkpt lat="39.84627149999142" lon="3.130970746278763"><ele>0</ele><time>1970-01-01T00:00:00Z</time><name>WP 164</name></trkpt>
        <trkpt lat="39.846251383423805" lon="3.1308983266353607"><ele>0</ele><time>1970-01-01T00:00:00Z</time><name>WP 165</name></trkpt>
        <trkpt lat="39.84651289880276" lon="3.1306730210781097"><ele>0</ele><time>1970-01-01T00:00:00Z</time><name>WP 166</name></trkpt>
        <trkpt lat="39.84660945832729" lon="3.130575120449066"><ele>0</ele><time>1970-01-01T00:00:00Z</time><name>WP 167</name></trkpt>
        <trkpt lat="39.84762333333492" lon="3.1295424699783325"><ele>0</ele><time>1970-01-01T00:00:00Z</time><name>WP 168</name></trkpt>
        <trkpt lat="39.84812021255493" lon="3.129011392593384"><ele>0</ele><time>1970-01-01T00:00:00Z</time><name>WP 169</name></trkpt>
        <trkpt lat="39.84895437955856" lon="3.1281678378582"><ele>0</ele><time>1970-01-01T00:00:00Z</time><name>WP 170</name></trkpt>
        <trkpt lat="39.84903082251549" lon="3.128095418214798"><ele>0</ele><time>1970-01-01T00:00:00Z</time><name>WP 171</name></trkpt>
        <trkpt lat="39.84978921711445" lon="3.127313554286957"><ele>0</ele><time>1970-01-01T00:00:00Z</time><name>WP 172</name></trkpt>
        <trkpt lat="39.84985090792179" lon="3.127242475748062"><ele>0</ele><time>1970-01-01T00:00:00Z</time><name>WP 173</name></trkpt>
        <trkpt lat="39.85007219016552" lon="3.1270265579223633"><ele>0</ele><time>1970-01-01T00:00:00Z</time><name>WP 174</name></trkpt>
        <trkpt lat="39.850161373615265" lon="3.1269367039203644"><ele>0</ele><time>1970-01-01T00:00:00Z</time><name>WP 175</name></trkpt>
        <trkpt lat="39.85024452209473" lon="3.1268468499183655"><ele>0</ele><time>1970-01-01T00:00:00Z</time><name>WP 176</name></trkpt>
        <trkpt lat="39.85060326755047" lon="3.12648743391037"><ele>0</ele><time>1970-01-01T00:00:00Z</time><name>WP 177</name></trkpt>
        <trkpt lat="39.850734025239944" lon="3.12636137008667"><ele>0</ele><time>1970-01-01T00:00:00Z</time><name>WP 178</name></trkpt>
        <trkpt lat="39.85118195414543" lon="3.1259121000766754"><ele>0</ele><time>1970-01-01T00:00:00Z</time><name>WP 179</name></trkpt>
        <trkpt lat="39.8513475805521" lon="3.1257417798042297"><ele>0</ele><time>1970-01-01T00:00:00Z</time><name>WP 180</name></trkpt>
        <trkpt lat="39.8513475805521" lon="3.1257417798042297"><ele>0</ele><time>1970-01-01T00:00:00Z</time><name>WP 181</name></trkpt>
        <trkpt lat="39.851857870817184" lon="3.1252214312553406"><ele>0</ele><time>1970-01-01T00:00:00Z</time><name>WP 182</name></trkpt>
        <trkpt lat="39.85209256410599" lon="3.125634491443634"><ele>0</ele><time>1970-01-01T00:00:00Z</time><name>WP 183</name></trkpt>
        <trkpt lat="39.852230697870255" lon="3.125877231359482"><ele>0</ele><time>1970-01-01T00:00:00Z</time><name>WP 184</name></trkpt>
        <trkpt lat="39.85225148499012" lon="3.1259040534496307"><ele>0</ele><time>1970-01-01T00:00:00Z</time><name>WP 185</name></trkpt>
        <trkpt lat="39.85227160155773" lon="3.1259389221668243"><ele>0</ele><time>1970-01-01T00:00:00Z</time><name>WP 186</name></trkpt>
        <trkpt lat="39.8524372279644" lon="3.126254081726074"><ele>0</ele><time>1970-01-01T00:00:00Z</time><name>WP 187</name></trkpt>
        <trkpt lat="39.852472096681595" lon="3.126307725906372"><ele>0</ele><time>1970-01-01T00:00:00Z</time><name>WP 188</name></trkpt>
        <trkpt lat="39.85266521573067" lon="3.1266309320926666"><ele>0</ele><time>1970-01-01T00:00:00Z</time><name>WP 189</name></trkpt>
        <trkpt lat="39.852871745824814" lon="3.1278352439403534"><ele>0</ele><time>1970-01-01T00:00:00Z</time><name>WP 190</name></trkpt>
        <trkpt lat="39.85289923846722" lon="3.128005564212799"><ele>0</ele><time>1970-01-01T00:00:00Z</time><name>WP 191</name></trkpt>
        <trkpt lat="39.85292002558708" lon="3.128131628036499"><ele>0</ele><time>1970-01-01T00:00:00Z</time><name>WP 192</name></trkpt>
        <trkpt lat="39.852947518229485" lon="3.1282657384872437"><ele>0</ele><time>1970-01-01T00:00:00Z</time><name>WP 193</name></trkpt>
        <trkpt lat="39.85296830534935" lon="3.128374367952347"><ele>0</ele><time>1970-01-01T00:00:00Z</time><name>WP 194</name></trkpt>
        <trkpt lat="39.85300987958908" lon="3.1285540759563446"><ele>0</ele><time>1970-01-01T00:00:00Z</time><name>WP 195</name></trkpt>
        <trkpt lat="39.853196293115616" lon="3.1290744245052338"><ele>0</ele><time>1970-01-01T00:00:00Z</time><name>WP 196</name></trkpt>
        <trkpt lat="39.853396117687225" lon="3.129783868789673"><ele>0</ele><time>1970-01-01T00:00:00Z</time><name>WP 197</name></trkpt>
        <trkpt lat="39.85349267721176" lon="3.1301432847976685"><ele>0</ele><time>1970-01-01T00:00:00Z</time><name>WP 198</name></trkpt>
        <trkpt lat="39.85351346433163" lon="3.1302063167095184"><ele>0</ele><time>1970-01-01T00:00:00Z</time><name>WP 199</name></trkpt>
        <trkpt lat="39.85358253121376" lon="3.1303323805332184"><ele>0</ele><time>1970-01-01T00:00:00Z</time><name>WP 200</name></trkpt>
        <trkpt lat="39.85369920730591" lon="3.130538910627365"><ele>0</ele><time>1970-01-01T00:00:00Z</time><name>WP 201</name></trkpt>
        <trkpt lat="39.85389232635498" lon="3.130781650543213"><ele>0</ele><time>1970-01-01T00:00:00Z</time><name>WP 202</name></trkpt>
        <trkpt lat="39.85438920557499" lon="3.1311504542827606"><ele>0</ele><time>1970-01-01T00:00:00Z</time><name>WP 203</name></trkpt>
        <trkpt lat="39.85499605536461" lon="3.131508529186249"><ele>0</ele><time>1970-01-01T00:00:00Z</time><name>WP 204</name></trkpt>
        <trkpt lat="39.85536150634289" lon="3.1318773329257965"><ele>0</ele><time>1970-01-01T00:00:00Z</time><name>WP 205</name></trkpt>
        <trkpt lat="39.8557960242033" lon="3.1328201293945312"><ele>0</ele><time>1970-01-01T00:00:00Z</time><name>WP 206</name></trkpt>
        <trkpt lat="39.85606491565704" lon="3.1336744129657745"><ele>0</ele><time>1970-01-01T00:00:00Z</time><name>WP 207</name></trkpt>
        <trkpt lat="39.856250658631325" lon="3.133997619152069"><ele>0</ele><time>1970-01-01T00:00:00Z</time><name>WP 208</name></trkpt>
        <trkpt lat="39.85654033720493" lon="3.134303390979767"><ele>0</ele><time>1970-01-01T00:00:00Z</time><name>WP 209</name></trkpt>
        <trkpt lat="39.857381880283356" lon="3.1353092193603516"><ele>0</ele><time>1970-01-01T00:00:00Z</time><name>WP 210</name></trkpt>
        <trkpt lat="39.858030304312706" lon="3.1361527740955353"><ele>0</ele><time>1970-01-01T00:00:00Z</time><name>WP 211</name></trkpt>
        <trkpt lat="39.85814765095711" lon="3.1362707912921906"><ele>0</ele><time>1970-01-01T00:00:00Z</time><name>WP 212</name></trkpt>
        <trkpt lat="39.858671352267265" lon="3.1368179619312286"><ele>0</ele><time>1970-01-01T00:00:00Z</time><name>WP 213</name></trkpt>
        <trkpt lat="39.85914006829262" lon="3.1372229754924774"><ele>0</ele><time>1970-01-01T00:00:00Z</time><name>WP 214</name></trkpt>
        <trkpt lat="39.85938146710396" lon="3.137429505586624"><ele>0</ele><time>1970-01-01T00:00:00Z</time><name>WP 215</name></trkpt>
        <trkpt lat="39.85958866775036" lon="3.1376534700393677"><ele>0</ele><time>1970-01-01T00:00:00Z</time><name>WP 216</name></trkpt>
        <trkpt lat="39.8598300665617" lon="3.1379686295986176"><ele>0</ele><time>1970-01-01T00:00:00Z</time><name>WP 217</name></trkpt>
        <trkpt lat="39.8599749058485" lon="3.138192594051361"><ele>0</ele><time>1970-01-01T00:00:00Z</time><name>WP 218</name></trkpt>
        <trkpt lat="39.86043691635132" lon="3.138991892337799"><ele>0</ele><time>1970-01-01T00:00:00Z</time><name>WP 219</name></trkpt>
        <trkpt lat="39.8606226593256" lon="3.1392614543437958"><ele>0</ele><time>1970-01-01T00:00:00Z</time><name>WP 220</name></trkpt>
        <trkpt lat="39.86079499125481" lon="3.1394049525260925"><ele>0</ele><time>1970-01-01T00:00:00Z</time><name>WP 221</name></trkpt>
        <trkpt lat="39.86111216247082" lon="3.1396932899951935"><ele>0</ele><time>1970-01-01T00:00:00Z</time><name>WP 222</name></trkpt>
        <trkpt lat="39.86140921711922" lon="3.139863610267639"><ele>0</ele><time>1970-01-01T00:00:00Z</time><name>WP 223</name></trkpt>
        <trkpt lat="39.86166402697563" lon="3.139953464269638"><ele>0</ele><time>1970-01-01T00:00:00Z</time><name>WP 224</name></trkpt>
        <trkpt lat="39.86222259700298" lon="3.1413012742996216"><ele>0</ele><time>1970-01-01T00:00:00Z</time><name>WP 225</name></trkpt>
        <trkpt lat="39.86251898109913" lon="3.1419289112091064"><ele>0</ele><time>1970-01-01T00:00:00Z</time><name>WP 226</name></trkpt>
        <trkpt lat="39.86263632774353" lon="3.1422172486782074"><ele>0</ele><time>1970-01-01T00:00:00Z</time><name>WP 227</name></trkpt>
        <trkpt lat="39.8628294467926" lon="3.142567276954651"><ele>0</ele><time>1970-01-01T00:00:00Z</time><name>WP 228</name></trkpt>
        <trkpt lat="39.863222390413284" lon="3.143060803413391"><ele>0</ele><time>1970-01-01T00:00:00Z</time><name>WP 229</name></trkpt>
        <trkpt lat="39.86329145729542" lon="3.1431157886981964"><ele>0</ele><time>1970-01-01T00:00:00Z</time><name>WP 230</name></trkpt>
        <trkpt lat="39.86352615058422" lon="3.1432686746120453"><ele>0</ele><time>1970-01-01T00:00:00Z</time><name>WP 231</name></trkpt>
        <trkpt lat="39.86371859908104" lon="3.14340278506279"><ele>0</ele><time>1970-01-01T00:00:00Z</time><name>WP 232</name></trkpt>
        <trkpt lat="39.864112213253975" lon="3.1435999274253845"><ele>0</ele><time>1970-01-01T00:00:00Z</time><name>WP 233</name></trkpt>
        <trkpt lat="39.86469089984894" lon="3.1439150869846344"><ele>0</ele><time>1970-01-01T00:00:00Z</time><name>WP 234</name></trkpt>
        <trkpt lat="39.86475996673107" lon="3.14427450299263"><ele>0</ele><time>1970-01-01T00:00:00Z</time><name>WP 235</name></trkpt>
        <trkpt lat="39.864787459373474" lon="3.144354969263077"><ele>0</ele><time>1970-01-01T00:00:00Z</time><name>WP 236</name></trkpt>
        <trkpt lat="39.86485652625561" lon="3.144517242908478"><ele>0</ele><time>1970-01-01T00:00:00Z</time><name>WP 237</name></trkpt>
        <trkpt lat="39.86488401889801" lon="3.1445521116256714"><ele>0</ele><time>1970-01-01T00:00:00Z</time><name>WP 238</name></trkpt>
        <trkpt lat="39.865877106785774" lon="3.145846277475357"><ele>0</ele><time>1970-01-01T00:00:00Z</time><name>WP 239</name></trkpt>
        <trkpt lat="39.86594617366791" lon="3.1460434198379517"><ele>0</ele><time>1970-01-01T00:00:00Z</time><name>WP 240</name></trkpt>
        <trkpt lat="39.866028651595116" lon="3.1462767720222473"><ele>0</ele><time>1970-01-01T00:00:00Z</time><name>WP 241</name></trkpt>
        <trkpt lat="39.86666299402714" lon="3.1481100618839264"><ele>0</ele><time>1970-01-01T00:00:00Z</time><name>WP 242</name></trkpt>
        <trkpt lat="39.86693859100342" lon="3.1487658619880676"><ele>0</ele><time>1970-01-01T00:00:00Z</time><name>WP 243</name></trkpt>
        <trkpt lat="39.86729063093662" lon="3.149322420358658"><ele>0</ele><time>1970-01-01T00:00:00Z</time><name>WP 244</name></trkpt>
        <trkpt lat="39.86758030951023" lon="3.1495919823646545"><ele>0</ele><time>1970-01-01T00:00:00Z</time><name>WP 245</name></trkpt>
        <trkpt lat="39.86795246601105" lon="3.1497904658317566"><ele>0</ele><time>1970-01-01T00:00:00Z</time><name>WP 246</name></trkpt>
        <trkpt lat="39.86821465194225" lon="3.150121718645096"><ele>0</ele><time>1970-01-01T00:00:00Z</time><name>WP 247</name></trkpt>
        <trkpt lat="39.868290424346924" lon="3.150220960378647"><ele>0</ele><time>1970-01-01T00:00:00Z</time><name>WP 248</name></trkpt>
        <trkpt lat="39.86900053918362" lon="3.1511637568473816"><ele>0</ele><time>1970-01-01T00:00:00Z</time><name>WP 249</name></trkpt>
        <trkpt lat="39.86949674785137" lon="3.151828944683075"><ele>0</ele><time>1970-01-01T00:00:00Z</time><name>WP 250</name></trkpt>
        <trkpt lat="39.869607388973236" lon="3.151918798685074"><ele>0</ele><time>1970-01-01T00:00:00Z</time><name>WP 251</name></trkpt>
        <trkpt lat="39.87006202340126" lon="3.1522876024246216"><ele>0</ele><time>1970-01-01T00:00:00Z</time><name>WP 252</name></trkpt>
        <trkpt lat="39.87020015716553" lon="3.1524673104286194"><ele>0</ele><time>1970-01-01T00:00:00Z</time><name>WP 253</name></trkpt>
        <trkpt lat="39.87034499645233" lon="3.152718096971512"><ele>0</ele><time>1970-01-01T00:00:00Z</time><name>WP 254</name></trkpt>
        <trkpt lat="39.87050324678421" lon="3.152880370616913"><ele>0</ele><time>1970-01-01T00:00:00Z</time><name>WP 255</name></trkpt>
        <trkpt lat="39.87062059342861" lon="3.1529608368873596"><ele>0</ele><time>1970-01-01T00:00:00Z</time><name>WP 256</name></trkpt>
        <trkpt lat="39.870813712477684" lon="3.1530681252479553"><ele>0</ele><time>1970-01-01T00:00:00Z</time><name>WP 257</name></trkpt>
        <trkpt lat="39.87104840576649" lon="3.153006434440613"><ele>0</ele><time>1970-01-01T00:00:00Z</time><name>WP 258</name></trkpt>
        <trkpt lat="39.87123414874077" lon="3.1529782712459564"><ele>0</ele><time>1970-01-01T00:00:00Z</time><name>WP 259</name></trkpt>
        <trkpt lat="39.87131729722023" lon="3.1530413031578064"><ele>0</ele><time>1970-01-01T00:00:00Z</time><name>WP 260</name></trkpt>
        <trkpt lat="39.87131729722023" lon="3.1531579792499542"><ele>0</ele><time>1970-01-01T00:00:00Z</time><name>WP 261</name></trkpt>
        <trkpt lat="39.871240854263306" lon="3.153410106897354"><ele>0</ele><time>1970-01-01T00:00:00Z</time><name>WP 262</name></trkpt>
        <trkpt lat="39.87110339105129" lon="3.1538499891757965"><ele>0</ele><time>1970-01-01T00:00:00Z</time><name>WP 263</name></trkpt>
        <trkpt lat="39.87097196280956" lon="3.15432608127594"><ele>0</ele><time>1970-01-01T00:00:00Z</time><name>WP 264</name></trkpt>
        <trkpt lat="39.87095184624195" lon="3.1546586751937866"><ele>0</ele><time>1970-01-01T00:00:00Z</time><name>WP 265</name></trkpt>
        <trkpt lat="39.870965257287025" lon="3.1550905108451843"><ele>0</ele><time>1970-01-01T00:00:00Z</time><name>WP 266</name></trkpt>
        <trkpt lat="39.87094447016716" lon="3.1552420556545258"><ele>0</ele><time>1970-01-01T00:00:00Z</time><name>WP 267</name></trkpt>
        <trkpt lat="39.87086869776249" lon="3.1554217636585236"><ele>0</ele><time>1970-01-01T00:00:00Z</time><name>WP 268</name></trkpt>
        <trkpt lat="39.870779514312744" lon="3.1555384397506714"><ele>0</ele><time>1970-01-01T00:00:00Z</time><name>WP 269</name></trkpt>
        <trkpt lat="39.87062729895115" lon="3.1556738913059235"><ele>0</ele><time>1970-01-01T00:00:00Z</time><name>WP 270</name></trkpt>
        <trkpt lat="39.87059310078621" lon="3.1557101011276245"><ele>0</ele><time>1970-01-01T00:00:00Z</time><name>WP 271</name></trkpt>
        <trkpt lat="39.87053073942661" lon="3.15581738948822"><ele>0</ele><time>1970-01-01T00:00:00Z</time><name>WP 272</name></trkpt>
        <trkpt lat="39.87051732838154" lon="3.155924677848816"><ele>0</ele><time>1970-01-01T00:00:00Z</time><name>WP 273</name></trkpt>
        <trkpt lat="39.870572313666344" lon="3.1562840938568115"><ele>0</ele><time>1970-01-01T00:00:00Z</time><name>WP 274</name></trkpt>
        <trkpt lat="39.87060718238354" lon="3.1565268337726593"><ele>0</ele><time>1970-01-01T00:00:00Z</time><name>WP 275</name></trkpt>
        <trkpt lat="39.87060718238354" lon="3.156643509864807"><ele>0</ele><time>1970-01-01T00:00:00Z</time><name>WP 276</name></trkpt>
        <trkpt lat="39.87056560814381" lon="3.157012313604355"><ele>0</ele><time>1970-01-01T00:00:00Z</time><name>WP 277</name></trkpt>
        <trkpt lat="39.87055890262127" lon="3.1571289896965027"><ele>0</ele><time>1970-01-01T00:00:00Z</time><name>WP 278</name></trkpt>
        <trkpt lat="39.87057901918888" lon="3.1572456657886505"><ele>0</ele><time>1970-01-01T00:00:00Z</time><name>WP 279</name></trkpt>
        <trkpt lat="39.87067557871342" lon="3.1575246155261993"><ele>0</ele><time>1970-01-01T00:00:00Z</time><name>WP 280</name></trkpt>
        <trkpt lat="39.870813712477684" lon="3.1578652560710907"><ele>0</ele><time>1970-01-01T00:00:00Z</time><name>WP 281</name></trkpt>
        <trkpt lat="39.870855286717415" lon="3.157937675714493"><ele>0</ele><time>1970-01-01T00:00:00Z</time><name>WP 282</name></trkpt>
        <trkpt lat="39.871006831526756" lon="3.1580905616283417"><ele>0</ele><time>1970-01-01T00:00:00Z</time><name>WP 283</name></trkpt>
        <trkpt lat="39.87126901745796" lon="3.1584231555461884"><ele>0</ele><time>1970-01-01T00:00:00Z</time><name>WP 284</name></trkpt>
        <trkpt lat="39.871296510100365" lon="3.158494234085083"><ele>0</ele><time>1970-01-01T00:00:00Z</time><name>WP 285</name></trkpt>
        <trkpt lat="39.871289134025574" lon="3.158620297908783"><ele>0</ele><time>1970-01-01T00:00:00Z</time><name>WP 286</name></trkpt>
        <trkpt lat="39.871206656098366" lon="3.1589891016483307"><ele>0</ele><time>1970-01-01T00:00:00Z</time><name>WP 287</name></trkpt>
        <trkpt lat="39.8711858689785" lon="3.1591594219207764"><ele>0</ele><time>1970-01-01T00:00:00Z</time><name>WP 288</name></trkpt>
        <trkpt lat="39.871220737695694" lon="3.15950945019722"><ele>0</ele><time>1970-01-01T00:00:00Z</time><name>WP 289</name></trkpt>
        <trkpt lat="39.87126164138317" lon="3.159644901752472"><ele>0</ele><time>1970-01-01T00:00:00Z</time><name>WP 290</name></trkpt>
        <trkpt lat="39.87137898802757" lon="3.1597253680229187"><ele>0</ele><time>1970-01-01T00:00:00Z</time><name>WP 291</name></trkpt>
        <trkpt lat="39.87162709236145" lon="3.1599412858486176"><ele>0</ele><time>1970-01-01T00:00:00Z</time><name>WP 292</name></trkpt>
        <trkpt lat="39.87184099853039" lon="3.160281926393509"><ele>0</ele><time>1970-01-01T00:00:00Z</time><name>WP 293</name></trkpt>
        <trkpt lat="39.871923476457596" lon="3.160417377948761"><ele>0</ele><time>1970-01-01T00:00:00Z</time><name>WP 294</name></trkpt>
        <trkpt lat="39.87206161022186" lon="3.1606319546699524"><ele>0</ele><time>1970-01-01T00:00:00Z</time><name>WP 295</name></trkpt>
        <trkpt lat="39.872130677103996" lon="3.1608036160469055"><ele>0</ele><time>1970-01-01T00:00:00Z</time><name>WP 296</name></trkpt>
        <trkpt lat="39.872254729270935" lon="3.161108046770096"><ele>0</ele><time>1970-01-01T00:00:00Z</time><name>WP 297</name></trkpt>
        <trkpt lat="39.87246125936508" lon="3.1616203486919403"><ele>0</ele><time>1970-01-01T00:00:00Z</time><name>WP 298</name></trkpt>
        <trkpt lat="39.87250283360481" lon="3.161836266517639"><ele>0</ele><time>1970-01-01T00:00:00Z</time><name>WP 299</name></trkpt>
        <trkpt lat="39.87252362072468" lon="3.161926120519638"><ele>0</ele><time>1970-01-01T00:00:00Z</time><name>WP 300</name></trkpt>
        <trkpt lat="39.87255781888962" lon="3.1621500849723816"><ele>0</ele><time>1970-01-01T00:00:00Z</time><name>WP 301</name></trkpt>
        <trkpt lat="39.872606098651886" lon="3.1623928248882294"><ele>0</ele><time>1970-01-01T00:00:00Z</time><name>WP 302</name></trkpt>
        <trkpt lat="39.872695952653885" lon="3.162662386894226"><ele>0</ele><time>1970-01-01T00:00:00Z</time><name>WP 303</name></trkpt>
        <trkpt lat="39.87287499010563" lon="3.1629225611686707"><ele>0</ele><time>1970-01-01T00:00:00Z</time><name>WP 304</name></trkpt>
        <trkpt lat="39.87312309443951" lon="3.1632015109062195"><ele>0</ele><time>1970-01-01T00:00:00Z</time><name>WP 305</name></trkpt>
        <trkpt lat="39.873227030038834" lon="3.1633369624614716"><ele>0</ele><time>1970-01-01T00:00:00Z</time><name>WP 306</name></trkpt>
        <trkpt lat="39.873288720846176" lon="3.1634536385536194"><ele>0</ele><time>1970-01-01T00:00:00Z</time><name>WP 307</name></trkpt>
        <trkpt lat="39.87333029508591" lon="3.163597136735916"><ele>0</ele><time>1970-01-01T00:00:00Z</time><name>WP 308</name></trkpt>
        <trkpt lat="39.87334370613098" lon="3.163686990737915"><ele>0</ele><time>1970-01-01T00:00:00Z</time><name>WP 309</name></trkpt>
        <trkpt lat="39.87333029508591" lon="3.163902908563614"><ele>0</ele><time>1970-01-01T00:00:00Z</time><name>WP 310</name></trkpt>
        <trkpt lat="39.87305469810963" lon="3.164639174938202"><ele>0</ele><time>1970-01-01T00:00:00Z</time><name>WP 311</name></trkpt>
        <trkpt lat="39.87303391098976" lon="3.1647826731204987"><ele>0</ele><time>1970-01-01T00:00:00Z</time><name>WP 312</name></trkpt>
        <trkpt lat="39.873047322034836" lon="3.1648631393909454"><ele>0</ele><time>1970-01-01T00:00:00Z</time><name>WP 313</name></trkpt>
        <trkpt lat="39.87308219075203" lon="3.1649449467658997"><ele>0</ele><time>1970-01-01T00:00:00Z</time><name>WP 314</name></trkpt>
        <trkpt lat="39.87319886684418" lon="3.1650522351264954"><ele>0</ele><time>1970-01-01T00:00:00Z</time><name>WP 315</name></trkpt>
        <trkpt lat="39.873288720846176" lon="3.165096491575241"><ele>0</ele><time>1970-01-01T00:00:00Z</time><name>WP 316</name></trkpt>
        <trkpt lat="39.87343356013298" lon="3.165096491575241"><ele>0</ele><time>1970-01-01T00:00:00Z</time><name>WP 317</name></trkpt>
        <trkpt lat="39.87396463751793" lon="3.1650160253047943"><ele>0</ele><time>1970-01-01T00:00:00Z</time><name>WP 318</name></trkpt>
        <trkpt lat="39.87408131361008" lon="3.1650254130363464"><ele>0</ele><time>1970-01-01T00:00:00Z</time><name>WP 319</name></trkpt>
        <trkpt lat="39.87420603632927" lon="3.165069669485092"><ele>0</ele><time>1970-01-01T00:00:00Z</time><name>WP 320</name></trkpt>
        <trkpt lat="39.87432271242142" lon="3.16518634557724"><ele>0</ele><time>1970-01-01T00:00:00Z</time><name>WP 321</name></trkpt>
        <trkpt lat="39.87440586090088" lon="3.165339231491089"><ele>0</ele><time>1970-01-01T00:00:00Z</time><name>WP 322</name></trkpt>
        <trkpt lat="39.87448163330555" lon="3.165537714958191"><ele>0</ele><time>1970-01-01T00:00:00Z</time><name>WP 323</name></trkpt>
        <trkpt lat="39.87450912594795" lon="3.1658609211444855"><ele>0</ele><time>1970-01-01T00:00:00Z</time><name>WP 324</name></trkpt>
        <trkpt lat="39.87450912594795" lon="3.166363835334778"><ele>0</ele><time>1970-01-01T00:00:00Z</time><name>WP 325</name></trkpt>
        <trkpt lat="39.87460568547249" lon="3.167082667350769"><ele>0</ele><time>1970-01-01T00:00:00Z</time><name>WP 326</name></trkpt>
        <trkpt lat="39.87460568547249" lon="3.1672529876232147"><ele>0</ele><time>1970-01-01T00:00:00Z</time><name>WP 327</name></trkpt>
        <trkpt lat="39.87459897994995" lon="3.1673160195350647"><ele>0</ele><time>1970-01-01T00:00:00Z</time><name>WP 328</name></trkpt>
        <trkpt lat="39.87456411123276" lon="3.167298585176468"><ele>0</ele><time>1970-01-01T00:00:00Z</time><name>WP 329</name></trkpt>
        <trkpt lat="39.874536618590355" lon="3.167262375354767"><ele>0</ele><time>1970-01-01T00:00:00Z</time><name>WP 330</name></trkpt>
        <trkpt lat="39.87451583147049" lon="3.1671537458896637"><ele>0</ele><time>1970-01-01T00:00:00Z</time><name>WP 331</name></trkpt>
        <trkpt lat="39.87448163330555" lon="3.16705584526062"><ele>0</ele><time>1970-01-01T00:00:00Z</time><name>WP 332</name></trkpt>
        <trkpt lat="39.87439848482609" lon="3.1669029593467712"><ele>0</ele><time>1970-01-01T00:00:00Z</time><name>WP 333</name></trkpt>
        <trkpt lat="39.87428851425648" lon="3.16680371761322"><ele>0</ele><time>1970-01-01T00:00:00Z</time><name>WP 334</name></trkpt>
        <trkpt lat="39.87424023449421" lon="3.166794329881668"><ele>0</ele><time>1970-01-01T00:00:00Z</time><name>WP 335</name></trkpt>
        <trkpt lat="39.87419195473194" lon="3.1668399274349213"><ele>0</ele><time>1970-01-01T00:00:00Z</time><name>WP 336</name></trkpt>
        <trkpt lat="39.87419195473194" lon="3.1669123470783234"><ele>0</ele><time>1970-01-01T00:00:00Z</time><name>WP 337</name></trkpt>
        <trkpt lat="39.87419195473194" lon="3.16699281334877"><ele>0</ele><time>1970-01-01T00:00:00Z</time><name>WP 338</name></trkpt>
        <trkpt lat="39.87420603632927" lon="3.16705584526062"><ele>0</ele><time>1970-01-01T00:00:00Z</time><name>WP 339</name></trkpt>
        <trkpt lat="39.87421274185181" lon="3.167172521352768"><ele>0</ele><time>1970-01-01T00:00:00Z</time><name>WP 340</name></trkpt>
        <trkpt lat="39.87420603632927" lon="3.167262375354767"><ele>0</ele><time>1970-01-01T00:00:00Z</time><name>WP 341</name></trkpt>
        <trkpt lat="39.874185249209404" lon="3.1673602759838104"><ele>0</ele><time>1970-01-01T00:00:00Z</time><name>WP 342</name></trkpt>
        <trkpt lat="39.87415038049221" lon="3.1674326956272125"><ele>0</ele><time>1970-01-01T00:00:00Z</time><name>WP 343</name></trkpt>
        <trkpt lat="39.87408131361008" lon="3.1675319373607635"><ele>0</ele><time>1970-01-01T00:00:00Z</time><name>WP 344</name></trkpt>
        <trkpt lat="39.8740129172802" lon="3.167656660079956"><ele>0</ele><time>1970-01-01T00:00:00Z</time><name>WP 345</name></trkpt>
        <trkpt lat="39.873971343040466" lon="3.167755901813507"><ele>0</ele><time>1970-01-01T00:00:00Z</time><name>WP 346</name></trkpt>
        <trkpt lat="39.873943850398064" lon="3.1678645312786102"><ele>0</ele><time>1970-01-01T00:00:00Z</time><name>WP 347</name></trkpt>
        <trkpt lat="39.8739505559206" lon="3.1679892539978027"><ele>0</ele><time>1970-01-01T00:00:00Z</time><name>WP 348</name></trkpt>
        <trkpt lat="39.873985424637794" lon="3.168034851551056"><ele>0</ele><time>1970-01-01T00:00:00Z</time><name>WP 349</name></trkpt>
        <trkpt lat="39.87403303384781" lon="3.168061673641205"><ele>0</ele><time>1970-01-01T00:00:00Z</time><name>WP 350</name></trkpt>
        <trkpt lat="39.874129593372345" lon="3.1680791079998016"><ele>0</ele><time>1970-01-01T00:00:00Z</time><name>WP 351</name></trkpt>
        <trkpt lat="39.87423352897167" lon="3.168124705553055"><ele>0</ele><time>1970-01-01T00:00:00Z</time><name>WP 352</name></trkpt>
        <trkpt lat="39.87432271242142" lon="3.168187737464905"><ele>0</ele><time>1970-01-01T00:00:00Z</time><name>WP 353</name></trkpt>
        <trkpt lat="39.87443335354328" lon="3.1682775914669037"><ele>0</ele><time>1970-01-01T00:00:00Z</time><name>WP 354</name></trkpt>
        <trkpt lat="39.87454332411289" lon="3.1684117019176483"><ele>0</ele><time>1970-01-01T00:00:00Z</time><name>WP 355</name></trkpt>
        <trkpt lat="39.87461909651756" lon="3.168528378009796"><ele>0</ele><time>1970-01-01T00:00:00Z</time><name>WP 356</name></trkpt>
        <trkpt lat="39.874688163399696" lon="3.168717473745346"><ele>0</ele><time>1970-01-01T00:00:00Z</time><name>WP 357</name></trkpt>
        <trkpt lat="39.87475723028183" lon="3.1689870357513428"><ele>0</ele><time>1970-01-01T00:00:00Z</time><name>WP 358</name></trkpt>
        <trkpt lat="39.8748055100441" lon="3.1692740321159363"><ele>0</ele><time>1970-01-01T00:00:00Z</time><name>WP 359</name></trkpt>
        <trkpt lat="39.8748055100441" lon="3.1693464517593384"><ele>0</ele><time>1970-01-01T00:00:00Z</time><name>WP 360</name></trkpt>
        <trkpt lat="39.87479880452156" lon="3.169426918029785"><ele>0</ele><time>1970-01-01T00:00:00Z</time><name>WP 361</name></trkpt>
        <trkpt lat="39.87476393580437" lon="3.169526159763336"><ele>0</ele><time>1970-01-01T00:00:00Z</time><name>WP 362</name></trkpt>
        <trkpt lat="39.8747156560421" lon="3.169589191675186"><ele>0</ele><time>1970-01-01T00:00:00Z</time><name>WP 363</name></trkpt>
        <trkpt lat="39.87464725971222" lon="3.169669657945633"><ele>0</ele><time>1970-01-01T00:00:00Z</time><name>WP 364</name></trkpt>
        <trkpt lat="39.874570816755295" lon="3.169759511947632"><ele>0</ele><time>1970-01-01T00:00:00Z</time><name>WP 365</name></trkpt>
        <trkpt lat="39.87452253699303" lon="3.169822543859482"><ele>0</ele><time>1970-01-01T00:00:00Z</time><name>WP 366</name></trkpt>
        <trkpt lat="39.87450912594795" lon="3.1699123978614807"><ele>0</ele><time>1970-01-01T00:00:00Z</time><name>WP 367</name></trkpt>
        <trkpt lat="39.87452253699303" lon="3.1700290739536285"><ele>0</ele><time>1970-01-01T00:00:00Z</time><name>WP 368</name></trkpt>
        <trkpt lat="39.874536618590355" lon="3.170190006494522"><ele>0</ele><time>1970-01-01T00:00:00Z</time><name>WP 369</name></trkpt>
        <trkpt lat="39.87451583147049" lon="3.170316070318222"><ele>0</ele><time>1970-01-01T00:00:00Z</time><name>WP 370</name></trkpt>
        <trkpt lat="39.874495044350624" lon="3.170451521873474"><ele>0</ele><time>1970-01-01T00:00:00Z</time><name>WP 371</name></trkpt>
        <trkpt lat="39.87448833882809" lon="3.17055881023407"><ele>0</ele><time>1970-01-01T00:00:00Z</time><name>WP 372</name></trkpt>
        <trkpt lat="39.87452991306782" lon="3.170658051967621"><ele>0</ele><time>1970-01-01T00:00:00Z</time><name>WP 373</name></trkpt>
        <trkpt lat="39.8747156560421" lon="3.1708645820617676"><ele>0</ele><time>1970-01-01T00:00:00Z</time><name>WP 374</name></trkpt>
        <trkpt lat="39.874819591641426" lon="3.171061724424362"><ele>0</ele><time>1970-01-01T00:00:00Z</time><name>WP 375</name></trkpt>
        <trkpt lat="39.87487457692623" lon="3.171223998069763"><ele>0</ele><time>1970-01-01T00:00:00Z</time><name>WP 376</name></trkpt>
        <trkpt lat="39.87487457692623" lon="3.171287029981613"><ele>0</ele><time>1970-01-01T00:00:00Z</time><name>WP 377</name></trkpt>
        <trkpt lat="39.874853789806366" lon="3.1713218986988068"><ele>0</ele><time>1970-01-01T00:00:00Z</time><name>WP 378</name></trkpt>
        <trkpt lat="39.874812215566635" lon="3.171340674161911"><ele>0</ele><time>1970-01-01T00:00:00Z</time><name>WP 379</name></trkpt>
        <trkpt lat="39.8747431486845" lon="3.17130446434021"><ele>0</ele><time>1970-01-01T00:00:00Z</time><name>WP 380</name></trkpt>
        <trkpt lat="39.87467475235462" lon="3.171160966157913"><ele>0</ele><time>1970-01-01T00:00:00Z</time><name>WP 381</name></trkpt>
        <trkpt lat="39.87459897994995" lon="3.1710442900657654"><ele>0</ele><time>1970-01-01T00:00:00Z</time><name>WP 382</name></trkpt>
        <trkpt lat="39.874502420425415" lon="3.1709544360637665"><ele>0</ele><time>1970-01-01T00:00:00Z</time><name>WP 383</name></trkpt>
        <trkpt lat="39.87433008849621" lon="3.1708820164203644"><ele>0</ele><time>1970-01-01T00:00:00Z</time><name>WP 384</name></trkpt>
        <trkpt lat="39.87423352897167" lon="3.1707921624183655"><ele>0</ele><time>1970-01-01T00:00:00Z</time><name>WP 385</name></trkpt>
        <trkpt lat="39.87408868968487" lon="3.170568197965622"><ele>0</ele><time>1970-01-01T00:00:00Z</time><name>WP 386</name></trkpt>
        <trkpt lat="39.873978048563" lon="3.170478343963623"><ele>0</ele><time>1970-01-01T00:00:00Z</time><name>WP 387</name></trkpt>
        <trkpt lat="39.87384058535099" lon="3.170442134141922"><ele>0</ele><time>1970-01-01T00:00:00Z</time><name>WP 388</name></trkpt>
        <trkpt lat="39.87373664975166" lon="3.170451521873474"><ele>0</ele><time>1970-01-01T00:00:00Z</time><name>WP 389</name></trkpt>
        <trkpt lat="39.87355761229992" lon="3.17049577832222"><ele>0</ele><time>1970-01-01T00:00:00Z</time><name>WP 390</name></trkpt>
        <trkpt lat="39.87353011965752" lon="3.170505166053772"><ele>0</ele><time>1970-01-01T00:00:00Z</time><name>WP 391</name></trkpt>
        <trkpt lat="39.87353011965752" lon="3.170505166053772"><ele>0</ele><time>1970-01-01T00:00:00Z</time><name>WP 392</name></trkpt>
        <trkpt lat="39.87355761229992" lon="3.17049577832222"><ele>0</ele><time>1970-01-01T00:00:00Z</time><name>WP 393</name></trkpt>
        <trkpt lat="39.87373664975166" lon="3.170451521873474"><ele>0</ele><time>1970-01-01T00:00:00Z</time><name>WP 394</name></trkpt>
        <trkpt lat="39.87384058535099" lon="3.170442134141922"><ele>0</ele><time>1970-01-01T00:00:00Z</time><name>WP 395</name></trkpt>
        <trkpt lat="39.873978048563" lon="3.170478343963623"><ele>0</ele><time>1970-01-01T00:00:00Z</time><name>WP 396</name></trkpt>
        <trkpt lat="39.87408868968487" lon="3.170568197965622"><ele>0</ele><time>1970-01-01T00:00:00Z</time><name>WP 397</name></trkpt>
        <trkpt lat="39.87423352897167" lon="3.1707921624183655"><ele>0</ele><time>1970-01-01T00:00:00Z</time><name>WP 398</name></trkpt>
        <trkpt lat="39.87433008849621" lon="3.1708820164203644"><ele>0</ele><time>1970-01-01T00:00:00Z</time><name>WP 399</name></trkpt>
        <trkpt lat="39.874502420425415" lon="3.1709544360637665"><ele>0</ele><time>1970-01-01T00:00:00Z</time><name>WP 400</name></trkpt>
        <trkpt lat="39.87459897994995" lon="3.1710442900657654"><ele>0</ele><time>1970-01-01T00:00:00Z</time><name>WP 401</name></trkpt>
        <trkpt lat="39.87467475235462" lon="3.171160966157913"><ele>0</ele><time>1970-01-01T00:00:00Z</time><name>WP 402</name></trkpt>
        <trkpt lat="39.8747431486845" lon="3.17130446434021"><ele>0</ele><time>1970-01-01T00:00:00Z</time><name>WP 403</name></trkpt>
        <trkpt lat="39.874812215566635" lon="3.171340674161911"><ele>0</ele><time>1970-01-01T00:00:00Z</time><name>WP 404</name></trkpt>
        <trkpt lat="39.874853789806366" lon="3.1713218986988068"><ele>0</ele><time>1970-01-01T00:00:00Z</time><name>WP 405</name></trkpt>
        <trkpt lat="39.87487457692623" lon="3.171287029981613"><ele>0</ele><time>1970-01-01T00:00:00Z</time><name>WP 406</name></trkpt>
        <trkpt lat="39.87487457692623" lon="3.171223998069763"><ele>0</ele><time>1970-01-01T00:00:00Z</time><name>WP 407</name></trkpt>
        <trkpt lat="39.874819591641426" lon="3.171061724424362"><ele>0</ele><time>1970-01-01T00:00:00Z</time><name>WP 408</name></trkpt>
        <trkpt lat="39.8747156560421" lon="3.1708645820617676"><ele>0</ele><time>1970-01-01T00:00:00Z</time><name>WP 409</name></trkpt>
        <trkpt lat="39.87452991306782" lon="3.170658051967621"><ele>0</ele><time>1970-01-01T00:00:00Z</time><name>WP 410</name></trkpt>
        <trkpt lat="39.87448833882809" lon="3.17055881023407"><ele>0</ele><time>1970-01-01T00:00:00Z</time><name>WP 411</name></trkpt>
        <trkpt lat="39.874495044350624" lon="3.170451521873474"><ele>0</ele><time>1970-01-01T00:00:00Z</time><name>WP 412</name></trkpt>
        <trkpt lat="39.87451583147049" lon="3.170316070318222"><ele>0</ele><time>1970-01-01T00:00:00Z</time><name>WP 413</name></trkpt>
        <trkpt lat="39.874536618590355" lon="3.170190006494522"><ele>0</ele><time>1970-01-01T00:00:00Z</time><name>WP 414</name></trkpt>
        <trkpt lat="39.87452253699303" lon="3.1700290739536285"><ele>0</ele><time>1970-01-01T00:00:00Z</time><name>WP 415</name></trkpt>
        <trkpt lat="39.87450912594795" lon="3.1699123978614807"><ele>0</ele><time>1970-01-01T00:00:00Z</time><name>WP 416</name></trkpt>
        <trkpt lat="39.87452253699303" lon="3.169822543859482"><ele>0</ele><time>1970-01-01T00:00:00Z</time><name>WP 417</name></trkpt>
        <trkpt lat="39.874570816755295" lon="3.169759511947632"><ele>0</ele><time>1970-01-01T00:00:00Z</time><name>WP 418</name></trkpt>
        <trkpt lat="39.87464725971222" lon="3.169669657945633"><ele>0</ele><time>1970-01-01T00:00:00Z</time><name>WP 419</name></trkpt>
        <trkpt lat="39.8747156560421" lon="3.169589191675186"><ele>0</ele><time>1970-01-01T00:00:00Z</time><name>WP 420</name></trkpt>
        <trkpt lat="39.87476393580437" lon="3.169526159763336"><ele>0</ele><time>1970-01-01T00:00:00Z</time><name>WP 421</name></trkpt>
        <trkpt lat="39.87479880452156" lon="3.169426918029785"><ele>0</ele><time>1970-01-01T00:00:00Z</time><name>WP 422</name></trkpt>
        <trkpt lat="39.8748055100441" lon="3.1693464517593384"><ele>0</ele><time>1970-01-01T00:00:00Z</time><name>WP 423</name></trkpt>
        <trkpt lat="39.8748055100441" lon="3.1692740321159363"><ele>0</ele><time>1970-01-01T00:00:00Z</time><name>WP 424</name></trkpt>
        <trkpt lat="39.87475723028183" lon="3.1689870357513428"><ele>0</ele><time>1970-01-01T00:00:00Z</time><name>WP 425</name></trkpt>
        <trkpt lat="39.874688163399696" lon="3.168717473745346"><ele>0</ele><time>1970-01-01T00:00:00Z</time><name>WP 426</name></trkpt>
        <trkpt lat="39.87461909651756" lon="3.168528378009796"><ele>0</ele><time>1970-01-01T00:00:00Z</time><name>WP 427</name></trkpt>
        <trkpt lat="39.87454332411289" lon="3.1684117019176483"><ele>0</ele><time>1970-01-01T00:00:00Z</time><name>WP 428</name></trkpt>
        <trkpt lat="39.87443335354328" lon="3.1682775914669037"><ele>0</ele><time>1970-01-01T00:00:00Z</time><name>WP 429</name></trkpt>
        <trkpt lat="39.87432271242142" lon="3.168187737464905"><ele>0</ele><time>1970-01-01T00:00:00Z</time><name>WP 430</name></trkpt>
        <trkpt lat="39.87423352897167" lon="3.168124705553055"><ele>0</ele><time>1970-01-01T00:00:00Z</time><name>WP 431</name></trkpt>
        <trkpt lat="39.874129593372345" lon="3.1680791079998016"><ele>0</ele><time>1970-01-01T00:00:00Z</time><name>WP 432</name></trkpt>
        <trkpt lat="39.87403303384781" lon="3.168061673641205"><ele>0</ele><time>1970-01-01T00:00:00Z</time><name>WP 433</name></trkpt>
        <trkpt lat="39.873985424637794" lon="3.168034851551056"><ele>0</ele><time>1970-01-01T00:00:00Z</time><name>WP 434</name></trkpt>
        <trkpt lat="39.8739505559206" lon="3.1679892539978027"><ele>0</ele><time>1970-01-01T00:00:00Z</time><name>WP 435</name></trkpt>
        <trkpt lat="39.873943850398064" lon="3.1678645312786102"><ele>0</ele><time>1970-01-01T00:00:00Z</time><name>WP 436</name></trkpt>
        <trkpt lat="39.873971343040466" lon="3.167755901813507"><ele>0</ele><time>1970-01-01T00:00:00Z</time><name>WP 437</name></trkpt>
        <trkpt lat="39.8740129172802" lon="3.167656660079956"><ele>0</ele><time>1970-01-01T00:00:00Z</time><name>WP 438</name></trkpt>
        <trkpt lat="39.87408131361008" lon="3.1675319373607635"><ele>0</ele><time>1970-01-01T00:00:00Z</time><name>WP 439</name></trkpt>
        <trkpt lat="39.87415038049221" lon="3.1674326956272125"><ele>0</ele><time>1970-01-01T00:00:00Z</time><name>WP 440</name></trkpt>
        <trkpt lat="39.874185249209404" lon="3.1673602759838104"><ele>0</ele><time>1970-01-01T00:00:00Z</time><name>WP 441</name></trkpt>
        <trkpt lat="39.87420603632927" lon="3.167262375354767"><ele>0</ele><time>1970-01-01T00:00:00Z</time><name>WP 442</name></trkpt>
        <trkpt lat="39.87421274185181" lon="3.167172521352768"><ele>0</ele><time>1970-01-01T00:00:00Z</time><name>WP 443</name></trkpt>
        <trkpt lat="39.87420603632927" lon="3.16705584526062"><ele>0</ele><time>1970-01-01T00:00:00Z</time><name>WP 444</name></trkpt>
        <trkpt lat="39.87419195473194" lon="3.16699281334877"><ele>0</ele><time>1970-01-01T00:00:00Z</time><name>WP 445</name></trkpt>
        <trkpt lat="39.87419195473194" lon="3.1669123470783234"><ele>0</ele><time>1970-01-01T00:00:00Z</time><name>WP 446</name></trkpt>
        <trkpt lat="39.87419195473194" lon="3.1668399274349213"><ele>0</ele><time>1970-01-01T00:00:00Z</time><name>WP 447</name></trkpt>
        <trkpt lat="39.87424023449421" lon="3.166794329881668"><ele>0</ele><time>1970-01-01T00:00:00Z</time><name>WP 448</name></trkpt>
        <trkpt lat="39.87428851425648" lon="3.16680371761322"><ele>0</ele><time>1970-01-01T00:00:00Z</time><name>WP 449</name></trkpt>
        <trkpt lat="39.87439848482609" lon="3.1669029593467712"><ele>0</ele><time>1970-01-01T00:00:00Z</time><name>WP 450</name></trkpt>
        <trkpt lat="39.87448163330555" lon="3.16705584526062"><ele>0</ele><time>1970-01-01T00:00:00Z</time><name>WP 451</name></trkpt>
        <trkpt lat="39.87451583147049" lon="3.1671537458896637"><ele>0</ele><time>1970-01-01T00:00:00Z</time><name>WP 452</name></trkpt>
        <trkpt lat="39.874536618590355" lon="3.167262375354767"><ele>0</ele><time>1970-01-01T00:00:00Z</time><name>WP 453</name></trkpt>
        <trkpt lat="39.87456411123276" lon="3.167298585176468"><ele>0</ele><time>1970-01-01T00:00:00Z</time><name>WP 454</name></trkpt>
        <trkpt lat="39.87459897994995" lon="3.1673160195350647"><ele>0</ele><time>1970-01-01T00:00:00Z</time><name>WP 455</name></trkpt>
        <trkpt lat="39.87460568547249" lon="3.1672529876232147"><ele>0</ele><time>1970-01-01T00:00:00Z</time><name>WP 456</name></trkpt>
        <trkpt lat="39.87460568547249" lon="3.167325407266617"><ele>0</ele><time>1970-01-01T00:00:00Z</time><name>WP 457</name></trkpt>
        <trkpt lat="39.874612390995026" lon="3.1675587594509125"><ele>0</ele><time>1970-01-01T00:00:00Z</time><name>WP 458</name></trkpt>
        <trkpt lat="39.87463317811489" lon="3.1676848232746124"><ele>0</ele><time>1970-01-01T00:00:00Z</time><name>WP 459</name></trkpt>
        <trkpt lat="39.87466737627983" lon="3.167765289545059"><ele>0</ele><time>1970-01-01T00:00:00Z</time><name>WP 460</name></trkpt>
        <trkpt lat="39.874902069568634" lon="3.1681059300899506"><ele>0</ele><time>1970-01-01T00:00:00Z</time><name>WP 461</name></trkpt>
        <trkpt lat="39.87495705485344" lon="3.1682226061820984"><ele>0</ele><time>1970-01-01T00:00:00Z</time><name>WP 462</name></trkpt>
        <trkpt lat="39.875053614377975" lon="3.168663829565048"><ele>0</ele><time>1970-01-01T00:00:00Z</time><name>WP 463</name></trkpt>
        <trkpt lat="39.87516425549984" lon="3.169390708208084"><ele>0</ele><time>1970-01-01T00:00:00Z</time><name>WP 464</name></trkpt>
        <trkpt lat="39.87515687942505" lon="3.169579803943634"><ele>0</ele><time>1970-01-01T00:00:00Z</time><name>WP 465</name></trkpt>
        <trkpt lat="39.87512268126011" lon="3.169696480035782"><ele>0</ele><time>1970-01-01T00:00:00Z</time><name>WP 466</name></trkpt>
        <trkpt lat="39.87490877509117" lon="3.1699834764003754"><ele>0</ele><time>1970-01-01T00:00:00Z</time><name>WP 467</name></trkpt>
        <trkpt lat="39.87487457692623" lon="3.1700733304023743"><ele>0</ele><time>1970-01-01T00:00:00Z</time><name>WP 468</name></trkpt>
        <trkpt lat="39.87487457692623" lon="3.1702181696891785"><ele>0</ele><time>1970-01-01T00:00:00Z</time><name>WP 469</name></trkpt>
        <trkpt lat="39.87491548061371" lon="3.1703348457813263"><ele>0</ele><time>1970-01-01T00:00:00Z</time><name>WP 470</name></trkpt>
        <trkpt lat="39.875129386782646" lon="3.170604407787323"><ele>0</ele><time>1970-01-01T00:00:00Z</time><name>WP 471</name></trkpt>
        <trkpt lat="39.87518437206745" lon="3.1707747280597687"><ele>0</ele><time>1970-01-01T00:00:00Z</time><name>WP 472</name></trkpt>
        <trkpt lat="39.87518437206745" lon="3.170962482690811"><ele>0</ele><time>1970-01-01T00:00:00Z</time><name>WP 473</name></trkpt>
        <trkpt lat="39.87510859966278" lon="3.1718610227108"><ele>0</ele><time>1970-01-01T00:00:00Z</time><name>WP 474</name></trkpt>
        <trkpt lat="39.87510859966278" lon="3.1720326840877533"><ele>0</ele><time>1970-01-01T00:00:00Z</time><name>WP 475</name></trkpt>
        <trkpt lat="39.875177666544914" lon="3.1722472608089447"><ele>0</ele><time>1970-01-01T00:00:00Z</time><name>WP 476</name></trkpt>
        <trkpt lat="39.87522594630718" lon="3.1723102927207947"><ele>0</ele><time>1970-01-01T00:00:00Z</time><name>WP 477</name></trkpt>
        <trkpt lat="39.87528830766678" lon="3.1723639369010925"><ele>0</ele><time>1970-01-01T00:00:00Z</time><name>WP 478</name></trkpt>
        <trkpt lat="39.87541235983372" lon="3.1723827123641968"><ele>0</ele><time>1970-01-01T00:00:00Z</time><name>WP 479</name></trkpt>
        <trkpt lat="39.87556390464306" lon="3.172319680452347"><ele>0</ele><time>1970-01-01T00:00:00Z</time><name>WP 480</name></trkpt>
        <trkpt lat="39.8758327960968" lon="3.172023296356201"><ele>0</ele><time>1970-01-01T00:00:00Z</time><name>WP 481</name></trkpt>
        <trkpt lat="39.8759226500988" lon="3.1719696521759033"><ele>0</ele><time>1970-01-01T00:00:00Z</time><name>WP 482</name></trkpt>
        <trkpt lat="39.87599842250347" lon="3.171960264444351"><ele>0</ele><time>1970-01-01T00:00:00Z</time><name>WP 483</name></trkpt>
        <trkpt lat="39.87610839307308" lon="3.1719870865345"><ele>0</ele><time>1970-01-01T00:00:00Z</time><name>WP 484</name></trkpt>
        <trkpt lat="39.876267313957214" lon="3.172086328268051"><ele>0</ele><time>1970-01-01T00:00:00Z</time><name>WP 485</name></trkpt>
        <trkpt lat="39.876542910933495" lon="3.1724631786346436"><ele>0</ele><time>1970-01-01T00:00:00Z</time><name>WP 486</name></trkpt>
        <trkpt lat="39.876618683338165" lon="3.1726428866386414"><ele>0</ele><time>1970-01-01T00:00:00Z</time><name>WP 487</name></trkpt>
        <trkpt lat="39.87663947045803" lon="3.1727957725524902"><ele>0</ele><time>1970-01-01T00:00:00Z</time><name>WP 488</name></trkpt>
        <trkpt lat="39.876577109098434" lon="3.1732088327407837"><ele>0</ele><time>1970-01-01T00:00:00Z</time><name>WP 489</name></trkpt>
        <trkpt lat="39.876584485173225" lon="3.1732986867427826"><ele>0</ele><time>1970-01-01T00:00:00Z</time><name>WP 490</name></trkpt>
        <trkpt lat="39.87663947045803" lon="3.1734059751033783"><ele>0</ele><time>1970-01-01T00:00:00Z</time><name>WP 491</name></trkpt>
        <trkpt lat="39.87676352262497" lon="3.173558861017227"><ele>0</ele><time>1970-01-01T00:00:00Z</time><name>WP 492</name></trkpt>
        <trkpt lat="39.87679772078991" lon="3.1736674904823303"><ele>0</ele><time>1970-01-01T00:00:00Z</time><name>WP 493</name></trkpt>
        <trkpt lat="39.87682521343231" lon="3.173927664756775"><ele>0</ele><time>1970-01-01T00:00:00Z</time><name>WP 494</name></trkpt>
        <trkpt lat="39.876860082149506" lon="3.1740081310272217"><ele>0</ele><time>1970-01-01T00:00:00Z</time><name>WP 495</name></trkpt>
        <trkpt lat="39.87694926559925" lon="3.174080550670624"><ele>0</ele><time>1970-01-01T00:00:00Z</time><name>WP 496</name></trkpt>
        <trkpt lat="39.87715646624565" lon="3.1741784512996674"><ele>0</ele><time>1970-01-01T00:00:00Z</time><name>WP 497</name></trkpt>
        <trkpt lat="39.87720474600792" lon="3.1742240488529205"><ele>0</ele><time>1970-01-01T00:00:00Z</time><name>WP 498</name></trkpt>
        <trkpt lat="39.87727381289005" lon="3.1743139028549194"><ele>0</ele><time>1970-01-01T00:00:00Z</time><name>WP 499</name></trkpt>
        <trkpt lat="39.87734958529472" lon="3.1744399666786194"><ele>0</ele><time>1970-01-01T00:00:00Z</time><name>WP 500</name></trkpt>
        <trkpt lat="39.87740457057953" lon="3.174619674682617"><ele>0</ele><time>1970-01-01T00:00:00Z</time><name>WP 501</name></trkpt>
        <trkpt lat="39.87739786505699" lon="3.174726963043213"><ele>0</ele><time>1970-01-01T00:00:00Z</time><name>WP 502</name></trkpt>
        <trkpt lat="39.87734220921993" lon="3.174853026866913"><ele>0</ele><time>1970-01-01T00:00:00Z</time><name>WP 503</name></trkpt>
        <trkpt lat="39.877218157052994" lon="3.1750421226024628"><ele>0</ele><time>1970-01-01T00:00:00Z</time><name>WP 504</name></trkpt>
        <trkpt lat="39.87719066441059" lon="3.1751225888729095"><ele>0</ele><time>1970-01-01T00:00:00Z</time><name>WP 505</name></trkpt>
        <trkpt lat="39.877183958888054" lon="3.1752124428749084"><ele>0</ele><time>1970-01-01T00:00:00Z</time><name>WP 506</name></trkpt>
        <trkpt lat="39.87720474600792" lon="3.175283521413803"><ele>0</ele><time>1970-01-01T00:00:00Z</time><name>WP 507</name></trkpt>
        <trkpt lat="39.877245649695396" lon="3.1753653287887573"><ele>0</ele><time>1970-01-01T00:00:00Z</time><name>WP 508</name></trkpt>
        <trkpt lat="39.87734220921993" lon="3.1754283607006073"><ele>0</ele><time>1970-01-01T00:00:00Z</time><name>WP 509</name></trkpt>
        <trkpt lat="39.877425357699394" lon="3.175436407327652"><ele>0</ele><time>1970-01-01T00:00:00Z</time><name>WP 510</name></trkpt>
        <trkpt lat="39.87756282091141" lon="3.1753921508789062"><ele>0</ele><time>1970-01-01T00:00:00Z</time><name>WP 511</name></trkpt>
        <trkpt lat="39.87802483141422" lon="3.1751668453216553"><ele>0</ele><time>1970-01-01T00:00:00Z</time><name>WP 512</name></trkpt>
        <trkpt lat="39.87812139093876" lon="3.1751856207847595"><ele>0</ele><time>1970-01-01T00:00:00Z</time><name>WP 513</name></trkpt>
        <trkpt lat="39.878183752298355" lon="3.1752298772335052"><ele>0</ele><time>1970-01-01T00:00:00Z</time><name>WP 514</name></trkpt>
        <trkpt lat="39.8783627897501" lon="3.175445795059204"><ele>0</ele><time>1970-01-01T00:00:00Z</time><name>WP 515</name></trkpt>
        <trkpt lat="39.87842448055744" lon="3.17549005150795"><ele>0</ele><time>1970-01-01T00:00:00Z</time><name>WP 516</name></trkpt>
        <trkpt lat="39.87851433455944" lon="3.175535649061203"><ele>0</ele><time>1970-01-01T00:00:00Z</time><name>WP 517</name></trkpt>
        <trkpt lat="39.878990426659584" lon="3.175598680973053"><ele>0</ele><time>1970-01-01T00:00:00Z</time><name>WP 518</name></trkpt>
        <trkpt lat="39.87908631563187" lon="3.175661712884903"><ele>0</ele><time>1970-01-01T00:00:00Z</time><name>WP 519</name></trkpt>
        <trkpt lat="39.8791278898716" lon="3.1757596135139465"><ele>0</ele><time>1970-01-01T00:00:00Z</time><name>WP 520</name></trkpt>
        <trkpt lat="39.879141971468925" lon="3.1758588552474976"><ele>0</ele><time>1970-01-01T00:00:00Z</time><name>WP 521</name></trkpt>
        <trkpt lat="39.879141971468925" lon="3.1762276589870453"><ele>0</ele><time>1970-01-01T00:00:00Z</time><name>WP 522</name></trkpt>
        <trkpt lat="39.8791828751564" lon="3.17642480134964"><ele>0</ele><time>1970-01-01T00:00:00Z</time><name>WP 523</name></trkpt>
        <trkpt lat="39.87925864756107" lon="3.1765682995319366"><ele>0</ele><time>1970-01-01T00:00:00Z</time><name>WP 524</name></trkpt>
        <trkpt lat="39.87947255373001" lon="3.1768740713596344"><ele>0</ele><time>1970-01-01T00:00:00Z</time><name>WP 525</name></trkpt>
        <trkpt lat="39.87956911325455" lon="3.1770631670951843"><ele>0</ele><time>1970-01-01T00:00:00Z</time><name>WP 526</name></trkpt>
        <trkpt lat="39.87962409853935" lon="3.177134245634079"><ele>0</ele><time>1970-01-01T00:00:00Z</time><name>WP 527</name></trkpt>
        <trkpt lat="39.879693165421486" lon="3.177179843187332"><ele>0</ele><time>1970-01-01T00:00:00Z</time><name>WP 528</name></trkpt>
        <trkpt lat="39.880024418234825" lon="3.1773045659065247"><ele>0</ele><time>1970-01-01T00:00:00Z</time><name>WP 529</name></trkpt>
        <trkpt lat="39.8801551759243" lon="3.1774038076400757"><ele>0</ele><time>1970-01-01T00:00:00Z</time><name>WP 530</name></trkpt>
        <trkpt lat="39.880216866731644" lon="3.177476227283478"><ele>0</ele><time>1970-01-01T00:00:00Z</time><name>WP 531</name></trkpt>
        <trkpt lat="39.88027922809124" lon="3.1775835156440735"><ele>0</ele><time>1970-01-01T00:00:00Z</time><name>WP 532</name></trkpt>
        <trkpt lat="39.88044485449791" lon="3.178015351295471"><ele>0</ele><time>1970-01-01T00:00:00Z</time><name>WP 533</name></trkpt>
        <trkpt lat="39.880699664354324" lon="3.1784364581108093"><ele>0</ele><time>1970-01-01T00:00:00Z</time><name>WP 534</name></trkpt>
        <trkpt lat="39.880817010998726" lon="3.1785625219345093"><ele>0</ele><time>1970-01-01T00:00:00Z</time><name>WP 535</name></trkpt>
        <trkpt lat="39.881030917167664" lon="3.1786617636680603"><ele>0</ele><time>1970-01-01T00:00:00Z</time><name>WP 536</name></trkpt>
        <trkpt lat="39.88131992518902" lon="3.1787341833114624"><ele>0</ele><time>1970-01-01T00:00:00Z</time><name>WP 537</name></trkpt>
        <trkpt lat="39.88143056631088" lon="3.178778439760208"><ele>0</ele><time>1970-01-01T00:00:00Z</time><name>WP 538</name></trkpt>
        <trkpt lat="39.881499633193016" lon="3.178841471672058"><ele>0</ele><time>1970-01-01T00:00:00Z</time><name>WP 539</name></trkpt>
        <trkpt lat="39.881568029522896" lon="3.178940713405609"><ele>0</ele><time>1970-01-01T00:00:00Z</time><name>WP 540</name></trkpt>
        <trkpt lat="39.88163039088249" lon="3.1790922582149506"><ele>0</ele><time>1970-01-01T00:00:00Z</time><name>WP 541</name></trkpt>
        <trkpt lat="39.88188520073891" lon="3.179892897605896"><ele>0</ele><time>1970-01-01T00:00:00Z</time><name>WP 542</name></trkpt>
        <trkpt lat="39.88196834921837" lon="3.1800270080566406"><ele>0</ele><time>1970-01-01T00:00:00Z</time><name>WP 543</name></trkpt>
        <trkpt lat="39.88216817378998" lon="3.1802523136138916"><ele>0</ele><time>1970-01-01T00:00:00Z</time><name>WP 544</name></trkpt>
        <trkpt lat="39.88223724067211" lon="3.180377036333084"><ele>0</ele><time>1970-01-01T00:00:00Z</time><name>WP 545</name></trkpt>
        <trkpt lat="39.88231971859932" lon="3.180602341890335"><ele>0</ele><time>1970-01-01T00:00:00Z</time><name>WP 546</name></trkpt>
        <trkpt lat="39.88242968916893" lon="3.181302398443222"><ele>0</ele><time>1970-01-01T00:00:00Z</time><name>WP 547</name></trkpt>
        <trkpt lat="39.88256111741066" lon="3.1818147003650665"><ele>0</ele><time>1970-01-01T00:00:00Z</time><name>WP 548</name></trkpt>
        <trkpt lat="39.88256111741066" lon="3.1818147003650665"><ele>0</ele><time>1970-01-01T00:00:00Z</time><name>WP 549</name></trkpt>
        <trkpt lat="39.88242968916893" lon="3.181302398443222"><ele>0</ele><time>1970-01-01T00:00:00Z</time><name>WP 550</name></trkpt>
        <trkpt lat="39.88231971859932" lon="3.180602341890335"><ele>0</ele><time>1970-01-01T00:00:00Z</time><name>WP 551</name></trkpt>
        <trkpt lat="39.88223724067211" lon="3.180377036333084"><ele>0</ele><time>1970-01-01T00:00:00Z</time><name>WP 552</name></trkpt>
        <trkpt lat="39.88216817378998" lon="3.1802523136138916"><ele>0</ele><time>1970-01-01T00:00:00Z</time><name>WP 553</name></trkpt>
        <trkpt lat="39.88196834921837" lon="3.1800270080566406"><ele>0</ele><time>1970-01-01T00:00:00Z</time><name>WP 554</name></trkpt>
        <trkpt lat="39.88188520073891" lon="3.179892897605896"><ele>0</ele><time>1970-01-01T00:00:00Z</time><name>WP 555</name></trkpt>
        <trkpt lat="39.88163039088249" lon="3.1790922582149506"><ele>0</ele><time>1970-01-01T00:00:00Z</time><name>WP 556</name></trkpt>
        <trkpt lat="39.881568029522896" lon="3.178940713405609"><ele>0</ele><time>1970-01-01T00:00:00Z</time><name>WP 557</name></trkpt>
        <trkpt lat="39.881499633193016" lon="3.178841471672058"><ele>0</ele><time>1970-01-01T00:00:00Z</time><name>WP 558</name></trkpt>
        <trkpt lat="39.88143056631088" lon="3.178778439760208"><ele>0</ele><time>1970-01-01T00:00:00Z</time><name>WP 559</name></trkpt>
        <trkpt lat="39.88131992518902" lon="3.1787341833114624"><ele>0</ele><time>1970-01-01T00:00:00Z</time><name>WP 560</name></trkpt>
        <trkpt lat="39.881030917167664" lon="3.1786617636680603"><ele>0</ele><time>1970-01-01T00:00:00Z</time><name>WP 561</name></trkpt>
        <trkpt lat="39.880817010998726" lon="3.1785625219345093"><ele>0</ele><time>1970-01-01T00:00:00Z</time><name>WP 562</name></trkpt>
        <trkpt lat="39.880699664354324" lon="3.1784364581108093"><ele>0</ele><time>1970-01-01T00:00:00Z</time><name>WP 563</name></trkpt>
        <trkpt lat="39.88044485449791" lon="3.178015351295471"><ele>0</ele><time>1970-01-01T00:00:00Z</time><name>WP 564</name></trkpt>
        <trkpt lat="39.88027922809124" lon="3.1775835156440735"><ele>0</ele><time>1970-01-01T00:00:00Z</time><name>WP 565</name></trkpt>
        <trkpt lat="39.880216866731644" lon="3.177476227283478"><ele>0</ele><time>1970-01-01T00:00:00Z</time><name>WP 566</name></trkpt>
        <trkpt lat="39.8801551759243" lon="3.1774038076400757"><ele>0</ele><time>1970-01-01T00:00:00Z</time><name>WP 567</name></trkpt>
        <trkpt lat="39.880024418234825" lon="3.1773045659065247"><ele>0</ele><time>1970-01-01T00:00:00Z</time><name>WP 568</name></trkpt>
        <trkpt lat="39.879693165421486" lon="3.177179843187332"><ele>0</ele><time>1970-01-01T00:00:00Z</time><name>WP 569</name></trkpt>
        <trkpt lat="39.87962409853935" lon="3.177134245634079"><ele>0</ele><time>1970-01-01T00:00:00Z</time><name>WP 570</name></trkpt>
        <trkpt lat="39.87956911325455" lon="3.1770631670951843"><ele>0</ele><time>1970-01-01T00:00:00Z</time><name>WP 571</name></trkpt>
        <trkpt lat="39.87947255373001" lon="3.1768740713596344"><ele>0</ele><time>1970-01-01T00:00:00Z</time><name>WP 572</name></trkpt>
        <trkpt lat="39.87925864756107" lon="3.1765682995319366"><ele>0</ele><time>1970-01-01T00:00:00Z</time><name>WP 573</name></trkpt>
        <trkpt lat="39.8791828751564" lon="3.17642480134964"><ele>0</ele><time>1970-01-01T00:00:00Z</time><name>WP 574</name></trkpt>
        <trkpt lat="39.879141971468925" lon="3.1762276589870453"><ele>0</ele><time>1970-01-01T00:00:00Z</time><name>WP 575</name></trkpt>
        <trkpt lat="39.879141971468925" lon="3.1758588552474976"><ele>0</ele><time>1970-01-01T00:00:00Z</time><name>WP 576</name></trkpt>
        <trkpt lat="39.8791278898716" lon="3.1757596135139465"><ele>0</ele><time>1970-01-01T00:00:00Z</time><name>WP 577</name></trkpt>
        <trkpt lat="39.87908631563187" lon="3.175661712884903"><ele>0</ele><time>1970-01-01T00:00:00Z</time><name>WP 578</name></trkpt>
        <trkpt lat="39.878990426659584" lon="3.175598680973053"><ele>0</ele><time>1970-01-01T00:00:00Z</time><name>WP 579</name></trkpt>
        <trkpt lat="39.87851433455944" lon="3.175535649061203"><ele>0</ele><time>1970-01-01T00:00:00Z</time><name>WP 580</name></trkpt>
        <trkpt lat="39.87842448055744" lon="3.17549005150795"><ele>0</ele><time>1970-01-01T00:00:00Z</time><name>WP 581</name></trkpt>
        <trkpt lat="39.8783627897501" lon="3.175445795059204"><ele>0</ele><time>1970-01-01T00:00:00Z</time><name>WP 582</name></trkpt>
        <trkpt lat="39.878183752298355" lon="3.1752298772335052"><ele>0</ele><time>1970-01-01T00:00:00Z</time><name>WP 583</name></trkpt>
        <trkpt lat="39.87812139093876" lon="3.1751856207847595"><ele>0</ele><time>1970-01-01T00:00:00Z</time><name>WP 584</name></trkpt>
        <trkpt lat="39.87802483141422" lon="3.1751668453216553"><ele>0</ele><time>1970-01-01T00:00:00Z</time><name>WP 585</name></trkpt>
        <trkpt lat="39.87756282091141" lon="3.1753921508789062"><ele>0</ele><time>1970-01-01T00:00:00Z</time><name>WP 586</name></trkpt>
        <trkpt lat="39.877425357699394" lon="3.175436407327652"><ele>0</ele><time>1970-01-01T00:00:00Z</time><name>WP 587</name></trkpt>
        <trkpt lat="39.87734220921993" lon="3.1754283607006073"><ele>0</ele><time>1970-01-01T00:00:00Z</time><name>WP 588</name></trkpt>
        <trkpt lat="39.877245649695396" lon="3.1753653287887573"><ele>0</ele><time>1970-01-01T00:00:00Z</time><name>WP 589</name></trkpt>
        <trkpt lat="39.87720474600792" lon="3.175283521413803"><ele>0</ele><time>1970-01-01T00:00:00Z</time><name>WP 590</name></trkpt>
        <trkpt lat="39.877183958888054" lon="3.1752124428749084"><ele>0</ele><time>1970-01-01T00:00:00Z</time><name>WP 591</name></trkpt>
        <trkpt lat="39.87719066441059" lon="3.1751225888729095"><ele>0</ele><time>1970-01-01T00:00:00Z</time><name>WP 592</name></trkpt>
        <trkpt lat="39.877218157052994" lon="3.1750421226024628"><ele>0</ele><time>1970-01-01T00:00:00Z</time><name>WP 593</name></trkpt>
        <trkpt lat="39.87734220921993" lon="3.174853026866913"><ele>0</ele><time>1970-01-01T00:00:00Z</time><name>WP 594</name></trkpt>
        <trkpt lat="39.87739786505699" lon="3.174726963043213"><ele>0</ele><time>1970-01-01T00:00:00Z</time><name>WP 595</name></trkpt>
        <trkpt lat="39.87740457057953" lon="3.174619674682617"><ele>0</ele><time>1970-01-01T00:00:00Z</time><name>WP 596</name></trkpt>
        <trkpt lat="39.87734958529472" lon="3.1744399666786194"><ele>0</ele><time>1970-01-01T00:00:00Z</time><name>WP 597</name></trkpt>
        <trkpt lat="39.87727381289005" lon="3.1743139028549194"><ele>0</ele><time>1970-01-01T00:00:00Z</time><name>WP 598</name></trkpt>
        <trkpt lat="39.87720474600792" lon="3.1742240488529205"><ele>0</ele><time>1970-01-01T00:00:00Z</time><name>WP 599</name></trkpt>
        <trkpt lat="39.87715646624565" lon="3.1741784512996674"><ele>0</ele><time>1970-01-01T00:00:00Z</time><name>WP 600</name></trkpt>
        <trkpt lat="39.87694926559925" lon="3.174080550670624"><ele>0</ele><time>1970-01-01T00:00:00Z</time><name>WP 601</name></trkpt>
        <trkpt lat="39.876860082149506" lon="3.1740081310272217"><ele>0</ele><time>1970-01-01T00:00:00Z</time><name>WP 602</name></trkpt>
        <trkpt lat="39.87682521343231" lon="3.173927664756775"><ele>0</ele><time>1970-01-01T00:00:00Z</time><name>WP 603</name></trkpt>
        <trkpt lat="39.87679772078991" lon="3.1736674904823303"><ele>0</ele><time>1970-01-01T00:00:00Z</time><name>WP 604</name></trkpt>
        <trkpt lat="39.87676352262497" lon="3.173558861017227"><ele>0</ele><time>1970-01-01T00:00:00Z</time><name>WP 605</name></trkpt>
        <trkpt lat="39.87663947045803" lon="3.1734059751033783"><ele>0</ele><time>1970-01-01T00:00:00Z</time><name>WP 606</name></trkpt>
        <trkpt lat="39.876584485173225" lon="3.1732986867427826"><ele>0</ele><time>1970-01-01T00:00:00Z</time><name>WP 607</name></trkpt>
        <trkpt lat="39.876577109098434" lon="3.1732088327407837"><ele>0</ele><time>1970-01-01T00:00:00Z</time><name>WP 608</name></trkpt>
        <trkpt lat="39.87663947045803" lon="3.1727957725524902"><ele>0</ele><time>1970-01-01T00:00:00Z</time><name>WP 609</name></trkpt>
        <trkpt lat="39.876618683338165" lon="3.1726428866386414"><ele>0</ele><time>1970-01-01T00:00:00Z</time><name>WP 610</name></trkpt>
        <trkpt lat="39.876542910933495" lon="3.1724631786346436"><ele>0</ele><time>1970-01-01T00:00:00Z</time><name>WP 611</name></trkpt>
        <trkpt lat="39.876267313957214" lon="3.172086328268051"><ele>0</ele><time>1970-01-01T00:00:00Z</time><name>WP 612</name></trkpt>
        <trkpt lat="39.87610839307308" lon="3.1719870865345"><ele>0</ele><time>1970-01-01T00:00:00Z</time><name>WP 613</name></trkpt>
        <trkpt lat="39.87599842250347" lon="3.171960264444351"><ele>0</ele><time>1970-01-01T00:00:00Z</time><name>WP 614</name></trkpt>
        <trkpt lat="39.8759226500988" lon="3.1719696521759033"><ele>0</ele><time>1970-01-01T00:00:00Z</time><name>WP 615</name></trkpt>
        <trkpt lat="39.8758327960968" lon="3.172023296356201"><ele>0</ele><time>1970-01-01T00:00:00Z</time><name>WP 616</name></trkpt>
        <trkpt lat="39.87556390464306" lon="3.172319680452347"><ele>0</ele><time>1970-01-01T00:00:00Z</time><name>WP 617</name></trkpt>
        <trkpt lat="39.87541235983372" lon="3.1723827123641968"><ele>0</ele><time>1970-01-01T00:00:00Z</time><name>WP 618</name></trkpt>
        <trkpt lat="39.87528830766678" lon="3.1723639369010925"><ele>0</ele><time>1970-01-01T00:00:00Z</time><name>WP 619</name></trkpt>
        <trkpt lat="39.87522594630718" lon="3.1723102927207947"><ele>0</ele><time>1970-01-01T00:00:00Z</time><name>WP 620</name></trkpt>
        <trkpt lat="39.875177666544914" lon="3.1722472608089447"><ele>0</ele><time>1970-01-01T00:00:00Z</time><name>WP 621</name></trkpt>
        <trkpt lat="39.87510859966278" lon="3.1720326840877533"><ele>0</ele><time>1970-01-01T00:00:00Z</time><name>WP 622</name></trkpt>
        <trkpt lat="39.87510859966278" lon="3.1718610227108"><ele>0</ele><time>1970-01-01T00:00:00Z</time><name>WP 623</name></trkpt>
        <trkpt lat="39.87518437206745" lon="3.170962482690811"><ele>0</ele><time>1970-01-01T00:00:00Z</time><name>WP 624</name></trkpt>
        <trkpt lat="39.87518437206745" lon="3.1707747280597687"><ele>0</ele><time>1970-01-01T00:00:00Z</time><name>WP 625</name></trkpt>
        <trkpt lat="39.875129386782646" lon="3.170604407787323"><ele>0</ele><time>1970-01-01T00:00:00Z</time><name>WP 626</name></trkpt>
        <trkpt lat="39.87491548061371" lon="3.1703348457813263"><ele>0</ele><time>1970-01-01T00:00:00Z</time><name>WP 627</name></trkpt>
        <trkpt lat="39.87487457692623" lon="3.1702181696891785"><ele>0</ele><time>1970-01-01T00:00:00Z</time><name>WP 628</name></trkpt>
        <trkpt lat="39.87487457692623" lon="3.1700733304023743"><ele>0</ele><time>1970-01-01T00:00:00Z</time><name>WP 629</name></trkpt>
        <trkpt lat="39.87490877509117" lon="3.1699834764003754"><ele>0</ele><time>1970-01-01T00:00:00Z</time><name>WP 630</name></trkpt>
        <trkpt lat="39.87512268126011" lon="3.169696480035782"><ele>0</ele><time>1970-01-01T00:00:00Z</time><name>WP 631</name></trkpt>
        <trkpt lat="39.87515687942505" lon="3.169579803943634"><ele>0</ele><time>1970-01-01T00:00:00Z</time><name>WP 632</name></trkpt>
        <trkpt lat="39.87516425549984" lon="3.169390708208084"><ele>0</ele><time>1970-01-01T00:00:00Z</time><name>WP 633</name></trkpt>
        <trkpt lat="39.875053614377975" lon="3.168663829565048"><ele>0</ele><time>1970-01-01T00:00:00Z</time><name>WP 634</name></trkpt>
        <trkpt lat="39.87495705485344" lon="3.1682226061820984"><ele>0</ele><time>1970-01-01T00:00:00Z</time><name>WP 635</name></trkpt>
        <trkpt lat="39.874902069568634" lon="3.1681059300899506"><ele>0</ele><time>1970-01-01T00:00:00Z</time><name>WP 636</name></trkpt>
        <trkpt lat="39.87466737627983" lon="3.167765289545059"><ele>0</ele><time>1970-01-01T00:00:00Z</time><name>WP 637</name></trkpt>
        <trkpt lat="39.87463317811489" lon="3.1676848232746124"><ele>0</ele><time>1970-01-01T00:00:00Z</time><name>WP 638</name></trkpt>
        <trkpt lat="39.874612390995026" lon="3.1675587594509125"><ele>0</ele><time>1970-01-01T00:00:00Z</time><name>WP 639</name></trkpt>
        <trkpt lat="39.87460568547249" lon="3.167325407266617"><ele>0</ele><time>1970-01-01T00:00:00Z</time><name>WP 640</name></trkpt>
        <trkpt lat="39.87460568547249" lon="3.1672529876232147"><ele>0</ele><time>1970-01-01T00:00:00Z</time><name>WP 641</name></trkpt>
        <trkpt lat="39.87460568547249" lon="3.167082667350769"><ele>0</ele><time>1970-01-01T00:00:00Z</time><name>WP 642</name></trkpt>
        <trkpt lat="39.87450912594795" lon="3.166363835334778"><ele>0</ele><time>1970-01-01T00:00:00Z</time><name>WP 643</name></trkpt>
        <trkpt lat="39.87450912594795" lon="3.1658609211444855"><ele>0</ele><time>1970-01-01T00:00:00Z</time><name>WP 644</name></trkpt>
        <trkpt lat="39.87448163330555" lon="3.165537714958191"><ele>0</ele><time>1970-01-01T00:00:00Z</time><name>WP 645</name></trkpt>
        <trkpt lat="39.87440586090088" lon="3.165339231491089"><ele>0</ele><time>1970-01-01T00:00:00Z</time><name>WP 646</name></trkpt>
        <trkpt lat="39.87432271242142" lon="3.16518634557724"><ele>0</ele><time>1970-01-01T00:00:00Z</time><name>WP 647</name></trkpt>
        <trkpt lat="39.87420603632927" lon="3.165069669485092"><ele>0</ele><time>1970-01-01T00:00:00Z</time><name>WP 648</name></trkpt>
        <trkpt lat="39.87408131361008" lon="3.1650254130363464"><ele>0</ele><time>1970-01-01T00:00:00Z</time><name>WP 649</name></trkpt>
        <trkpt lat="39.87396463751793" lon="3.1650160253047943"><ele>0</ele><time>1970-01-01T00:00:00Z</time><name>WP 650</name></trkpt>
        <trkpt lat="39.87343356013298" lon="3.165096491575241"><ele>0</ele><time>1970-01-01T00:00:00Z</time><name>WP 651</name></trkpt>
        <trkpt lat="39.873288720846176" lon="3.165096491575241"><ele>0</ele><time>1970-01-01T00:00:00Z</time><name>WP 652</name></trkpt>
        <trkpt lat="39.87319886684418" lon="3.1650522351264954"><ele>0</ele><time>1970-01-01T00:00:00Z</time><name>WP 653</name></trkpt>
        <trkpt lat="39.87308219075203" lon="3.1649449467658997"><ele>0</ele><time>1970-01-01T00:00:00Z</time><name>WP 654</name></trkpt>
        <trkpt lat="39.873047322034836" lon="3.1648631393909454"><ele>0</ele><time>1970-01-01T00:00:00Z</time><name>WP 655</name></trkpt>
        <trkpt lat="39.87303391098976" lon="3.1647826731204987"><ele>0</ele><time>1970-01-01T00:00:00Z</time><name>WP 656</name></trkpt>
        <trkpt lat="39.87305469810963" lon="3.164639174938202"><ele>0</ele><time>1970-01-01T00:00:00Z</time><name>WP 657</name></trkpt>
        <trkpt lat="39.87333029508591" lon="3.163902908563614"><ele>0</ele><time>1970-01-01T00:00:00Z</time><name>WP 658</name></trkpt>
        <trkpt lat="39.87334370613098" lon="3.163686990737915"><ele>0</ele><time>1970-01-01T00:00:00Z</time><name>WP 659</name></trkpt>
        <trkpt lat="39.87333029508591" lon="3.163597136735916"><ele>0</ele><time>1970-01-01T00:00:00Z</time><name>WP 660</name></trkpt>
        <trkpt lat="39.873288720846176" lon="3.1634536385536194"><ele>0</ele><time>1970-01-01T00:00:00Z</time><name>WP 661</name></trkpt>
        <trkpt lat="39.873227030038834" lon="3.1633369624614716"><ele>0</ele><time>1970-01-01T00:00:00Z</time><name>WP 662</name></trkpt>
        <trkpt lat="39.87312309443951" lon="3.1632015109062195"><ele>0</ele><time>1970-01-01T00:00:00Z</time><name>WP 663</name></trkpt>
        <trkpt lat="39.87287499010563" lon="3.1629225611686707"><ele>0</ele><time>1970-01-01T00:00:00Z</time><name>WP 664</name></trkpt>
        <trkpt lat="39.872695952653885" lon="3.162662386894226"><ele>0</ele><time>1970-01-01T00:00:00Z</time><name>WP 665</name></trkpt>
        <trkpt lat="39.872606098651886" lon="3.1623928248882294"><ele>0</ele><time>1970-01-01T00:00:00Z</time><name>WP 666</name></trkpt>
        <trkpt lat="39.87255781888962" lon="3.1621500849723816"><ele>0</ele><time>1970-01-01T00:00:00Z</time><name>WP 667</name></trkpt>
        <trkpt lat="39.87252362072468" lon="3.161926120519638"><ele>0</ele><time>1970-01-01T00:00:00Z</time><name>WP 668</name></trkpt>
        <trkpt lat="39.87250283360481" lon="3.161836266517639"><ele>0</ele><time>1970-01-01T00:00:00Z</time><name>WP 669</name></trkpt>
        <trkpt lat="39.87246125936508" lon="3.1616203486919403"><ele>0</ele><time>1970-01-01T00:00:00Z</time><name>WP 670</name></trkpt>
        <trkpt lat="39.872254729270935" lon="3.161108046770096"><ele>0</ele><time>1970-01-01T00:00:00Z</time><name>WP 671</name></trkpt>
        <trkpt lat="39.872130677103996" lon="3.1608036160469055"><ele>0</ele><time>1970-01-01T00:00:00Z</time><name>WP 672</name></trkpt>
        <trkpt lat="39.87206161022186" lon="3.1606319546699524"><ele>0</ele><time>1970-01-01T00:00:00Z</time><name>WP 673</name></trkpt>
        <trkpt lat="39.871923476457596" lon="3.160417377948761"><ele>0</ele><time>1970-01-01T00:00:00Z</time><name>WP 674</name></trkpt>
        <trkpt lat="39.87184099853039" lon="3.160281926393509"><ele>0</ele><time>1970-01-01T00:00:00Z</time><name>WP 675</name></trkpt>
        <trkpt lat="39.87162709236145" lon="3.1599412858486176"><ele>0</ele><time>1970-01-01T00:00:00Z</time><name>WP 676</name></trkpt>
        <trkpt lat="39.87137898802757" lon="3.1597253680229187"><ele>0</ele><time>1970-01-01T00:00:00Z</time><name>WP 677</name></trkpt>
        <trkpt lat="39.87126164138317" lon="3.159644901752472"><ele>0</ele><time>1970-01-01T00:00:00Z</time><name>WP 678</name></trkpt>
        <trkpt lat="39.871220737695694" lon="3.15950945019722"><ele>0</ele><time>1970-01-01T00:00:00Z</time><name>WP 679</name></trkpt>
        <trkpt lat="39.8711858689785" lon="3.1591594219207764"><ele>0</ele><time>1970-01-01T00:00:00Z</time><name>WP 680</name></trkpt>
        <trkpt lat="39.871206656098366" lon="3.1589891016483307"><ele>0</ele><time>1970-01-01T00:00:00Z</time><name>WP 681</name></trkpt>
        <trkpt lat="39.871289134025574" lon="3.158620297908783"><ele>0</ele><time>1970-01-01T00:00:00Z</time><name>WP 682</name></trkpt>
        <trkpt lat="39.871296510100365" lon="3.158494234085083"><ele>0</ele><time>1970-01-01T00:00:00Z</time><name>WP 683</name></trkpt>
        <trkpt lat="39.87126901745796" lon="3.1584231555461884"><ele>0</ele><time>1970-01-01T00:00:00Z</time><name>WP 684</name></trkpt>
        <trkpt lat="39.871006831526756" lon="3.1580905616283417"><ele>0</ele><time>1970-01-01T00:00:00Z</time><name>WP 685</name></trkpt>
        <trkpt lat="39.870855286717415" lon="3.157937675714493"><ele>0</ele><time>1970-01-01T00:00:00Z</time><name>WP 686</name></trkpt>
        <trkpt lat="39.870813712477684" lon="3.1578652560710907"><ele>0</ele><time>1970-01-01T00:00:00Z</time><name>WP 687</name></trkpt>
        <trkpt lat="39.87067557871342" lon="3.1575246155261993"><ele>0</ele><time>1970-01-01T00:00:00Z</time><name>WP 688</name></trkpt>
        <trkpt lat="39.87057901918888" lon="3.1572456657886505"><ele>0</ele><time>1970-01-01T00:00:00Z</time><name>WP 689</name></trkpt>
        <trkpt lat="39.87055890262127" lon="3.1571289896965027"><ele>0</ele><time>1970-01-01T00:00:00Z</time><name>WP 690</name></trkpt>
        <trkpt lat="39.87056560814381" lon="3.157012313604355"><ele>0</ele><time>1970-01-01T00:00:00Z</time><name>WP 691</name></trkpt>
        <trkpt lat="39.87060718238354" lon="3.156643509864807"><ele>0</ele><time>1970-01-01T00:00:00Z</time><name>WP 692</name></trkpt>
        <trkpt lat="39.87060718238354" lon="3.1565268337726593"><ele>0</ele><time>1970-01-01T00:00:00Z</time><name>WP 693</name></trkpt>
        <trkpt lat="39.870572313666344" lon="3.1562840938568115"><ele>0</ele><time>1970-01-01T00:00:00Z</time><name>WP 694</name></trkpt>
        <trkpt lat="39.87051732838154" lon="3.155924677848816"><ele>0</ele><time>1970-01-01T00:00:00Z</time><name>WP 695</name></trkpt>
        <trkpt lat="39.87053073942661" lon="3.15581738948822"><ele>0</ele><time>1970-01-01T00:00:00Z</time><name>WP 696</name></trkpt>
        <trkpt lat="39.87059310078621" lon="3.1557101011276245"><ele>0</ele><time>1970-01-01T00:00:00Z</time><name>WP 697</name></trkpt>
        <trkpt lat="39.87062729895115" lon="3.1556738913059235"><ele>0</ele><time>1970-01-01T00:00:00Z</time><name>WP 698</name></trkpt>
        <trkpt lat="39.870779514312744" lon="3.1555384397506714"><ele>0</ele><time>1970-01-01T00:00:00Z</time><name>WP 699</name></trkpt>
        <trkpt lat="39.87086869776249" lon="3.1554217636585236"><ele>0</ele><time>1970-01-01T00:00:00Z</time><name>WP 700</name></trkpt>
        <trkpt lat="39.87094447016716" lon="3.1552420556545258"><ele>0</ele><time>1970-01-01T00:00:00Z</time><name>WP 701</name></trkpt>
        <trkpt lat="39.870965257287025" lon="3.1550905108451843"><ele>0</ele><time>1970-01-01T00:00:00Z</time><name>WP 702</name></trkpt>
        <trkpt lat="39.87095184624195" lon="3.1546586751937866"><ele>0</ele><time>1970-01-01T00:00:00Z</time><name>WP 703</name></trkpt>
        <trkpt lat="39.87097196280956" lon="3.15432608127594"><ele>0</ele><time>1970-01-01T00:00:00Z</time><name>WP 704</name></trkpt>
        <trkpt lat="39.87110339105129" lon="3.1538499891757965"><ele>0</ele><time>1970-01-01T00:00:00Z</time><name>WP 705</name></trkpt>
        <trkpt lat="39.871240854263306" lon="3.153410106897354"><ele>0</ele><time>1970-01-01T00:00:00Z</time><name>WP 706</name></trkpt>
        <trkpt lat="39.87131729722023" lon="3.1531579792499542"><ele>0</ele><time>1970-01-01T00:00:00Z</time><name>WP 707</name></trkpt>
        <trkpt lat="39.87131729722023" lon="3.1530413031578064"><ele>0</ele><time>1970-01-01T00:00:00Z</time><name>WP 708</name></trkpt>
        <trkpt lat="39.87123414874077" lon="3.1529782712459564"><ele>0</ele><time>1970-01-01T00:00:00Z</time><name>WP 709</name></trkpt>
        <trkpt lat="39.87104840576649" lon="3.153006434440613"><ele>0</ele><time>1970-01-01T00:00:00Z</time><name>WP 710</name></trkpt>
        <trkpt lat="39.870813712477684" lon="3.1530681252479553"><ele>0</ele><time>1970-01-01T00:00:00Z</time><name>WP 711</name></trkpt>
        <trkpt lat="39.87062059342861" lon="3.1529608368873596"><ele>0</ele><time>1970-01-01T00:00:00Z</time><name>WP 712</name></trkpt>
        <trkpt lat="39.87050324678421" lon="3.152880370616913"><ele>0</ele><time>1970-01-01T00:00:00Z</time><name>WP 713</name></trkpt>
        <trkpt lat="39.87034499645233" lon="3.152718096971512"><ele>0</ele><time>1970-01-01T00:00:00Z</time><name>WP 714</name></trkpt>
        <trkpt lat="39.87020015716553" lon="3.1524673104286194"><ele>0</ele><time>1970-01-01T00:00:00Z</time><name>WP 715</name></trkpt>
        <trkpt lat="39.87006202340126" lon="3.1522876024246216"><ele>0</ele><time>1970-01-01T00:00:00Z</time><name>WP 716</name></trkpt>
        <trkpt lat="39.869607388973236" lon="3.151918798685074"><ele>0</ele><time>1970-01-01T00:00:00Z</time><name>WP 717</name></trkpt>
        <trkpt lat="39.86949674785137" lon="3.151828944683075"><ele>0</ele><time>1970-01-01T00:00:00Z</time><name>WP 718</name></trkpt>
        <trkpt lat="39.86900053918362" lon="3.1511637568473816"><ele>0</ele><time>1970-01-01T00:00:00Z</time><name>WP 719</name></trkpt>
        <trkpt lat="39.868290424346924" lon="3.150220960378647"><ele>0</ele><time>1970-01-01T00:00:00Z</time><name>WP 720</name></trkpt>
        <trkpt lat="39.86821465194225" lon="3.150121718645096"><ele>0</ele><time>1970-01-01T00:00:00Z</time><name>WP 721</name></trkpt>
        <trkpt lat="39.86795246601105" lon="3.1497904658317566"><ele>0</ele><time>1970-01-01T00:00:00Z</time><name>WP 722</name></trkpt>
        <trkpt lat="39.86758030951023" lon="3.1495919823646545"><ele>0</ele><time>1970-01-01T00:00:00Z</time><name>WP 723</name></trkpt>
        <trkpt lat="39.86729063093662" lon="3.149322420358658"><ele>0</ele><time>1970-01-01T00:00:00Z</time><name>WP 724</name></trkpt>
        <trkpt lat="39.86693859100342" lon="3.1487658619880676"><ele>0</ele><time>1970-01-01T00:00:00Z</time><name>WP 725</name></trkpt>
        <trkpt lat="39.86666299402714" lon="3.1481100618839264"><ele>0</ele><time>1970-01-01T00:00:00Z</time><name>WP 726</name></trkpt>
        <trkpt lat="39.866028651595116" lon="3.1462767720222473"><ele>0</ele><time>1970-01-01T00:00:00Z</time><name>WP 727</name></trkpt>
        <trkpt lat="39.86594617366791" lon="3.1460434198379517"><ele>0</ele><time>1970-01-01T00:00:00Z</time><name>WP 728</name></trkpt>
        <trkpt lat="39.865877106785774" lon="3.145846277475357"><ele>0</ele><time>1970-01-01T00:00:00Z</time><name>WP 729</name></trkpt>
        <trkpt lat="39.86488401889801" lon="3.1445521116256714"><ele>0</ele><time>1970-01-01T00:00:00Z</time><name>WP 730</name></trkpt>
        <trkpt lat="39.86485652625561" lon="3.144517242908478"><ele>0</ele><time>1970-01-01T00:00:00Z</time><name>WP 731</name></trkpt>
        <trkpt lat="39.864787459373474" lon="3.144354969263077"><ele>0</ele><time>1970-01-01T00:00:00Z</time><name>WP 732</name></trkpt>
        <trkpt lat="39.86475996673107" lon="3.14427450299263"><ele>0</ele><time>1970-01-01T00:00:00Z</time><name>WP 733</name></trkpt>
        <trkpt lat="39.86469089984894" lon="3.1439150869846344"><ele>0</ele><time>1970-01-01T00:00:00Z</time><name>WP 734</name></trkpt>
        <trkpt lat="39.864112213253975" lon="3.1435999274253845"><ele>0</ele><time>1970-01-01T00:00:00Z</time><name>WP 735</name></trkpt>
        <trkpt lat="39.86371859908104" lon="3.14340278506279"><ele>0</ele><time>1970-01-01T00:00:00Z</time><name>WP 736</name></trkpt>
        <trkpt lat="39.86352615058422" lon="3.1432686746120453"><ele>0</ele><time>1970-01-01T00:00:00Z</time><name>WP 737</name></trkpt>
        <trkpt lat="39.86329145729542" lon="3.1431157886981964"><ele>0</ele><time>1970-01-01T00:00:00Z</time><name>WP 738</name></trkpt>
        <trkpt lat="39.863222390413284" lon="3.143060803413391"><ele>0</ele><time>1970-01-01T00:00:00Z</time><name>WP 739</name></trkpt>
        <trkpt lat="39.8628294467926" lon="3.142567276954651"><ele>0</ele><time>1970-01-01T00:00:00Z</time><name>WP 740</name></trkpt>
        <trkpt lat="39.86263632774353" lon="3.1422172486782074"><ele>0</ele><time>1970-01-01T00:00:00Z</time><name>WP 741</name></trkpt>
        <trkpt lat="39.86251898109913" lon="3.1419289112091064"><ele>0</ele><time>1970-01-01T00:00:00Z</time><name>WP 742</name></trkpt>
        <trkpt lat="39.86222259700298" lon="3.1413012742996216"><ele>0</ele><time>1970-01-01T00:00:00Z</time><name>WP 743</name></trkpt>
        <trkpt lat="39.86166402697563" lon="3.139953464269638"><ele>0</ele><time>1970-01-01T00:00:00Z</time><name>WP 744</name></trkpt>
        <trkpt lat="39.86140921711922" lon="3.139863610267639"><ele>0</ele><time>1970-01-01T00:00:00Z</time><name>WP 745</name></trkpt>
        <trkpt lat="39.86111216247082" lon="3.1396932899951935"><ele>0</ele><time>1970-01-01T00:00:00Z</time><name>WP 746</name></trkpt>
        <trkpt lat="39.86079499125481" lon="3.1394049525260925"><ele>0</ele><time>1970-01-01T00:00:00Z</time><name>WP 747</name></trkpt>
        <trkpt lat="39.8606226593256" lon="3.1392614543437958"><ele>0</ele><time>1970-01-01T00:00:00Z</time><name>WP 748</name></trkpt>
        <trkpt lat="39.86043691635132" lon="3.138991892337799"><ele>0</ele><time>1970-01-01T00:00:00Z</time><name>WP 749</name></trkpt>
        <trkpt lat="39.8599749058485" lon="3.138192594051361"><ele>0</ele><time>1970-01-01T00:00:00Z</time><name>WP 750</name></trkpt>
        <trkpt lat="39.8598300665617" lon="3.1379686295986176"><ele>0</ele><time>1970-01-01T00:00:00Z</time><name>WP 751</name></trkpt>
        <trkpt lat="39.85958866775036" lon="3.1376534700393677"><ele>0</ele><time>1970-01-01T00:00:00Z</time><name>WP 752</name></trkpt>
        <trkpt lat="39.85938146710396" lon="3.137429505586624"><ele>0</ele><time>1970-01-01T00:00:00Z</time><name>WP 753</name></trkpt>
        <trkpt lat="39.85914006829262" lon="3.1372229754924774"><ele>0</ele><time>1970-01-01T00:00:00Z</time><name>WP 754</name></trkpt>
        <trkpt lat="39.858671352267265" lon="3.1368179619312286"><ele>0</ele><time>1970-01-01T00:00:00Z</time><name>WP 755</name></trkpt>
        <trkpt lat="39.85814765095711" lon="3.1362707912921906"><ele>0</ele><time>1970-01-01T00:00:00Z</time><name>WP 756</name></trkpt>
        <trkpt lat="39.858030304312706" lon="3.1361527740955353"><ele>0</ele><time>1970-01-01T00:00:00Z</time><name>WP 757</name></trkpt>
        <trkpt lat="39.857381880283356" lon="3.1353092193603516"><ele>0</ele><time>1970-01-01T00:00:00Z</time><name>WP 758</name></trkpt>
        <trkpt lat="39.85654033720493" lon="3.134303390979767"><ele>0</ele><time>1970-01-01T00:00:00Z</time><name>WP 759</name></trkpt>
        <trkpt lat="39.856250658631325" lon="3.133997619152069"><ele>0</ele><time>1970-01-01T00:00:00Z</time><name>WP 760</name></trkpt>
        <trkpt lat="39.85606491565704" lon="3.1336744129657745"><ele>0</ele><time>1970-01-01T00:00:00Z</time><name>WP 761</name></trkpt>
        <trkpt lat="39.8557960242033" lon="3.1328201293945312"><ele>0</ele><time>1970-01-01T00:00:00Z</time><name>WP 762</name></trkpt>
        <trkpt lat="39.85536150634289" lon="3.1318773329257965"><ele>0</ele><time>1970-01-01T00:00:00Z</time><name>WP 763</name></trkpt>
        <trkpt lat="39.85499605536461" lon="3.131508529186249"><ele>0</ele><time>1970-01-01T00:00:00Z</time><name>WP 764</name></trkpt>
        <trkpt lat="39.85438920557499" lon="3.1311504542827606"><ele>0</ele><time>1970-01-01T00:00:00Z</time><name>WP 765</name></trkpt>
        <trkpt lat="39.85389232635498" lon="3.130781650543213"><ele>0</ele><time>1970-01-01T00:00:00Z</time><name>WP 766</name></trkpt>
        <trkpt lat="39.85369920730591" lon="3.130538910627365"><ele>0</ele><time>1970-01-01T00:00:00Z</time><name>WP 767</name></trkpt>
        <trkpt lat="39.85358253121376" lon="3.1303323805332184"><ele>0</ele><time>1970-01-01T00:00:00Z</time><name>WP 768</name></trkpt>
        <trkpt lat="39.85351346433163" lon="3.1302063167095184"><ele>0</ele><time>1970-01-01T00:00:00Z</time><name>WP 769</name></trkpt>
        <trkpt lat="39.85349267721176" lon="3.1301432847976685"><ele>0</ele><time>1970-01-01T00:00:00Z</time><name>WP 770</name></trkpt>
        <trkpt lat="39.853396117687225" lon="3.129783868789673"><ele>0</ele><time>1970-01-01T00:00:00Z</time><name>WP 771</name></trkpt>
        <trkpt lat="39.853196293115616" lon="3.1290744245052338"><ele>0</ele><time>1970-01-01T00:00:00Z</time><name>WP 772</name></trkpt>
        <trkpt lat="39.85300987958908" lon="3.1285540759563446"><ele>0</ele><time>1970-01-01T00:00:00Z</time><name>WP 773</name></trkpt>
        <trkpt lat="39.85296830534935" lon="3.128374367952347"><ele>0</ele><time>1970-01-01T00:00:00Z</time><name>WP 774</name></trkpt>
        <trkpt lat="39.852947518229485" lon="3.1282657384872437"><ele>0</ele><time>1970-01-01T00:00:00Z</time><name>WP 775</name></trkpt>
        <trkpt lat="39.85292002558708" lon="3.128131628036499"><ele>0</ele><time>1970-01-01T00:00:00Z</time><name>WP 776</name></trkpt>
        <trkpt lat="39.85289923846722" lon="3.128005564212799"><ele>0</ele><time>1970-01-01T00:00:00Z</time><name>WP 777</name></trkpt>
        <trkpt lat="39.852871745824814" lon="3.1278352439403534"><ele>0</ele><time>1970-01-01T00:00:00Z</time><name>WP 778</name></trkpt>
        <trkpt lat="39.85266521573067" lon="3.1266309320926666"><ele>0</ele><time>1970-01-01T00:00:00Z</time><name>WP 779</name></trkpt>
        <trkpt lat="39.852472096681595" lon="3.126307725906372"><ele>0</ele><time>1970-01-01T00:00:00Z</time><name>WP 780</name></trkpt>
        <trkpt lat="39.8524372279644" lon="3.126254081726074"><ele>0</ele><time>1970-01-01T00:00:00Z</time><name>WP 781</name></trkpt>
        <trkpt lat="39.85227160155773" lon="3.1259389221668243"><ele>0</ele><time>1970-01-01T00:00:00Z</time><name>WP 782</name></trkpt>
        <trkpt lat="39.85225148499012" lon="3.1259040534496307"><ele>0</ele><time>1970-01-01T00:00:00Z</time><name>WP 783</name></trkpt>
        <trkpt lat="39.852230697870255" lon="3.125877231359482"><ele>0</ele><time>1970-01-01T00:00:00Z</time><name>WP 784</name></trkpt>
        <trkpt lat="39.85209256410599" lon="3.125634491443634"><ele>0</ele><time>1970-01-01T00:00:00Z</time><name>WP 785</name></trkpt>
        <trkpt lat="39.851857870817184" lon="3.1252214312553406"><ele>0</ele><time>1970-01-01T00:00:00Z</time><name>WP 786</name></trkpt>
        <trkpt lat="39.85200271010399" lon="3.1250323355197906"><ele>0</ele><time>1970-01-01T00:00:00Z</time><name>WP 787</name></trkpt>
        <trkpt lat="39.851975217461586" lon="3.124888837337494"><ele>0</ele><time>1970-01-01T00:00:00Z</time><name>WP 788</name></trkpt>
        <trkpt lat="39.85175460577011" lon="3.123864233493805"><ele>0</ele><time>1970-01-01T00:00:00Z</time><name>WP 789</name></trkpt>
        <trkpt lat="39.851747900247574" lon="3.123828023672104"><ele>0</ele><time>1970-01-01T00:00:00Z</time><name>WP 790</name></trkpt>
        <trkpt lat="39.85172711312771" lon="3.1237301230430603"><ele>0</ele><time>1970-01-01T00:00:00Z</time><name>WP 791</name></trkpt>
        <trkpt lat="39.851699620485306" lon="3.1235866248607635"><ele>0</ele><time>1970-01-01T00:00:00Z</time><name>WP 792</name></trkpt>
        <trkpt lat="39.85168553888798" lon="3.1235504150390625"><ele>0</ele><time>1970-01-01T00:00:00Z</time><name>WP 793</name></trkpt>
        <trkpt lat="39.8515547811985" lon="3.122875839471817"><ele>0</ele><time>1970-01-01T00:00:00Z</time><name>WP 794</name></trkpt>
        <trkpt lat="39.85151320695877" lon="3.122696131467819"><ele>0</ele><time>1970-01-01T00:00:00Z</time><name>WP 795</name></trkpt>
        <trkpt lat="39.85142335295677" lon="3.122220039367676"><ele>0</ele><time>1970-01-01T00:00:00Z</time><name>WP 796</name></trkpt>
        <trkpt lat="39.851375073194504" lon="3.1219960749149323"><ele>0</ele><time>1970-01-01T00:00:00Z</time><name>WP 797</name></trkpt>
        <trkpt lat="39.85133416950703" lon="3.1217707693576813"><ele>0</ele><time>1970-01-01T00:00:00Z</time><name>WP 798</name></trkpt>
        <trkpt lat="39.851292595267296" lon="3.1216098368167877"><ele>0</ele><time>1970-01-01T00:00:00Z</time><name>WP 799</name></trkpt>
        <trkpt lat="39.85118195414543" lon="3.1210345029830933"><ele>0</ele><time>1970-01-01T00:00:00Z</time><name>WP 800</name></trkpt>
        <trkpt lat="39.851126968860626" lon="3.1207743287086487"><ele>0</ele><time>1970-01-01T00:00:00Z</time><name>WP 801</name></trkpt>
        <trkpt lat="39.85112026333809" lon="3.120756894350052"><ele>0</ele><time>1970-01-01T00:00:00Z</time><name>WP 802</name></trkpt>
        <trkpt lat="39.85110618174076" lon="3.12068447470665"><ele>0</ele><time>1970-01-01T00:00:00Z</time><name>WP 803</name></trkpt>
        <trkpt lat="39.851099476218224" lon="3.12055841088295"><ele>0</ele><time>1970-01-01T00:00:00Z</time><name>WP 804</name></trkpt>
        <trkpt lat="39.85113367438316" lon="3.120424300432205"><ele>0</ele><time>1970-01-01T00:00:00Z</time><name>WP 805</name></trkpt>
        <trkpt lat="39.85116854310036" lon="3.1203344464302063"><ele>0</ele><time>1970-01-01T00:00:00Z</time><name>WP 806</name></trkpt>
        <trkpt lat="39.85123760998249" lon="3.120262026786804"><ele>0</ele><time>1970-01-01T00:00:00Z</time><name>WP 807</name></trkpt>
        <trkpt lat="39.85140323638916" lon="3.1201359629631042"><ele>0</ele><time>1970-01-01T00:00:00Z</time><name>WP 808</name></trkpt>
        <trkpt lat="39.85147163271904" lon="3.1200917065143585"><ele>0</ele><time>1970-01-01T00:00:00Z</time><name>WP 809</name></trkpt>
        <trkpt lat="39.85157556831837" lon="3.1200286746025085"><ele>0</ele><time>1970-01-01T00:00:00Z</time><name>WP 810</name></trkpt>
        <trkpt lat="39.851616472005844" lon="3.1200018525123596"><ele>0</ele><time>1970-01-01T00:00:00Z</time><name>WP 811</name></trkpt>
        <trkpt lat="39.851789474487305" lon="3.119894564151764"><ele>0</ele><time>1970-01-01T00:00:00Z</time><name>WP 812</name></trkpt>
        <trkpt lat="39.85207848250866" lon="3.119659870862961"><ele>0</ele><time>1970-01-01T00:00:00Z</time><name>WP 813</name></trkpt>
        <trkpt lat="39.85224410891533" lon="3.1194452941417694"><ele>0</ele><time>1970-01-01T00:00:00Z</time><name>WP 814</name></trkpt>
        <trkpt lat="39.85232725739479" lon="3.1192468106746674"><ele>0</ele><time>1970-01-01T00:00:00Z</time><name>WP 815</name></trkpt>
        <trkpt lat="39.852396324276924" lon="3.1191127002239227"><ele>0</ele><time>1970-01-01T00:00:00Z</time><name>WP 816</name></trkpt>
        <trkpt lat="39.85248550772667" lon="3.118959814310074"><ele>0</ele><time>1970-01-01T00:00:00Z</time><name>WP 817</name></trkpt>
        <trkpt lat="39.85256865620613" lon="3.118860572576523"><ele>0</ele><time>1970-01-01T00:00:00Z</time><name>WP 818</name></trkpt>
        <trkpt lat="39.852623641490936" lon="3.118797540664673"><ele>0</ele><time>1970-01-01T00:00:00Z</time><name>WP 819</name></trkpt>
        <trkpt lat="39.85269270837307" lon="3.1187626719474792"><ele>0</ele><time>1970-01-01T00:00:00Z</time><name>WP 820</name></trkpt>
        <trkpt lat="39.85285833477974" lon="3.118780106306076"><ele>0</ele><time>1970-01-01T00:00:00Z</time><name>WP 821</name></trkpt>
        <trkpt lat="39.85304407775402" lon="3.118770718574524"><ele>0</ele><time>1970-01-01T00:00:00Z</time><name>WP 822</name></trkpt>
        <trkpt lat="39.85310643911362" lon="3.1186634302139282"><ele>0</ele><time>1970-01-01T00:00:00Z</time><name>WP 823</name></trkpt>
        <trkpt lat="39.85314063727856" lon="3.118554800748825"><ele>0</ele><time>1970-01-01T00:00:00Z</time><name>WP 824</name></trkpt>
        <trkpt lat="39.85313393175602" lon="3.1184743344783783"><ele>0</ele><time>1970-01-01T00:00:00Z</time><name>WP 825</name></trkpt>
        <trkpt lat="39.853113144636154" lon="3.1183750927448273"><ele>0</ele><time>1970-01-01T00:00:00Z</time><name>WP 826</name></trkpt>
        <trkpt lat="39.85304407775402" lon="3.1182584166526794"><ele>0</ele><time>1970-01-01T00:00:00Z</time><name>WP 827</name></trkpt>
        <trkpt lat="39.8526444286108" lon="3.1175047159194946"><ele>0</ele><time>1970-01-01T00:00:00Z</time><name>WP 828</name></trkpt>
        <trkpt lat="39.8526169359684" lon="3.1174510717391968"><ele>0</ele><time>1970-01-01T00:00:00Z</time><name>WP 829</name></trkpt>
        <trkpt lat="39.85209256410599" lon="3.116525709629059"><ele>0</ele><time>1970-01-01T00:00:00Z</time><name>WP 830</name></trkpt>
        <trkpt lat="39.852023497223854" lon="3.116399645805359"><ele>0</ele><time>1970-01-01T00:00:00Z</time><name>WP 831</name></trkpt>
        <trkpt lat="39.851782098412514" lon="3.1159329414367676"><ele>0</ele><time>1970-01-01T00:00:00Z</time><name>WP 832</name></trkpt>
        <trkpt lat="39.85172040760517" lon="3.1157250702381134"><ele>0</ele><time>1970-01-01T00:00:00Z</time><name>WP 833</name></trkpt>
        <trkpt lat="39.85172711312771" lon="3.11562716960907"><ele>0</ele><time>1970-01-01T00:00:00Z</time><name>WP 834</name></trkpt>
        <trkpt lat="39.85174119472504" lon="3.1155185401439667"><ele>0</ele><time>1970-01-01T00:00:00Z</time><name>WP 835</name></trkpt>
        <trkpt lat="39.85177539288998" lon="3.11537504196167"><ele>0</ele><time>1970-01-01T00:00:00Z</time><name>WP 836</name></trkpt>
        <trkpt lat="39.85180288553238" lon="3.115338832139969"><ele>0</ele><time>1970-01-01T00:00:00Z</time><name>WP 837</name></trkpt>
        <trkpt lat="39.85183037817478" lon="3.115294575691223"><ele>0</ele><time>1970-01-01T00:00:00Z</time><name>WP 838</name></trkpt>
        <trkpt lat="39.85183775424957" lon="3.11524897813797"><ele>0</ele><time>1970-01-01T00:00:00Z</time><name>WP 839</name></trkpt>
        <trkpt lat="39.85201679170132" lon="3.1149807572364807"><ele>0</ele><time>1970-01-01T00:00:00Z</time><name>WP 840</name></trkpt>
        <trkpt lat="39.852065071463585" lon="3.1149083375930786"><ele>0</ele><time>1970-01-01T00:00:00Z</time><name>WP 841</name></trkpt>
        <trkpt lat="39.85211335122585" lon="3.1148359179496765"><ele>0</ele><time>1970-01-01T00:00:00Z</time><name>WP 842</name></trkpt>
        <trkpt lat="39.85214754939079" lon="3.1148815155029297"><ele>0</ele><time>1970-01-01T00:00:00Z</time><name>WP 843</name></trkpt>
        <trkpt lat="39.852430522441864" lon="3.114485889673233"><ele>0</ele><time>1970-01-01T00:00:00Z</time><name>WP 844</name></trkpt>
        <trkpt lat="39.85275439918041" lon="3.1140097975730896"><ele>0</ele><time>1970-01-01T00:00:00Z</time><name>WP 845</name></trkpt>
        <trkpt lat="39.85309973359108" lon="3.113497495651245"><ele>0</ele><time>1970-01-01T00:00:00Z</time><name>WP 846</name></trkpt>
        <trkpt lat="39.853230491280556" lon="3.1133097410202026"><ele>0</ele><time>1970-01-01T00:00:00Z</time><name>WP 847</name></trkpt>
        <trkpt lat="39.853878915309906" lon="3.1123656034469604"><ele>0</ele><time>1970-01-01T00:00:00Z</time><name>WP 848</name></trkpt>
        <trkpt lat="39.85403046011925" lon="3.112105429172516"><ele>0</ele><time>1970-01-01T00:00:00Z</time><name>WP 849</name></trkpt>
        <trkpt lat="39.854244366288185" lon="3.1117285788059235"><ele>0</ele><time>1970-01-01T00:00:00Z</time><name>WP 850</name></trkpt>
        <trkpt lat="39.85463730990887" lon="3.110973536968231"><ele>0</ele><time>1970-01-01T00:00:00Z</time><name>WP 851</name></trkpt>
        <trkpt lat="39.8556163161993" lon="3.1087271869182587"><ele>0</ele><time>1970-01-01T00:00:00Z</time><name>WP 852</name></trkpt>
        <trkpt lat="39.85592678189278" lon="3.1080177426338196"><ele>0</ele><time>1970-01-01T00:00:00Z</time><name>WP 853</name></trkpt>
        <trkpt lat="39.85616818070412" lon="3.1074517965316772"><ele>0</ele><time>1970-01-01T00:00:00Z</time><name>WP 854</name></trkpt>
        <trkpt lat="39.85618896782398" lon="3.1073981523513794"><ele>0</ele><time>1970-01-01T00:00:00Z</time><name>WP 855</name></trkpt>
        <trkpt lat="39.856340512633324" lon="3.1070655584335327"><ele>0</ele><time>1970-01-01T00:00:00Z</time><name>WP 856</name></trkpt>
        <trkpt lat="39.85652692615986" lon="3.1066618859767914"><ele>0</ele><time>1970-01-01T00:00:00Z</time><name>WP 857</name></trkpt>
        <trkpt lat="39.8567683249712" lon="3.106122761964798"><ele>0</ele><time>1970-01-01T00:00:00Z</time><name>WP 858</name></trkpt>
        <trkpt lat="39.85718876123428" lon="3.105107545852661"><ele>0</ele><time>1970-01-01T00:00:00Z</time><name>WP 859</name></trkpt>
        <trkpt lat="39.857705757021904" lon="3.1038857996463776"><ele>0</ele><time>1970-01-01T00:00:00Z</time><name>WP 860</name></trkpt>
        <trkpt lat="39.85785059630871" lon="3.103508949279785"><ele>0</ele><time>1970-01-01T00:00:00Z</time><name>WP 861</name></trkpt>
        <trkpt lat="39.85805109143257" lon="3.102843761444092"><ele>0</ele><time>1970-01-01T00:00:00Z</time><name>WP 862</name></trkpt>
        <trkpt lat="39.85816106200218" lon="3.102484345436096"><ele>0</ele><time>1970-01-01T00:00:00Z</time><name>WP 863</name></trkpt>
        <trkpt lat="39.85836826264858" lon="3.101738691329956"><ele>0</ele><time>1970-01-01T00:00:00Z</time><name>WP 864</name></trkpt>
        <trkpt lat="39.85849902033806" lon="3.1012532114982605"><ele>0</ele><time>1970-01-01T00:00:00Z</time><name>WP 865</name></trkpt>
        <trkpt lat="39.85851310193539" lon="3.1011633574962616"><ele>0</ele><time>1970-01-01T00:00:00Z</time><name>WP 866</name></trkpt>
        <trkpt lat="39.85870622098446" lon="3.0999697744846344"><ele>0</ele><time>1970-01-01T00:00:00Z</time><name>WP 867</name></trkpt>
        <trkpt lat="39.85872633755207" lon="3.09988796710968"><ele>0</ele><time>1970-01-01T00:00:00Z</time><name>WP 868</name></trkpt>
        <trkpt lat="39.8588302731514" lon="3.0995647609233856"><ele>0</ele><time>1970-01-01T00:00:00Z</time><name>WP 869</name></trkpt>
        <trkpt lat="39.858961030840874" lon="3.099250942468643"><ele>0</ele><time>1970-01-01T00:00:00Z</time><name>WP 870</name></trkpt>
        <trkpt lat="39.85909916460514" lon="3.0990350246429443"><ele>0</ele><time>1970-01-01T00:00:00Z</time><name>WP 871</name></trkpt>
        <trkpt lat="39.859244003891945" lon="3.0988553166389465"><ele>0</ele><time>1970-01-01T00:00:00Z</time><name>WP 872</name></trkpt>
        <trkpt lat="39.859368056058884" lon="3.0987292528152466"><ele>0</ele><time>1970-01-01T00:00:00Z</time><name>WP 873</name></trkpt>
        <trkpt lat="39.85938884317875" lon="3.09871181845665"><ele>0</ele><time>1970-01-01T00:00:00Z</time><name>WP 874</name></trkpt>
        <trkpt lat="39.85951289534569" lon="3.0986125767230988"><ele>0</ele><time>1970-01-01T00:00:00Z</time><name>WP 875</name></trkpt>
        <trkpt lat="39.859519600868225" lon="3.0986125767230988"><ele>0</ele><time>1970-01-01T00:00:00Z</time><name>WP 876</name></trkpt>
        <trkpt lat="39.86026458442211" lon="3.0980560183525085"><ele>0</ele><time>1970-01-01T00:00:00Z</time><name>WP 877</name></trkpt>
        <trkpt lat="39.86093983054161" lon="3.097516894340515"><ele>0</ele><time>1970-01-01T00:00:00Z</time><name>WP 878</name></trkpt>
        <trkpt lat="39.861160442233086" lon="3.0973197519779205"><ele>0</ele><time>1970-01-01T00:00:00Z</time><name>WP 879</name></trkpt>
        <trkpt lat="39.861367642879486" lon="3.0970944464206696"><ele>0</ele><time>1970-01-01T00:00:00Z</time><name>WP 880</name></trkpt>
        <trkpt lat="39.86262962222099" lon="3.0954422056674957"><ele>0</ele><time>1970-01-01T00:00:00Z</time><name>WP 881</name></trkpt>
        <trkpt lat="39.86369110643864" lon="3.0939052999019623"><ele>0</ele><time>1970-01-01T00:00:00Z</time><name>WP 882</name></trkpt>
        <trkpt lat="39.86431874334812" lon="3.092792183160782"><ele>0</ele><time>1970-01-01T00:00:00Z</time><name>WP 883</name></trkpt>
        <trkpt lat="39.86460842192173" lon="3.0923160910606384"><ele>0</ele><time>1970-01-01T00:00:00Z</time><name>WP 884</name></trkpt>
        <trkpt lat="39.865470081567764" lon="3.090860992670059"><ele>0</ele><time>1970-01-01T00:00:00Z</time><name>WP 885</name></trkpt>
        <trkpt lat="39.866518154740334" lon="3.089737147092819"><ele>0</ele><time>1970-01-01T00:00:00Z</time><name>WP 886</name></trkpt>
        <trkpt lat="39.87046904861927" lon="3.086548000574112"><ele>0</ele><time>1970-01-01T00:00:00Z</time><name>WP 887</name></trkpt>
        <trkpt lat="39.87219236791134" lon="3.0855609476566315"><ele>0</ele><time>1970-01-01T00:00:00Z</time><name>WP 888</name></trkpt>
        <trkpt lat="39.87625993788242" lon="3.083108067512512"><ele>0</ele><time>1970-01-01T00:00:00Z</time><name>WP 889</name></trkpt>
        <trkpt lat="39.877259731292725" lon="3.082578331232071"><ele>0</ele><time>1970-01-01T00:00:00Z</time><name>WP 890</name></trkpt>
        <trkpt lat="39.87874165177345" lon="3.0818407237529755"><ele>0</ele><time>1970-01-01T00:00:00Z</time><name>WP 891</name></trkpt>
        <trkpt lat="39.881692081689835" lon="3.080700784921646"><ele>0</ele><time>1970-01-01T00:00:00Z</time><name>WP 892</name></trkpt>
        <trkpt lat="39.882574528455734" lon="3.080349415540695"><ele>0</ele><time>1970-01-01T00:00:00Z</time><name>WP 893</name></trkpt>
        <trkpt lat="39.882657676935196" lon="3.0803225934505463"><ele>0</ele><time>1970-01-01T00:00:00Z</time><name>WP 894</name></trkpt>
        <trkpt lat="39.882774353027344" lon="3.0802783370018005"><ele>0</ele><time>1970-01-01T00:00:00Z</time><name>WP 895</name></trkpt>
        <trkpt lat="39.882857501506805" lon="3.0802421271800995"><ele>0</ele><time>1970-01-01T00:00:00Z</time><name>WP 896</name></trkpt>
        <trkpt lat="39.883015751838684" lon="3.0801616609096527"><ele>0</ele><time>1970-01-01T00:00:00Z</time><name>WP 897</name></trkpt>
        <trkpt lat="39.883147180080414" lon="3.080081194639206"><ele>0</ele><time>1970-01-01T00:00:00Z</time><name>WP 898</name></trkpt>
        <trkpt lat="39.88328464329243" lon="3.079972565174103"><ele>0</ele><time>1970-01-01T00:00:00Z</time><name>WP 899</name></trkpt>
        <trkpt lat="39.8834777623415" lon="3.079739212989807"><ele>0</ele><time>1970-01-01T00:00:00Z</time><name>WP 900</name></trkpt>
        <trkpt lat="39.883574321866035" lon="3.079666793346405"><ele>0</ele><time>1970-01-01T00:00:00Z</time><name>WP 901</name></trkpt>
        <trkpt lat="39.88378085196018" lon="3.0796051025390625"><ele>0</ele><time>1970-01-01T00:00:00Z</time><name>WP 902</name></trkpt>
        <trkpt lat="39.8841805011034" lon="3.0796949565410614"><ele>0</ele><time>1970-01-01T00:00:00Z</time><name>WP 903</name></trkpt>
        <trkpt lat="39.884339421987534" lon="3.0796949565410614"><ele>0</ele><time>1970-01-01T00:00:00Z</time><name>WP 904</name></trkpt>
        <trkpt lat="39.884525164961815" lon="3.079639971256256"><ele>0</ele><time>1970-01-01T00:00:00Z</time><name>WP 905</name></trkpt>
        <trkpt lat="39.88631084561348" lon="3.078993558883667"><ele>0</ele><time>1970-01-01T00:00:00Z</time><name>WP 906</name></trkpt>
        <trkpt lat="39.8869451880455" lon="3.0787602066993713"><ele>0</ele><time>1970-01-01T00:00:00Z</time><name>WP 907</name></trkpt>
        <trkpt lat="39.887489676475525" lon="3.0785536766052246"><ele>0</ele><time>1970-01-01T00:00:00Z</time><name>WP 908</name></trkpt>
        <trkpt lat="39.88757885992527" lon="3.0785174667835236"><ele>0</ele><time>1970-01-01T00:00:00Z</time><name>WP 909</name></trkpt>
        <trkpt lat="39.88824740052223" lon="3.0783551931381226"><ele>0</ele><time>1970-01-01T00:00:00Z</time><name>WP 910</name></trkpt>
        <trkpt lat="39.88870941102505" lon="3.078247904777527"><ele>0</ele><time>1970-01-01T00:00:00Z</time><name>WP 911</name></trkpt>
        <trkpt lat="39.88919220864773" lon="3.078247904777527"><ele>0</ele><time>1970-01-01T00:00:00Z</time><name>WP 912</name></trkpt>
        <trkpt lat="39.88975748419762" lon="3.078247904777527"><ele>0</ele><time>1970-01-01T00:00:00Z</time><name>WP 913</name></trkpt>
        <trkpt lat="39.88981917500496" lon="3.078247904777527"><ele>0</ele><time>1970-01-01T00:00:00Z</time><name>WP 914</name></trkpt>
        <trkpt lat="39.88992981612682" lon="3.078247904777527"><ele>0</ele><time>1970-01-01T00:00:00Z</time><name>WP 915</name></trkpt>
        <trkpt lat="39.89005386829376" lon="3.078247904777527"><ele>0</ele><time>1970-01-01T00:00:00Z</time><name>WP 916</name></trkpt>
        <trkpt lat="39.89197634160519" lon="3.0782653391361237"><ele>0</ele><time>1970-01-01T00:00:00Z</time><name>WP 917</name></trkpt>
        <trkpt lat="39.89211447536945" lon="3.0782653391361237"><ele>0</ele><time>1970-01-01T00:00:00Z</time><name>WP 918</name></trkpt>
        <trkpt lat="39.892300218343735" lon="3.0782653391361237"><ele>0</ele><time>1970-01-01T00:00:00Z</time><name>WP 919</name></trkpt>
        <trkpt lat="39.892417564988136" lon="3.0782653391361237"><ele>0</ele><time>1970-01-01T00:00:00Z</time><name>WP 920</name></trkpt>
        <trkpt lat="39.892741441726685" lon="3.0782653391361237"><ele>0</ele><time>1970-01-01T00:00:00Z</time><name>WP 921</name></trkpt>
        <trkpt lat="39.89356152713299" lon="3.0782653391361237"><ele>0</ele><time>1970-01-01T00:00:00Z</time><name>WP 922</name></trkpt>
        <trkpt lat="39.89395447075367" lon="3.0782653391361237"><ele>0</ele><time>1970-01-01T00:00:00Z</time><name>WP 923</name></trkpt>
        <trkpt lat="39.89503003656864" lon="3.07829350233078"><ele>0</ele><time>1970-01-01T00:00:00Z</time><name>WP 924</name></trkpt>
        <trkpt lat="39.89538140594959" lon="3.078347146511078"><ele>0</ele><time>1970-01-01T00:00:00Z</time><name>WP 925</name></trkpt>
        <trkpt lat="39.89565700292587" lon="3.078410178422928"><ele>0</ele><time>1970-01-01T00:00:00Z</time><name>WP 926</name></trkpt>
        <trkpt lat="39.89697329699993" lon="3.0787602066993713"><ele>0</ele><time>1970-01-01T00:00:00Z</time><name>WP 927</name></trkpt>
        <trkpt lat="39.897476211190224" lon="3.0788862705230713"><ele>0</ele><time>1970-01-01T00:00:00Z</time><name>WP 928</name></trkpt>
        <trkpt lat="39.897517785429955" lon="3.078894317150116"><ele>0</ele><time>1970-01-01T00:00:00Z</time><name>WP 929</name></trkpt>
        <trkpt lat="39.897551983594894" lon="3.078903704881668"><ele>0</ele><time>1970-01-01T00:00:00Z</time><name>WP 930</name></trkpt>
        <trkpt lat="39.897959008812904" lon="3.079010993242264"><ele>0</ele><time>1970-01-01T00:00:00Z</time><name>WP 931</name></trkpt>
        <trkpt lat="39.898544400930405" lon="3.079173266887665"><ele>0</ele><time>1970-01-01T00:00:00Z</time><name>WP 932</name></trkpt>
        <trkpt lat="39.89904060959816" lon="3.0792805552482605"><ele>0</ele><time>1970-01-01T00:00:00Z</time><name>WP 933</name></trkpt>
        <trkpt lat="39.899468421936035" lon="3.0793623626232147"><ele>0</ele><time>1970-01-01T00:00:00Z</time><name>WP 934</name></trkpt>
        <trkpt lat="39.899592474102974" lon="3.0793891847133636"><ele>0</ele><time>1970-01-01T00:00:00Z</time><name>WP 935</name></trkpt>
        <trkpt lat="39.89964745938778" lon="3.0793972313404083"><ele>0</ele><time>1970-01-01T00:00:00Z</time><name>WP 936</name></trkpt>
        <trkpt lat="39.900177866220474" lon="3.0794790387153625"><ele>0</ele><time>1970-01-01T00:00:00Z</time><name>WP 937</name></trkpt>
        <trkpt lat="39.90024693310261" lon="3.0794870853424072"><ele>0</ele><time>1970-01-01T00:00:00Z</time><name>WP 938</name></trkpt>
        <trkpt lat="39.90079142153263" lon="3.0795595049858093"><ele>0</ele><time>1970-01-01T00:00:00Z</time><name>WP 939</name></trkpt>
        <trkpt lat="39.901204481720924" lon="3.079613149166107"><ele>0</ele><time>1970-01-01T00:00:00Z</time><name>WP 940</name></trkpt>
        <trkpt lat="39.90127354860306" lon="3.079639971256256"><ele>0</ele><time>1970-01-01T00:00:00Z</time><name>WP 941</name></trkpt>
        <trkpt lat="39.901597425341606" lon="3.079729825258255"><ele>0</ele><time>1970-01-01T00:00:00Z</time><name>WP 942</name></trkpt>
        <trkpt lat="39.901928678154945" lon="3.079846501350403"><ele>0</ele><time>1970-01-01T00:00:00Z</time><name>WP 943</name></trkpt>
        <trkpt lat="39.902238473296165" lon="3.079972565174103"><ele>0</ele><time>1970-01-01T00:00:00Z</time><name>WP 944</name></trkpt>
        <trkpt lat="39.902404099702835" lon="3.080044984817505"><ele>0</ele><time>1970-01-01T00:00:00Z</time><name>WP 945</name></trkpt>
        <trkpt lat="39.902596548199654" lon="3.0801428854465485"><ele>0</ele><time>1970-01-01T00:00:00Z</time><name>WP 946</name></trkpt>
        <trkpt lat="39.90277625620365" lon="3.0802595615386963"><ele>0</ele><time>1970-01-01T00:00:00Z</time><name>WP 947</name></trkpt>
        <trkpt lat="39.90279704332352" lon="3.0802689492702484"><ele>0</ele><time>1970-01-01T00:00:00Z</time><name>WP 948</name></trkpt>
        <trkpt lat="39.90317590534687" lon="3.080538511276245"><ele>0</ele><time>1970-01-01T00:00:00Z</time><name>WP 949</name></trkpt>
        <trkpt lat="39.90323759615421" lon="3.080592155456543"><ele>0</ele><time>1970-01-01T00:00:00Z</time><name>WP 950</name></trkpt>
        <trkpt lat="39.90352727472782" lon="3.080817461013794"><ele>0</ele><time>1970-01-01T00:00:00Z</time><name>WP 951</name></trkpt>
        <trkpt lat="39.90360304713249" lon="3.080880492925644"><ele>0</ele><time>1970-01-01T00:00:00Z</time><name>WP 952</name></trkpt>
        <trkpt lat="39.90376867353916" lon="3.0810052156448364"><ele>0</ele><time>1970-01-01T00:00:00Z</time><name>WP 953</name></trkpt>
        <trkpt lat="39.90448482334614" lon="3.081517517566681"><ele>0</ele><time>1970-01-01T00:00:00Z</time><name>WP 954</name></trkpt>
        <trkpt lat="39.904498904943466" lon="3.081526905298233"><ele>0</ele><time>1970-01-01T00:00:00Z</time><name>WP 955</name></trkpt>
        <trkpt lat="39.90455389022827" lon="3.081517517566681"><ele>0</ele><time>1970-01-01T00:00:00Z</time><name>WP 956</name></trkpt>
        <trkpt lat="39.90457467734814" lon="3.081536293029785"><ele>0</ele><time>1970-01-01T00:00:00Z</time><name>WP 957</name></trkpt>
        <trkpt lat="39.90468464791775" lon="3.081580549478531"><ele>0</ele><time>1970-01-01T00:00:00Z</time><name>WP 958</name></trkpt>
        <trkpt lat="39.90507088601589" lon="3.0818501114845276"><ele>0</ele><time>1970-01-01T00:00:00Z</time><name>WP 959</name></trkpt>
        <trkpt lat="39.905098378658295" lon="3.0818769335746765"><ele>0</ele><time>1970-01-01T00:00:00Z</time><name>WP 960</name></trkpt>
        <trkpt lat="39.90551881492138" lon="3.082146495580673"><ele>0</ele><time>1970-01-01T00:00:00Z</time><name>WP 961</name></trkpt>
        <trkpt lat="39.90578033030033" lon="3.082299381494522"><ele>0</ele><time>1970-01-01T00:00:00Z</time><name>WP 962</name></trkpt>
        <trkpt lat="39.90584269165993" lon="3.0823449790477753"><ele>0</ele><time>1970-01-01T00:00:00Z</time><name>WP 963</name></trkpt>
        <trkpt lat="39.905966743826866" lon="3.08247908949852"><ele>0</ele><time>1970-01-01T00:00:00Z</time><name>WP 964</name></trkpt>
        <trkpt lat="39.906015023589134" lon="3.082551509141922"><ele>0</ele><time>1970-01-01T00:00:00Z</time><name>WP 965</name></trkpt>
        <trkpt lat="39.90614578127861" lon="3.0827124416828156"><ele>0</ele><time>1970-01-01T00:00:00Z</time><name>WP 966</name></trkpt>
        <trkpt lat="39.90614578127861" lon="3.0827124416828156"><ele>0</ele><time>1970-01-01T00:00:00Z</time><name>WP 967</name></trkpt>
        <trkpt lat="39.90615248680115" lon="3.0827218294143677"><ele>0</ele><time>1970-01-01T00:00:00Z</time><name>WP 968</name></trkpt>
        <trkpt lat="39.906249046325684" lon="3.0827754735946655"><ele>0</ele><time>1970-01-01T00:00:00Z</time><name>WP 969</name></trkpt>
        <trkpt lat="39.906249046325684" lon="3.0828116834163666"><ele>0</ele><time>1970-01-01T00:00:00Z</time><name>WP 970</name></trkpt>
        <trkpt lat="39.906249046325684" lon="3.0828385055065155"><ele>0</ele><time>1970-01-01T00:00:00Z</time><name>WP 971</name></trkpt>
        <trkpt lat="39.90626312792301" lon="3.0828653275966644"><ele>0</ele><time>1970-01-01T00:00:00Z</time><name>WP 972</name></trkpt>
        <trkpt lat="39.906276538968086" lon="3.0828921496868134"><ele>0</ele><time>1970-01-01T00:00:00Z</time><name>WP 973</name></trkpt>
        <trkpt lat="39.90630403161049" lon="3.0829109251499176"><ele>0</ele><time>1970-01-01T00:00:00Z</time><name>WP 974</name></trkpt>
        <trkpt lat="39.90633152425289" lon="3.0829189717769623"><ele>0</ele><time>1970-01-01T00:00:00Z</time><name>WP 975</name></trkpt>
        <trkpt lat="39.90635968744755" lon="3.0829189717769623"><ele>0</ele><time>1970-01-01T00:00:00Z</time><name>WP 976</name></trkpt>
        <trkpt lat="39.90638718008995" lon="3.0829015374183655"><ele>0</ele><time>1970-01-01T00:00:00Z</time><name>WP 977</name></trkpt>
        <trkpt lat="39.906407967209816" lon="3.0828747153282166"><ele>0</ele><time>1970-01-01T00:00:00Z</time><name>WP 978</name></trkpt>
        <trkpt lat="39.90642137825489" lon="3.0828385055065155"><ele>0</ele><time>1970-01-01T00:00:00Z</time><name>WP 979</name></trkpt>
        <trkpt lat="39.90642137825489" lon="3.0828022956848145"><ele>0</ele><time>1970-01-01T00:00:00Z</time><name>WP 980</name></trkpt>
        <trkpt lat="39.90641467273235" lon="3.0827660858631134"><ele>0</ele><time>1970-01-01T00:00:00Z</time><name>WP 981</name></trkpt>
        <trkpt lat="39.906400591135025" lon="3.08273121714592"><ele>0</ele><time>1970-01-01T00:00:00Z</time><name>WP 982</name></trkpt>
        <trkpt lat="39.90638718008995" lon="3.0827124416828156"><ele>0</ele><time>1970-01-01T00:00:00Z</time><name>WP 983</name></trkpt>
        <trkpt lat="39.90637309849262" lon="3.0827030539512634"><ele>0</ele><time>1970-01-01T00:00:00Z</time><name>WP 984</name></trkpt>
        <trkpt lat="39.90635968744755" lon="3.0826950073242188"><ele>0</ele><time>1970-01-01T00:00:00Z</time><name>WP 985</name></trkpt>
        <trkpt lat="39.90635231137276" lon="3.0824965238571167"><ele>0</ele><time>1970-01-01T00:00:00Z</time><name>WP 986</name></trkpt>
        <trkpt lat="39.90628391504288" lon="3.0818139016628265"><ele>0</ele><time>1970-01-01T00:00:00Z</time><name>WP 987</name></trkpt>
        <trkpt lat="39.906276538968086" lon="3.081742823123932"><ele>0</ele><time>1970-01-01T00:00:00Z</time><name>WP 988</name></trkpt>
        <trkpt lat="39.90622155368328" lon="3.0812935531139374"><ele>0</ele><time>1970-01-01T00:00:00Z</time><name>WP 989</name></trkpt>
        <trkpt lat="39.90618735551834" lon="3.0810239911079407"><ele>0</ele><time>1970-01-01T00:00:00Z</time><name>WP 990</name></trkpt>
        <trkpt lat="39.90608409047127" lon="3.080618977546692"><ele>0</ele><time>1970-01-01T00:00:00Z</time><name>WP 991</name></trkpt>
        <trkpt lat="39.905945956707" lon="3.0801884829998016"><ele>0</ele><time>1970-01-01T00:00:00Z</time><name>WP 992</name></trkpt>
        <trkpt lat="39.905849397182465" lon="3.0798733234405518"><ele>0</ele><time>1970-01-01T00:00:00Z</time><name>WP 993</name></trkpt>
        <trkpt lat="39.90567035973072" lon="3.0792362987995148"><ele>0</ele><time>1970-01-01T00:00:00Z</time><name>WP 994</name></trkpt>
        <trkpt lat="39.90542896091938" lon="3.0784544348716736"><ele>0</ele><time>1970-01-01T00:00:00Z</time><name>WP 995</name></trkpt>
        <trkpt lat="39.9052432179451" lon="3.0778442323207855"><ele>0</ele><time>1970-01-01T00:00:00Z</time><name>WP 996</name></trkpt>
        <trkpt lat="39.90514665842056" lon="3.0775290727615356"><ele>0</ele><time>1970-01-01T00:00:00Z</time><name>WP 997</name></trkpt>
        <trkpt lat="39.90501590073109" lon="3.0770891904830933"><ele>0</ele><time>1970-01-01T00:00:00Z</time><name>WP 998</name></trkpt>
        <trkpt lat="39.90498103201389" lon="3.0770985782146454"><ele>0</ele><time>1970-01-01T00:00:00Z</time><name>WP 999</name></trkpt>
        <trkpt lat="39.90496024489403" lon="3.0770261585712433"><ele>0</ele><time>1970-01-01T00:00:00Z</time><name>WP 1000</name></trkpt>
        <trkpt lat="39.90470543503761" lon="3.076217472553253"><ele>0</ele><time>1970-01-01T00:00:00Z</time><name>WP 1001</name></trkpt>
        <trkpt lat="39.904595464468" lon="3.075876832008362"><ele>0</ele><time>1970-01-01T00:00:00Z</time><name>WP 1002</name></trkpt>
        <trkpt lat="39.90456059575081" lon="3.075813800096512"><ele>0</ele><time>1970-01-01T00:00:00Z</time><name>WP 1003</name></trkpt>
        <trkpt lat="39.90452639758587" lon="3.075750768184662"><ele>0</ele><time>1970-01-01T00:00:00Z</time><name>WP 1004</name></trkpt>
        <trkpt lat="39.9044781178236" lon="3.075714558362961"><ele>0</ele><time>1970-01-01T00:00:00Z</time><name>WP 1005</name></trkpt>
        <trkpt lat="39.90443654358387" lon="3.0756783485412598"><ele>0</ele><time>1970-01-01T00:00:00Z</time><name>WP 1006</name></trkpt>
        <trkpt lat="39.9043882638216" lon="3.075651526451111"><ele>0</ele><time>1970-01-01T00:00:00Z</time><name>WP 1007</name></trkpt>
        <trkpt lat="39.90432657301426" lon="3.07561531662941"><ele>0</ele><time>1970-01-01T00:00:00Z</time><name>WP 1008</name></trkpt>
        <trkpt lat="39.90429237484932" lon="3.075588494539261"><ele>0</ele><time>1970-01-01T00:00:00Z</time><name>WP 1009</name></trkpt>
        <trkpt lat="39.904257506132126" lon="3.075517416000366"><ele>0</ele><time>1970-01-01T00:00:00Z</time><name>WP 1010</name></trkpt>
        <trkpt lat="39.90420922636986" lon="3.075418174266815"><ele>0</ele><time>1970-01-01T00:00:00Z</time><name>WP 1011</name></trkpt>
        <trkpt lat="39.90411266684532" lon="3.0753645300865173"><ele>0</ele><time>1970-01-01T00:00:00Z</time><name>WP 1012</name></trkpt>
        <trkpt lat="39.90413345396519" lon="3.0753108859062195"><ele>0</ele><time>1970-01-01T00:00:00Z</time><name>WP 1013</name></trkpt>
        <trkpt lat="39.90415424108505" lon="3.0752572417259216"><ele>0</ele><time>1970-01-01T00:00:00Z</time><name>WP 1014</name></trkpt>
        <trkpt lat="39.90416094660759" lon="3.0751942098140717"><ele>0</ele><time>1970-01-01T00:00:00Z</time><name>WP 1015</name></trkpt>
        <trkpt lat="39.90416094660759" lon="3.0751311779022217"><ele>0</ele><time>1970-01-01T00:00:00Z</time><name>WP 1016</name></trkpt>
        <trkpt lat="39.90416094660759" lon="3.0750681459903717"><ele>0</ele><time>1970-01-01T00:00:00Z</time><name>WP 1017</name></trkpt>
        <trkpt lat="39.904223307967186" lon="3.0748790502548218"><ele>0</ele><time>1970-01-01T00:00:00Z</time><name>WP 1018</name></trkpt>
        <trkpt lat="39.90423671901226" lon="3.074825406074524"><ele>0</ele><time>1970-01-01T00:00:00Z</time><name>WP 1019</name></trkpt>
        <trkpt lat="39.90423671901226" lon="3.074752986431122"><ele>0</ele><time>1970-01-01T00:00:00Z</time><name>WP 1020</name></trkpt>
        <trkpt lat="39.90421660244465" lon="3.0745652318000793"><ele>0</ele><time>1970-01-01T00:00:00Z</time><name>WP 1021</name></trkpt>
        <trkpt lat="39.903864562511444" lon="3.0734145641326904"><ele>0</ele><time>1970-01-01T00:00:00Z</time><name>WP 1022</name></trkpt>
        <trkpt lat="39.9037130177021" lon="3.07292103767395"><ele>0</ele><time>1970-01-01T00:00:00Z</time><name>WP 1023</name></trkpt>
        <trkpt lat="39.903155118227005" lon="3.0710797011852264"><ele>0</ele><time>1970-01-01T00:00:00Z</time><name>WP 1024</name></trkpt>
        <trkpt lat="39.90296870470047" lon="3.070486932992935"><ele>0</ele><time>1970-01-01T00:00:00Z</time><name>WP 1025</name></trkpt>
        <trkpt lat="39.9030102789402" lon="3.070450723171234"><ele>0</ele><time>1970-01-01T00:00:00Z</time><name>WP 1026</name></trkpt>
        <trkpt lat="39.90294121205807" lon="3.0702348053455353"><ele>0</ele><time>1970-01-01T00:00:00Z</time><name>WP 1027</name></trkpt>
        <trkpt lat="39.9029827862978" lon="3.0702079832553864"><ele>0</ele><time>1970-01-01T00:00:00Z</time><name>WP 1028</name></trkpt>
        <trkpt lat="39.90285202860832" lon="3.069768100976944"><ele>0</ele><time>1970-01-01T00:00:00Z</time><name>WP 1029</name></trkpt>
        <trkpt lat="39.90284465253353" lon="3.0695615708827972"><ele>0</ele><time>1970-01-01T00:00:00Z</time><name>WP 1030</name></trkpt>
        <trkpt lat="39.90285202860832" lon="3.0694086849689484"><ele>0</ele><time>1970-01-01T00:00:00Z</time><name>WP 1031</name></trkpt>
        <trkpt lat="39.90285202860832" lon="3.0693456530570984"><ele>0</ele><time>1970-01-01T00:00:00Z</time><name>WP 1032</name></trkpt>
        <trkpt lat="39.90285873413086" lon="3.0692732334136963"><ele>0</ele><time>1970-01-01T00:00:00Z</time><name>WP 1033</name></trkpt>
        <trkpt lat="39.90284465253353" lon="3.0692115426063538"><ele>0</ele><time>1970-01-01T00:00:00Z</time><name>WP 1034</name></trkpt>
        <trkpt lat="39.90282453596592" lon="3.0691565573215485"><ele>0</ele><time>1970-01-01T00:00:00Z</time><name>WP 1035</name></trkpt>
        <trkpt lat="39.90278296172619" lon="3.0691123008728027"><ele>0</ele><time>1970-01-01T00:00:00Z</time><name>WP 1036</name></trkpt>
        <trkpt lat="39.90268640220165" lon="3.069058656692505"><ele>0</ele><time>1970-01-01T00:00:00Z</time><name>WP 1037</name></trkpt>
        <trkpt lat="39.90265890955925" lon="3.0690398812294006"><ele>0</ele><time>1970-01-01T00:00:00Z</time><name>WP 1038</name></trkpt>
        <trkpt lat="39.90262471139431" lon="3.068995624780655"><ele>0</ele><time>1970-01-01T00:00:00Z</time><name>WP 1039</name></trkpt>
        <trkpt lat="39.90252077579498" lon="3.0686630308628082"><ele>0</ele><time>1970-01-01T00:00:00Z</time><name>WP 1040</name></trkpt>
        <trkpt lat="39.90216940641403" lon="3.0675137042999268"><ele>0</ele><time>1970-01-01T00:00:00Z</time><name>WP 1041</name></trkpt>
        <trkpt lat="39.901997074484825" lon="3.0669383704662323"><ele>0</ele><time>1970-01-01T00:00:00Z</time><name>WP 1042</name></trkpt>
        <trkpt lat="39.90198366343975" lon="3.0669021606445312"><ele>0</ele><time>1970-01-01T00:00:00Z</time><name>WP 1043</name></trkpt>
        <trkpt lat="39.90116357803345" lon="3.0641354620456696"><ele>0</ele><time>1970-01-01T00:00:00Z</time><name>WP 1044</name></trkpt>
        <trkpt lat="39.90094967186451" lon="3.0634260177612305"><ele>0</ele><time>1970-01-01T00:00:00Z</time><name>WP 1045</name></trkpt>
        <trkpt lat="39.900584891438484" lon="3.062213659286499"><ele>0</ele><time>1970-01-01T00:00:00Z</time><name>WP 1046</name></trkpt>
        <trkpt lat="39.90056410431862" lon="3.062141239643097"><ele>0</ele><time>1970-01-01T00:00:00Z</time><name>WP 1047</name></trkpt>
        <trkpt lat="39.90027442574501" lon="3.061179667711258"><ele>0</ele><time>1970-01-01T00:00:00Z</time><name>WP 1048</name></trkpt>
        <trkpt lat="39.90004040300846" lon="3.060389757156372"><ele>0</ele><time>1970-01-01T00:00:00Z</time><name>WP 1049</name></trkpt>
        <trkpt lat="39.89986069500446" lon="3.0598050355911255"><ele>0</ele><time>1970-01-01T00:00:00Z</time><name>WP 1050</name></trkpt>
        <trkpt lat="39.89960588514805" lon="3.0589614808559418"><ele>0</ele><time>1970-01-01T00:00:00Z</time><name>WP 1051</name></trkpt>
        <trkpt lat="39.899302795529366" lon="3.057892620563507"><ele>0</ele><time>1970-01-01T00:00:00Z</time><name>WP 1052</name></trkpt>
        <trkpt lat="39.89921294152737" lon="3.0575868487358093"><ele>0</ele><time>1970-01-01T00:00:00Z</time><name>WP 1053</name></trkpt>
        <trkpt lat="39.89904060959816" lon="3.057074546813965"><ele>0</ele><time>1970-01-01T00:00:00Z</time><name>WP 1054</name></trkpt>
        <trkpt lat="39.89821381866932" lon="3.0542904138565063"><ele>0</ele><time>1970-01-01T00:00:00Z</time><name>WP 1055</name></trkpt>
        <trkpt lat="39.8979040235281" lon="3.0532389879226685"><ele>0</ele><time>1970-01-01T00:00:00Z</time><name>WP 1056</name></trkpt>
        <trkpt lat="39.89760763943195" lon="3.0522412061691284"><ele>0</ele><time>1970-01-01T00:00:00Z</time><name>WP 1057</name></trkpt>
        <trkpt lat="39.89738702774048" lon="3.0515143275260925"><ele>0</ele><time>1970-01-01T00:00:00Z</time><name>WP 1058</name></trkpt>
        <trkpt lat="39.89678017795086" lon="3.0495013296604156"><ele>0</ele><time>1970-01-01T00:00:00Z</time><name>WP 1059</name></trkpt>
        <trkpt lat="39.896442890167236" lon="3.048378825187683"><ele>0</ele><time>1970-01-01T00:00:00Z</time><name>WP 1060</name></trkpt>
        <trkpt lat="39.89633224904537" lon="3.0479751527309418"><ele>0</ele><time>1970-01-01T00:00:00Z</time><name>WP 1061</name></trkpt>
        <trkpt lat="39.895925894379616" lon="3.046734631061554"><ele>0</ele><time>1970-01-01T00:00:00Z</time><name>WP 1062</name></trkpt>
        <trkpt lat="39.89562951028347" lon="3.0458012223243713"><ele>0</ele><time>1970-01-01T00:00:00Z</time><name>WP 1063</name></trkpt>
        <trkpt lat="39.89361718297005" lon="3.040069341659546"><ele>0</ele><time>1970-01-01T00:00:00Z</time><name>WP 1064</name></trkpt>
        <trkpt lat="39.89348575472832" lon="3.0396924912929535"><ele>0</ele><time>1970-01-01T00:00:00Z</time><name>WP 1065</name></trkpt>
        <trkpt lat="39.89325173199177" lon="3.0390098690986633"><ele>0</ele><time>1970-01-01T00:00:00Z</time><name>WP 1066</name></trkpt>
        <trkpt lat="39.89271394908428" lon="3.0372758209705353"><ele>0</ele><time>1970-01-01T00:00:00Z</time><name>WP 1067</name></trkpt>
        <trkpt lat="39.892707243561745" lon="3.0372315645217896"><ele>0</ele><time>1970-01-01T00:00:00Z</time><name>WP 1068</name></trkpt>
        <trkpt lat="39.89272065460682" lon="3.0371229350566864"><ele>0</ele><time>1970-01-01T00:00:00Z</time><name>WP 1069</name></trkpt>
        <trkpt lat="39.89277631044388" lon="3.036962002515793"><ele>0</ele><time>1970-01-01T00:00:00Z</time><name>WP 1070</name></trkpt>
        <trkpt lat="39.892817214131355" lon="3.036925792694092"><ele>0</ele><time>1970-01-01T00:00:00Z</time><name>WP 1071</name></trkpt>
        <trkpt lat="39.89292785525322" lon="3.0368265509605408"><ele>0</ele><time>1970-01-01T00:00:00Z</time><name>WP 1072</name></trkpt>
        <trkpt lat="39.89304453134537" lon="3.036709874868393"><ele>0</ele><time>1970-01-01T00:00:00Z</time><name>WP 1073</name></trkpt>
        <trkpt lat="39.89319674670696" lon="3.036556988954544"><ele>0</ele><time>1970-01-01T00:00:00Z</time><name>WP 1074</name></trkpt>
        <trkpt lat="39.89324502646923" lon="3.0365127325057983"><ele>0</ele><time>1970-01-01T00:00:00Z</time><name>WP 1075</name></trkpt>
        <trkpt lat="39.8939960449934" lon="3.035883754491806"><ele>0</ele><time>1970-01-01T00:00:00Z</time><name>WP 1076</name></trkpt>
        <trkpt lat="39.89405773580074" lon="3.035838156938553"><ele>0</ele><time>1970-01-01T00:00:00Z</time><name>WP 1077</name></trkpt>
        <trkpt lat="39.894133508205414" lon="3.035767078399658"><ele>0</ele><time>1970-01-01T00:00:00Z</time><name>WP 1078</name></trkpt>
        <trkpt lat="39.89453382790089" lon="3.0353982746601105"><ele>0</ele><time>1970-01-01T00:00:00Z</time><name>WP 1079</name></trkpt>
        <trkpt lat="39.89497438073158" lon="3.034975826740265"><ele>0</ele><time>1970-01-01T00:00:00Z</time><name>WP 1080</name></trkpt>
        <trkpt lat="39.89506423473358" lon="3.034895360469818"><ele>0</ele><time>1970-01-01T00:00:00Z</time><name>WP 1081</name></trkpt>
        <trkpt lat="39.89530563354492" lon="3.0346794426441193"><ele>0</ele><time>1970-01-01T00:00:00Z</time><name>WP 1082</name></trkpt>
        <trkpt lat="39.8954638838768" lon="3.0345453321933746"><ele>0</ele><time>1970-01-01T00:00:00Z</time><name>WP 1083</name></trkpt>
        <trkpt lat="39.895518869161606" lon="3.034491688013077"><ele>0</ele><time>1970-01-01T00:00:00Z</time><name>WP 1084</name></trkpt>
        <trkpt lat="39.896201491355896" lon="3.03396999835968"><ele>0</ele><time>1970-01-01T00:00:00Z</time><name>WP 1085</name></trkpt>
        <trkpt lat="39.89638052880764" lon="3.0338358879089355"><ele>0</ele><time>1970-01-01T00:00:00Z</time><name>WP 1086</name></trkpt>
        <trkpt lat="39.896559566259384" lon="3.0337728559970856"><ele>0</ele><time>1970-01-01T00:00:00Z</time><name>WP 1087</name></trkpt>
        <trkpt lat="39.896711111068726" lon="3.0337272584438324"><ele>0</ele><time>1970-01-01T00:00:00Z</time><name>WP 1088</name></trkpt>
        <trkpt lat="39.89697329699993" lon="3.0337366461753845"><ele>0</ele><time>1970-01-01T00:00:00Z</time><name>WP 1089</name></trkpt>
        <trkpt lat="39.897076562047005" lon="3.0337728559970856"><ele>0</ele><time>1970-01-01T00:00:00Z</time><name>WP 1090</name></trkpt>
        <trkpt lat="39.89764854311943" lon="3.033996820449829"><ele>0</ele><time>1970-01-01T00:00:00Z</time><name>WP 1091</name></trkpt>
        <trkpt lat="39.897910729050636" lon="3.034113496541977"><ele>0</ele><time>1970-01-01T00:00:00Z</time><name>WP 1092</name></trkpt>
        <trkpt lat="39.89879988133907" lon="3.034491688013077"><ele>0</ele><time>1970-01-01T00:00:00Z</time><name>WP 1093</name></trkpt>
        <trkpt lat="39.899061396718025" lon="3.0345533788204193"><ele>0</ele><time>1970-01-01T00:00:00Z</time><name>WP 1094</name></trkpt>
        <trkpt lat="39.899351075291634" lon="3.0345627665519714"><ele>0</ele><time>1970-01-01T00:00:00Z</time><name>WP 1095</name></trkpt>
        <trkpt lat="39.89949591457844" lon="3.0345895886421204"><ele>0</ele><time>1970-01-01T00:00:00Z</time><name>WP 1096</name></trkpt>
        <trkpt lat="39.899626672267914" lon="3.0346620082855225"><ele>0</ele><time>1970-01-01T00:00:00Z</time><name>WP 1097</name></trkpt>
        <trkpt lat="39.89980570971966" lon="3.034805506467819"><ele>0</ele><time>1970-01-01T00:00:00Z</time><name>WP 1098</name></trkpt>
        <trkpt lat="39.89997133612633" lon="3.034985214471817"><ele>0</ele><time>1970-01-01T00:00:00Z</time><name>WP 1099</name></trkpt>
        <trkpt lat="39.900019615888596" lon="3.035038858652115"><ele>0</ele><time>1970-01-01T00:00:00Z</time><name>WP 1100</name></trkpt>
        <trkpt lat="39.900495037436485" lon="3.0356410145759583"><ele>0</ele><time>1970-01-01T00:00:00Z</time><name>WP 1101</name></trkpt>
        <trkpt lat="39.901122003793716" lon="3.0365127325057983"><ele>0</ele><time>1970-01-01T00:00:00Z</time><name>WP 1102</name></trkpt>
        <trkpt lat="39.901211857795715" lon="3.0366025865077972"><ele>0</ele><time>1970-01-01T00:00:00Z</time><name>WP 1103</name></trkpt>
        <trkpt lat="39.90136340260506" lon="3.036719262599945"><ele>0</ele><time>1970-01-01T00:00:00Z</time><name>WP 1104</name></trkpt>
        <trkpt lat="39.90150824189186" lon="3.036772906780243"><ele>0</ele><time>1970-01-01T00:00:00Z</time><name>WP 1105</name></trkpt>
        <trkpt lat="39.9016597867012" lon="3.036799728870392"><ele>0</ele><time>1970-01-01T00:00:00Z</time><name>WP 1106</name></trkpt>
        <trkpt lat="39.90178383886814" lon="3.0367903411388397"><ele>0</ele><time>1970-01-01T00:00:00Z</time><name>WP 1107</name></trkpt>
        <trkpt lat="39.902238473296165" lon="3.036646842956543"><ele>0</ele><time>1970-01-01T00:00:00Z</time><name>WP 1108</name></trkpt>
        <trkpt lat="39.902362525463104" lon="3.036620020866394"><ele>0</ele><time>1970-01-01T00:00:00Z</time><name>WP 1109</name></trkpt>
        <trkpt lat="39.90256905555725" lon="3.036620020866394"><ele>0</ele><time>1970-01-01T00:00:00Z</time><name>WP 1110</name></trkpt>
        <trkpt lat="39.90265220403671" lon="3.036629408597946"><ele>0</ele><time>1970-01-01T00:00:00Z</time><name>WP 1111</name></trkpt>
        <trkpt lat="39.90340992808342" lon="3.036835938692093"><ele>0</ele><time>1970-01-01T00:00:00Z</time><name>WP 1112</name></trkpt>
        <trkpt lat="39.90363724529743" lon="3.0369164049625397"><ele>0</ele><time>1970-01-01T00:00:00Z</time><name>WP 1113</name></trkpt>
        <trkpt lat="39.903830364346504" lon="3.0370156466960907"><ele>0</ele><time>1970-01-01T00:00:00Z</time><name>WP 1114</name></trkpt>
        <trkpt lat="39.903995990753174" lon="3.0371323227882385"><ele>0</ele><time>1970-01-01T00:00:00Z</time><name>WP 1115</name></trkpt>
        <trkpt lat="39.90419581532478" lon="3.037302643060684"><ele>0</ele><time>1970-01-01T00:00:00Z</time><name>WP 1116</name></trkpt>
        <trkpt lat="39.90428499877453" lon="3.037392497062683"><ele>0</ele><time>1970-01-01T00:00:00Z</time><name>WP 1117</name></trkpt>
        <trkpt lat="39.90448482334614" lon="3.03759902715683"><ele>0</ele><time>1970-01-01T00:00:00Z</time><name>WP 1118</name></trkpt>
        <trkpt lat="39.90460887551308" lon="3.037698268890381"><ele>0</ele><time>1970-01-01T00:00:00Z</time><name>WP 1119</name></trkpt>
        <trkpt lat="39.90482948720455" lon="3.0378055572509766"><ele>0</ele><time>1970-01-01T00:00:00Z</time><name>WP 1120</name></trkpt>
        <trkpt lat="39.904932752251625" lon="3.037824332714081"><ele>0</ele><time>1970-01-01T00:00:00Z</time><name>WP 1121</name></trkpt>
        <trkpt lat="39.90523651242256" lon="3.037824332714081"><ele>0</ele><time>1970-01-01T00:00:00Z</time><name>WP 1122</name></trkpt>
        <trkpt lat="39.90538068115711" lon="3.0378055572509766"><ele>0</ele><time>1970-01-01T00:00:00Z</time><name>WP 1123</name></trkpt>
        <trkpt lat="39.90589767694473" lon="3.0375896394252777"><ele>0</ele><time>1970-01-01T00:00:00Z</time><name>WP 1124</name></trkpt>
        <trkpt lat="39.90600764751434" lon="3.037572205066681"><ele>0</ele><time>1970-01-01T00:00:00Z</time><name>WP 1125</name></trkpt>
        <trkpt lat="39.906166568398476" lon="3.037581592798233"><ele>0</ele><time>1970-01-01T00:00:00Z</time><name>WP 1126</name></trkpt>
        <trkpt lat="39.90631140768528" lon="3.037671446800232"><ele>0</ele><time>1970-01-01T00:00:00Z</time><name>WP 1127</name></trkpt>
        <trkpt lat="39.90655213594437" lon="3.0378685891628265"><ele>0</ele><time>1970-01-01T00:00:00Z</time><name>WP 1128</name></trkpt>
        <trkpt lat="39.90670368075371" lon="3.0379584431648254"><ele>0</ele><time>1970-01-01T00:00:00Z</time><name>WP 1129</name></trkpt>
        <trkpt lat="39.90693837404251" lon="3.038065731525421"><ele>0</ele><time>1970-01-01T00:00:00Z</time><name>WP 1130</name></trkpt>
        <trkpt lat="39.90762032568455" lon="3.038291037082672"><ele>0</ele><time>1970-01-01T00:00:00Z</time><name>WP 1131</name></trkpt>
        <trkpt lat="39.90819901227951" lon="3.038569986820221"><ele>0</ele><time>1970-01-01T00:00:00Z</time><name>WP 1132</name></trkpt>
        <trkpt lat="39.90847460925579" lon="3.0387403070926666"><ele>0</ele><time>1970-01-01T00:00:00Z</time><name>WP 1133</name></trkpt>
        <trkpt lat="39.908619448542595" lon="3.0388301610946655"><ele>0</ele><time>1970-01-01T00:00:00Z</time><name>WP 1134</name></trkpt>
        <trkpt lat="39.90908145904541" lon="3.03921639919281"><ele>0</ele><time>1970-01-01T00:00:00Z</time><name>WP 1135</name></trkpt>
        <trkpt lat="39.90921892225742" lon="3.0393236875534058"><ele>0</ele><time>1970-01-01T00:00:00Z</time><name>WP 1136</name></trkpt>
        <trkpt lat="39.90945361554623" lon="3.039495348930359"><ele>0</ele><time>1970-01-01T00:00:00Z</time><name>WP 1137</name></trkpt>
        <trkpt lat="39.910121485590935" lon="3.0397729575634003"><ele>0</ele><time>1970-01-01T00:00:00Z</time><name>WP 1138</name></trkpt>
        <trkpt lat="39.910163059830666" lon="3.0397917330265045"><ele>0</ele><time>1970-01-01T00:00:00Z</time><name>WP 1139</name></trkpt>
        <trkpt lat="39.91029381752014" lon="3.0398453772068024"><ele>0</ele><time>1970-01-01T00:00:00Z</time><name>WP 1140</name></trkpt>
        <trkpt lat="39.91056941449642" lon="3.039988875389099"><ele>0</ele><time>1970-01-01T00:00:00Z</time><name>WP 1141</name></trkpt>
        <trkpt lat="39.91122454404831" lon="3.0404113233089447"><ele>0</ele><time>1970-01-01T00:00:00Z</time><name>WP 1142</name></trkpt>
        <trkpt lat="39.91172008216381" lon="3.040625900030136"><ele>0</ele><time>1970-01-01T00:00:00Z</time><name>WP 1143</name></trkpt>
        <trkpt lat="39.91198226809502" lon="3.040778785943985"><ele>0</ele><time>1970-01-01T00:00:00Z</time><name>WP 1144</name></trkpt>
        <trkpt lat="39.91209223866463" lon="3.040895462036133"><ele>0</ele><time>1970-01-01T00:00:00Z</time><name>WP 1145</name></trkpt>
        <trkpt lat="39.91225115954876" lon="3.041130155324936"><ele>0</ele><time>1970-01-01T00:00:00Z</time><name>WP 1146</name></trkpt>
        <trkpt lat="39.91234704852104" lon="3.0413179099559784"><ele>0</ele><time>1970-01-01T00:00:00Z</time><name>WP 1147</name></trkpt>
        <trkpt lat="39.91280905902386" lon="3.0421091616153717"><ele>0</ele><time>1970-01-01T00:00:00Z</time><name>WP 1148</name></trkpt>
        <trkpt lat="39.912891536951065" lon="3.0422432720661163"><ele>0</ele><time>1970-01-01T00:00:00Z</time><name>WP 1149</name></trkpt>
        <trkpt lat="39.91346351802349" lon="3.043348342180252"><ele>0</ele><time>1970-01-01T00:00:00Z</time><name>WP 1150</name></trkpt>
        <trkpt lat="39.91369754076004" lon="3.0437614023685455"><ele>0</ele><time>1970-01-01T00:00:00Z</time><name>WP 1151</name></trkpt>
        <trkpt lat="39.91401471197605" lon="3.0441664159297943"><ele>0</ele><time>1970-01-01T00:00:00Z</time><name>WP 1152</name></trkpt>
        <trkpt lat="39.91437278687954" lon="3.0445607006549835"><ele>0</ele><time>1970-01-01T00:00:00Z</time><name>WP 1153</name></trkpt>
        <trkpt lat="39.91499304771423" lon="3.045262098312378"><ele>0</ele><time>1970-01-01T00:00:00Z</time><name>WP 1154</name></trkpt>
        <trkpt lat="39.91520695388317" lon="3.0455584824085236"><ele>0</ele><time>1970-01-01T00:00:00Z</time><name>WP 1155</name></trkpt>
        <trkpt lat="39.91533100605011" lon="3.0458012223243713"><ele>0</ele><time>1970-01-01T00:00:00Z</time><name>WP 1156</name></trkpt>
        <trkpt lat="39.915420189499855" lon="3.046034574508667"><ele>0</ele><time>1970-01-01T00:00:00Z</time><name>WP 1157</name></trkpt>
        <trkpt lat="39.915627390146255" lon="3.046860694885254"><ele>0</ele><time>1970-01-01T00:00:00Z</time><name>WP 1158</name></trkpt>
        <trkpt lat="39.915737360715866" lon="3.0471839010715485"><ele>0</ele><time>1970-01-01T00:00:00Z</time><name>WP 1159</name></trkpt>
        <trkpt lat="39.916012957692146" lon="3.047786056995392"><ele>0</ele><time>1970-01-01T00:00:00Z</time><name>WP 1160</name></trkpt>
        <trkpt lat="39.91619199514389" lon="3.0481548607349396"><ele>0</ele><time>1970-01-01T00:00:00Z</time><name>WP 1161</name></trkpt>
        <trkpt lat="39.916371032595634" lon="3.04852232336998"><ele>0</ele><time>1970-01-01T00:00:00Z</time><name>WP 1162</name></trkpt>
        <trkpt lat="39.916812255978584" lon="3.049420863389969"><ele>0</ele><time>1970-01-01T00:00:00Z</time><name>WP 1163</name></trkpt>
        <trkpt lat="39.91697050631046" lon="3.0497628450393677"><ele>0</ele><time>1970-01-01T00:00:00Z</time><name>WP 1164</name></trkpt>
        <trkpt lat="39.917122051119804" lon="3.050149083137512"><ele>0</ele><time>1970-01-01T00:00:00Z</time><name>WP 1165</name></trkpt>
        <trkpt lat="39.917239397764206" lon="3.0504266917705536"><ele>0</ele><time>1970-01-01T00:00:00Z</time><name>WP 1166</name></trkpt>
        <trkpt lat="39.91741172969341" lon="3.0507056415081024"><ele>0</ele><time>1970-01-01T00:00:00Z</time><name>WP 1167</name></trkpt>
        <trkpt lat="39.91763234138489" lon="3.050992637872696"><ele>0</ele><time>1970-01-01T00:00:00Z</time><name>WP 1168</name></trkpt>
        <trkpt lat="39.91787977516651" lon="3.0512621998786926"><ele>0</ele><time>1970-01-01T00:00:00Z</time><name>WP 1169</name></trkpt>
        <trkpt lat="39.91808697581291" lon="3.0514512956142426"><ele>0</ele><time>1970-01-01T00:00:00Z</time><name>WP 1170</name></trkpt>
        <trkpt lat="39.91816274821758" lon="3.0515237152576447"><ele>0</ele><time>1970-01-01T00:00:00Z</time><name>WP 1171</name></trkpt>
        <trkpt lat="39.9183551967144" lon="3.0517302453517914"><ele>0</ele><time>1970-01-01T00:00:00Z</time><name>WP 1172</name></trkpt>
        <trkpt lat="39.91938181221485" lon="3.052772283554077"><ele>0</ele><time>1970-01-01T00:00:00Z</time><name>WP 1173</name></trkpt>
        <trkpt lat="39.920036271214485" lon="3.0534186959266663"><ele>0</ele><time>1970-01-01T00:00:00Z</time><name>WP 1174</name></trkpt>
        <trkpt lat="39.920711517333984" lon="3.0541013181209564"><ele>0</ele><time>1970-01-01T00:00:00Z</time><name>WP 1175</name></trkpt>
        <trkpt lat="39.920711517333984" lon="3.0541013181209564"><ele>0</ele><time>1970-01-01T00:00:00Z</time><name>WP 1176</name></trkpt>
        <trkpt lat="39.92073900997639" lon="3.0541281402111053"><ele>0</ele><time>1970-01-01T00:00:00Z</time><name>WP 1177</name></trkpt>
        <trkpt lat="39.92070481181145" lon="3.054298460483551"><ele>0</ele><time>1970-01-01T00:00:00Z</time><name>WP 1178</name></trkpt>
        <trkpt lat="39.920643121004105" lon="3.05451437830925"><ele>0</ele><time>1970-01-01T00:00:00Z</time><name>WP 1179</name></trkpt>
        <trkpt lat="39.92053247988224" lon="3.0549462139606476"><ele>0</ele><time>1970-01-01T00:00:00Z</time><name>WP 1180</name></trkpt>
        <trkpt lat="39.920443296432495" lon="3.055242598056793"><ele>0</ele><time>1970-01-01T00:00:00Z</time><name>WP 1181</name></trkpt>
        <trkpt lat="39.920353442430496" lon="3.055502772331238"><ele>0</ele><time>1970-01-01T00:00:00Z</time><name>WP 1182</name></trkpt>
        <trkpt lat="39.9198230355978" lon="3.055843412876129"><ele>0</ele><time>1970-01-01T00:00:00Z</time><name>WP 1183</name></trkpt>
        <trkpt lat="39.920160323381424" lon="3.0563919246196747"><ele>0</ele><time>1970-01-01T00:00:00Z</time><name>WP 1184</name></trkpt>
        <trkpt lat="39.920443296432495" lon="3.0566976964473724"><ele>0</ele><time>1970-01-01T00:00:00Z</time><name>WP 1185</name></trkpt>
        <trkpt lat="39.92069073021412" lon="3.056904226541519"><ele>0</ele><time>1970-01-01T00:00:00Z</time><name>WP 1186</name></trkpt>
        <trkpt lat="39.920828863978386" lon="3.0571550130844116"><ele>0</ele><time>1970-01-01T00:00:00Z</time><name>WP 1187</name></trkpt>
        <trkpt lat="39.92089793086052" lon="3.0573266744613647"><ele>0</ele><time>1970-01-01T00:00:00Z</time><name>WP 1188</name></trkpt>
        <trkpt lat="39.9209663271904" lon="3.0574433505535126"><ele>0</ele><time>1970-01-01T00:00:00Z</time><name>WP 1189</name></trkpt>
        <trkpt lat="39.921186938881874" lon="3.057703524827957"><ele>0</ele><time>1970-01-01T00:00:00Z</time><name>WP 1190</name></trkpt>
        <trkpt lat="39.92144912481308" lon="3.0580535531044006"><ele>0</ele><time>1970-01-01T00:00:00Z</time><name>WP 1191</name></trkpt>
        <trkpt lat="39.92149740457535" lon="3.058099150657654"><ele>0</ele><time>1970-01-01T00:00:00Z</time><name>WP 1192</name></trkpt>
        <trkpt lat="39.92158658802509" lon="3.0581259727478027"><ele>0</ele><time>1970-01-01T00:00:00Z</time><name>WP 1193</name></trkpt>
        <trkpt lat="39.921689853072166" lon="3.0581527948379517"><ele>0</ele><time>1970-01-01T00:00:00Z</time><name>WP 1194</name></trkpt>
        <trkpt lat="39.92174483835697" lon="3.0582158267498016"><ele>0</ele><time>1970-01-01T00:00:00Z</time><name>WP 1195</name></trkpt>
        <trkpt lat="39.921738132834435" lon="3.058313727378845"><ele>0</ele><time>1970-01-01T00:00:00Z</time><name>WP 1196</name></trkpt>
        <trkpt lat="39.921703934669495" lon="3.0583861470222473"><ele>0</ele><time>1970-01-01T00:00:00Z</time><name>WP 1197</name></trkpt>
        <trkpt lat="39.92164894938469" lon="3.058439791202545"><ele>0</ele><time>1970-01-01T00:00:00Z</time><name>WP 1198</name></trkpt>
        <trkpt lat="39.92155909538269" lon="3.0584585666656494"><ele>0</ele><time>1970-01-01T00:00:00Z</time><name>WP 1199</name></trkpt>
        <trkpt lat="39.92144174873829" lon="3.0584491789340973"><ele>0</ele><time>1970-01-01T00:00:00Z</time><name>WP 1200</name></trkpt>
        <trkpt lat="39.92129020392895" lon="3.058439791202545"><ele>0</ele><time>1970-01-01T00:00:00Z</time><name>WP 1201</name></trkpt>
        <trkpt lat="39.92113195359707" lon="3.058403581380844"><ele>0</ele><time>1970-01-01T00:00:00Z</time><name>WP 1202</name></trkpt>
        <trkpt lat="39.9209663271904" lon="3.0582694709300995"><ele>0</ele><time>1970-01-01T00:00:00Z</time><name>WP 1203</name></trkpt>
        <trkpt lat="39.92073230445385" lon="3.0579905211925507"><ele>0</ele><time>1970-01-01T00:00:00Z</time><name>WP 1204</name></trkpt>
        <trkpt lat="39.920291751623154" lon="3.0574245750904083"><ele>0</ele><time>1970-01-01T00:00:00Z</time><name>WP 1205</name></trkpt>
        <trkpt lat="39.920236095786095" lon="3.0573534965515137"><ele>0</ele><time>1970-01-01T00:00:00Z</time><name>WP 1206</name></trkpt>
        <trkpt lat="39.92013283073902" lon="3.057209998369217"><ele>0</ele><time>1970-01-01T00:00:00Z</time><name>WP 1207</name></trkpt>
        <trkpt lat="39.9198230355978" lon="3.056795597076416"><ele>0</ele><time>1970-01-01T00:00:00Z</time><name>WP 1208</name></trkpt>
        <trkpt lat="39.91958901286125" lon="3.057093322277069"><ele>0</ele><time>1970-01-01T00:00:00Z</time><name>WP 1209</name></trkpt>
        <trkpt lat="39.919574931263924" lon="3.057110756635666"><ele>0</ele><time>1970-01-01T00:00:00Z</time><name>WP 1210</name></trkpt>
        <trkpt lat="39.919574931263924" lon="3.057110756635666"><ele>0</ele><time>1970-01-01T00:00:00Z</time><name>WP 1211</name></trkpt>
        <trkpt lat="39.919485077261925" lon="3.0572180449962616"><ele>0</ele><time>1970-01-01T00:00:00Z</time><name>WP 1212</name></trkpt>
        <trkpt lat="39.919216856360435" lon="3.056994080543518"><ele>0</ele><time>1970-01-01T00:00:00Z</time><name>WP 1213</name></trkpt>
        <trkpt lat="39.91902373731136" lon="3.0567607283592224"><ele>0</ele><time>1970-01-01T00:00:00Z</time><name>WP 1214</name></trkpt>
        <trkpt lat="39.91896875202656" lon="3.0566976964473724"><ele>0</ele><time>1970-01-01T00:00:00Z</time><name>WP 1215</name></trkpt>
        <trkpt lat="39.91891376674175" lon="3.0566346645355225"><ele>0</ele><time>1970-01-01T00:00:00Z</time><name>WP 1216</name></trkpt>
        <trkpt lat="39.91871394217014" lon="3.0563651025295258"><ele>0</ele><time>1970-01-01T00:00:00Z</time><name>WP 1217</name></trkpt>
        <trkpt lat="39.9184725433588" lon="3.0559252202510834"><ele>0</ele><time>1970-01-01T00:00:00Z</time><name>WP 1218</name></trkpt>
        <trkpt lat="39.91828680038452" lon="3.0555926263332367"><ele>0</ele><time>1970-01-01T00:00:00Z</time><name>WP 1219</name></trkpt>
        <trkpt lat="39.91805948317051" lon="3.055160790681839"><ele>0</ele><time>1970-01-01T00:00:00Z</time><name>WP 1220</name></trkpt>
        <trkpt lat="39.91794213652611" lon="3.0549730360507965"><ele>0</ele><time>1970-01-01T00:00:00Z</time><name>WP 1221</name></trkpt>
        <trkpt lat="39.9176524579525" lon="3.054586797952652"><ele>0</ele><time>1970-01-01T00:00:00Z</time><name>WP 1222</name></trkpt>
        <trkpt lat="39.91737686097622" lon="3.0543172359466553"><ele>0</ele><time>1970-01-01T00:00:00Z</time><name>WP 1223</name></trkpt>
        <trkpt lat="39.91722531616688" lon="3.0541911721229553"><ele>0</ele><time>1970-01-01T00:00:00Z</time><name>WP 1224</name></trkpt>
        <trkpt lat="39.917067065835" lon="3.0540382862091064"><ele>0</ele><time>1970-01-01T00:00:00Z</time><name>WP 1225</name></trkpt>
        <trkpt lat="39.91699129343033" lon="3.053678870201111"><ele>0</ele><time>1970-01-01T00:00:00Z</time><name>WP 1226</name></trkpt>
        <trkpt lat="39.91695709526539" lon="3.0533650517463684"><ele>0</ele><time>1970-01-01T00:00:00Z</time><name>WP 1227</name></trkpt>
        <trkpt lat="39.916922226548195" lon="3.053041845560074"><ele>0</ele><time>1970-01-01T00:00:00Z</time><name>WP 1228</name></trkpt>
        <trkpt lat="39.91688132286072" lon="3.052690476179123"><ele>0</ele><time>1970-01-01T00:00:00Z</time><name>WP 1229</name></trkpt>
        <trkpt lat="39.91690143942833" lon="3.052673041820526"><ele>0</ele><time>1970-01-01T00:00:00Z</time><name>WP 1230</name></trkpt>
        <trkpt lat="39.916922226548195" lon="3.0526556074619293"><ele>0</ele><time>1970-01-01T00:00:00Z</time><name>WP 1231</name></trkpt>
        <trkpt lat="39.916929602622986" lon="3.052627444267273"><ele>0</ele><time>1970-01-01T00:00:00Z</time><name>WP 1232</name></trkpt>
        <trkpt lat="39.91693630814552" lon="3.0525925755500793"><ele>0</ele><time>1970-01-01T00:00:00Z</time><name>WP 1233</name></trkpt>
        <trkpt lat="39.916929602622986" lon="3.0525657534599304"><ele>0</ele><time>1970-01-01T00:00:00Z</time><name>WP 1234</name></trkpt>
        <trkpt lat="39.916922226548195" lon="3.052537590265274"><ele>0</ele><time>1970-01-01T00:00:00Z</time><name>WP 1235</name></trkpt>
        <trkpt lat="39.91690143942833" lon="3.052510768175125"><ele>0</ele><time>1970-01-01T00:00:00Z</time><name>WP 1236</name></trkpt>
        <trkpt lat="39.91688132286072" lon="3.0525027215480804"><ele>0</ele><time>1970-01-01T00:00:00Z</time><name>WP 1237</name></trkpt>
        <trkpt lat="39.91685315966606" lon="3.0524933338165283"><ele>0</ele><time>1970-01-01T00:00:00Z</time><name>WP 1238</name></trkpt>
        <trkpt lat="39.91682566702366" lon="3.0525027215480804"><ele>0</ele><time>1970-01-01T00:00:00Z</time><name>WP 1239</name></trkpt>
        <trkpt lat="39.91680555045605" lon="3.0525201559066772"><ele>0</ele><time>1970-01-01T00:00:00Z</time><name>WP 1240</name></trkpt>
        <trkpt lat="39.91677068173885" lon="3.0524396896362305"><ele>0</ele><time>1970-01-01T00:00:00Z</time><name>WP 1241</name></trkpt>
        <trkpt lat="39.91612292826176" lon="3.0516672134399414"><ele>0</ele><time>1970-01-01T00:00:00Z</time><name>WP 1242</name></trkpt>
        <trkpt lat="39.915785640478134" lon="3.051002025604248"><ele>0</ele><time>1970-01-01T00:00:00Z</time><name>WP 1243</name></trkpt>
        <trkpt lat="39.91517946124077" lon="3.0498795211315155"><ele>0</ele><time>1970-01-01T00:00:00Z</time><name>WP 1244</name></trkpt>
        <trkpt lat="39.91512380540371" lon="3.049529492855072"><ele>0</ele><time>1970-01-01T00:00:00Z</time><name>WP 1245</name></trkpt>
        <trkpt lat="39.915151968598366" lon="3.049178123474121"><ele>0</ele><time>1970-01-01T00:00:00Z</time><name>WP 1246</name></trkpt>
        <trkpt lat="39.915144592523575" lon="3.0489635467529297"><ele>0</ele><time>1970-01-01T00:00:00Z</time><name>WP 1247</name></trkpt>
        <trkpt lat="39.91506211459637" lon="3.0486121773719788"><ele>0</ele><time>1970-01-01T00:00:00Z</time><name>WP 1248</name></trkpt>
        <trkpt lat="39.91484150290489" lon="3.0482259392738342"><ele>0</ele><time>1970-01-01T00:00:00Z</time><name>WP 1249</name></trkpt>
        <trkpt lat="39.91497963666916" lon="3.047606348991394"><ele>0</ele><time>1970-01-01T00:00:00Z</time><name>WP 1250</name></trkpt>
        <trkpt lat="39.91497963666916" lon="3.047606348991394"><ele>0</ele><time>1970-01-01T00:00:00Z</time><name>WP 1251</name></trkpt>
        <trkpt lat="39.914986342191696" lon="3.047570139169693"><ele>0</ele><time>1970-01-01T00:00:00Z</time><name>WP 1252</name></trkpt>
        <trkpt lat="39.91511709988117" lon="3.0473998188972473"><ele>0</ele><time>1970-01-01T00:00:00Z</time><name>WP 1253</name></trkpt>
        <trkpt lat="39.91553753614426" lon="3.0469143390655518"><ele>0</ele><time>1970-01-01T00:00:00Z</time><name>WP 1254</name></trkpt>
        <trkpt lat="39.915627390146255" lon="3.046860694885254"><ele>0</ele><time>1970-01-01T00:00:00Z</time><name>WP 1255</name></trkpt>
        <trkpt lat="39.915420189499855" lon="3.046034574508667"><ele>0</ele><time>1970-01-01T00:00:00Z</time><name>WP 1256</name></trkpt>
        <trkpt lat="39.91533100605011" lon="3.0458012223243713"><ele>0</ele><time>1970-01-01T00:00:00Z</time><name>WP 1257</name></trkpt>
        <trkpt lat="39.91520695388317" lon="3.0455584824085236"><ele>0</ele><time>1970-01-01T00:00:00Z</time><name>WP 1258</name></trkpt>
        <trkpt lat="39.91499304771423" lon="3.045262098312378"><ele>0</ele><time>1970-01-01T00:00:00Z</time><name>WP 1259</name></trkpt>
        <trkpt lat="39.91437278687954" lon="3.0445607006549835"><ele>0</ele><time>1970-01-01T00:00:00Z</time><name>WP 1260</name></trkpt>
        <trkpt lat="39.91401471197605" lon="3.0441664159297943"><ele>0</ele><time>1970-01-01T00:00:00Z</time><name>WP 1261</name></trkpt>
        <trkpt lat="39.91369754076004" lon="3.0437614023685455"><ele>0</ele><time>1970-01-01T00:00:00Z</time><name>WP 1262</name></trkpt>
        <trkpt lat="39.91346351802349" lon="3.043348342180252"><ele>0</ele><time>1970-01-01T00:00:00Z</time><name>WP 1263</name></trkpt>
        <trkpt lat="39.912891536951065" lon="3.0422432720661163"><ele>0</ele><time>1970-01-01T00:00:00Z</time><name>WP 1264</name></trkpt>
        <trkpt lat="39.91280905902386" lon="3.0421091616153717"><ele>0</ele><time>1970-01-01T00:00:00Z</time><name>WP 1265</name></trkpt>
        <trkpt lat="39.91234704852104" lon="3.0413179099559784"><ele>0</ele><time>1970-01-01T00:00:00Z</time><name>WP 1266</name></trkpt>
        <trkpt lat="39.91225115954876" lon="3.041130155324936"><ele>0</ele><time>1970-01-01T00:00:00Z</time><name>WP 1267</name></trkpt>
        <trkpt lat="39.91209223866463" lon="3.040895462036133"><ele>0</ele><time>1970-01-01T00:00:00Z</time><name>WP 1268</name></trkpt>
        <trkpt lat="39.91198226809502" lon="3.040778785943985"><ele>0</ele><time>1970-01-01T00:00:00Z</time><name>WP 1269</name></trkpt>
        <trkpt lat="39.91172008216381" lon="3.040625900030136"><ele>0</ele><time>1970-01-01T00:00:00Z</time><name>WP 1270</name></trkpt>
        <trkpt lat="39.91122454404831" lon="3.0404113233089447"><ele>0</ele><time>1970-01-01T00:00:00Z</time><name>WP 1271</name></trkpt>
        <trkpt lat="39.91056941449642" lon="3.039988875389099"><ele>0</ele><time>1970-01-01T00:00:00Z</time><name>WP 1272</name></trkpt>
        <trkpt lat="39.91029381752014" lon="3.0398453772068024"><ele>0</ele><time>1970-01-01T00:00:00Z</time><name>WP 1273</name></trkpt>
        <trkpt lat="39.910163059830666" lon="3.0397917330265045"><ele>0</ele><time>1970-01-01T00:00:00Z</time><name>WP 1274</name></trkpt>
        <trkpt lat="39.910121485590935" lon="3.0397729575634003"><ele>0</ele><time>1970-01-01T00:00:00Z</time><name>WP 1275</name></trkpt>
        <trkpt lat="39.90945361554623" lon="3.039495348930359"><ele>0</ele><time>1970-01-01T00:00:00Z</time><name>WP 1276</name></trkpt>
        <trkpt lat="39.90921892225742" lon="3.0393236875534058"><ele>0</ele><time>1970-01-01T00:00:00Z</time><name>WP 1277</name></trkpt>
        <trkpt lat="39.90908145904541" lon="3.03921639919281"><ele>0</ele><time>1970-01-01T00:00:00Z</time><name>WP 1278</name></trkpt>
        <trkpt lat="39.908619448542595" lon="3.0388301610946655"><ele>0</ele><time>1970-01-01T00:00:00Z</time><name>WP 1279</name></trkpt>
        <trkpt lat="39.90847460925579" lon="3.0387403070926666"><ele>0</ele><time>1970-01-01T00:00:00Z</time><name>WP 1280</name></trkpt>
        <trkpt lat="39.90819901227951" lon="3.038569986820221"><ele>0</ele><time>1970-01-01T00:00:00Z</time><name>WP 1281</name></trkpt>
        <trkpt lat="39.90762032568455" lon="3.038291037082672"><ele>0</ele><time>1970-01-01T00:00:00Z</time><name>WP 1282</name></trkpt>
        <trkpt lat="39.90693837404251" lon="3.038065731525421"><ele>0</ele><time>1970-01-01T00:00:00Z</time><name>WP 1283</name></trkpt>
        <trkpt lat="39.90670368075371" lon="3.0379584431648254"><ele>0</ele><time>1970-01-01T00:00:00Z</time><name>WP 1284</name></trkpt>
        <trkpt lat="39.90655213594437" lon="3.0378685891628265"><ele>0</ele><time>1970-01-01T00:00:00Z</time><name>WP 1285</name></trkpt>
        <trkpt lat="39.90631140768528" lon="3.037671446800232"><ele>0</ele><time>1970-01-01T00:00:00Z</time><name>WP 1286</name></trkpt>
        <trkpt lat="39.906166568398476" lon="3.037581592798233"><ele>0</ele><time>1970-01-01T00:00:00Z</time><name>WP 1287</name></trkpt>
        <trkpt lat="39.90600764751434" lon="3.037572205066681"><ele>0</ele><time>1970-01-01T00:00:00Z</time><name>WP 1288</name></trkpt>
        <trkpt lat="39.90589767694473" lon="3.0375896394252777"><ele>0</ele><time>1970-01-01T00:00:00Z</time><name>WP 1289</name></trkpt>
        <trkpt lat="39.90538068115711" lon="3.0378055572509766"><ele>0</ele><time>1970-01-01T00:00:00Z</time><name>WP 1290</name></trkpt>
        <trkpt lat="39.90523651242256" lon="3.037824332714081"><ele>0</ele><time>1970-01-01T00:00:00Z</time><name>WP 1291</name></trkpt>
        <trkpt lat="39.904932752251625" lon="3.037824332714081"><ele>0</ele><time>1970-01-01T00:00:00Z</time><name>WP 1292</name></trkpt>
        <trkpt lat="39.90482948720455" lon="3.0378055572509766"><ele>0</ele><time>1970-01-01T00:00:00Z</time><name>WP 1293</name></trkpt>
        <trkpt lat="39.90460887551308" lon="3.037698268890381"><ele>0</ele><time>1970-01-01T00:00:00Z</time><name>WP 1294</name></trkpt>
        <trkpt lat="39.90448482334614" lon="3.03759902715683"><ele>0</ele><time>1970-01-01T00:00:00Z</time><name>WP 1295</name></trkpt>
        <trkpt lat="39.90428499877453" lon="3.037392497062683"><ele>0</ele><time>1970-01-01T00:00:00Z</time><name>WP 1296</name></trkpt>
        <trkpt lat="39.90419581532478" lon="3.037302643060684"><ele>0</ele><time>1970-01-01T00:00:00Z</time><name>WP 1297</name></trkpt>
        <trkpt lat="39.903995990753174" lon="3.0371323227882385"><ele>0</ele><time>1970-01-01T00:00:00Z</time><name>WP 1298</name></trkpt>
        <trkpt lat="39.903830364346504" lon="3.0370156466960907"><ele>0</ele><time>1970-01-01T00:00:00Z</time><name>WP 1299</name></trkpt>
        <trkpt lat="39.90363724529743" lon="3.0369164049625397"><ele>0</ele><time>1970-01-01T00:00:00Z</time><name>WP 1300</name></trkpt>
        <trkpt lat="39.90340992808342" lon="3.036835938692093"><ele>0</ele><time>1970-01-01T00:00:00Z</time><name>WP 1301</name></trkpt>
        <trkpt lat="39.90265220403671" lon="3.036629408597946"><ele>0</ele><time>1970-01-01T00:00:00Z</time><name>WP 1302</name></trkpt>
        <trkpt lat="39.90256905555725" lon="3.036620020866394"><ele>0</ele><time>1970-01-01T00:00:00Z</time><name>WP 1303</name></trkpt>
        <trkpt lat="39.902362525463104" lon="3.036620020866394"><ele>0</ele><time>1970-01-01T00:00:00Z</time><name>WP 1304</name></trkpt>
        <trkpt lat="39.902238473296165" lon="3.036646842956543"><ele>0</ele><time>1970-01-01T00:00:00Z</time><name>WP 1305</name></trkpt>
        <trkpt lat="39.90178383886814" lon="3.0367903411388397"><ele>0</ele><time>1970-01-01T00:00:00Z</time><name>WP 1306</name></trkpt>
        <trkpt lat="39.9016597867012" lon="3.036799728870392"><ele>0</ele><time>1970-01-01T00:00:00Z</time><name>WP 1307</name></trkpt>
        <trkpt lat="39.90150824189186" lon="3.036772906780243"><ele>0</ele><time>1970-01-01T00:00:00Z</time><name>WP 1308</name></trkpt>
        <trkpt lat="39.90136340260506" lon="3.036719262599945"><ele>0</ele><time>1970-01-01T00:00:00Z</time><name>WP 1309</name></trkpt>
        <trkpt lat="39.901211857795715" lon="3.0366025865077972"><ele>0</ele><time>1970-01-01T00:00:00Z</time><name>WP 1310</name></trkpt>
        <trkpt lat="39.901122003793716" lon="3.0365127325057983"><ele>0</ele><time>1970-01-01T00:00:00Z</time><name>WP 1311</name></trkpt>
        <trkpt lat="39.900495037436485" lon="3.0356410145759583"><ele>0</ele><time>1970-01-01T00:00:00Z</time><name>WP 1312</name></trkpt>
        <trkpt lat="39.900019615888596" lon="3.035038858652115"><ele>0</ele><time>1970-01-01T00:00:00Z</time><name>WP 1313</name></trkpt>
        <trkpt lat="39.89997133612633" lon="3.034985214471817"><ele>0</ele><time>1970-01-01T00:00:00Z</time><name>WP 1314</name></trkpt>
        <trkpt lat="39.89980570971966" lon="3.034805506467819"><ele>0</ele><time>1970-01-01T00:00:00Z</time><name>WP 1315</name></trkpt>
        <trkpt lat="39.899626672267914" lon="3.0346620082855225"><ele>0</ele><time>1970-01-01T00:00:00Z</time><name>WP 1316</name></trkpt>
        <trkpt lat="39.89949591457844" lon="3.0345895886421204"><ele>0</ele><time>1970-01-01T00:00:00Z</time><name>WP 1317</name></trkpt>
        <trkpt lat="39.899351075291634" lon="3.0345627665519714"><ele>0</ele><time>1970-01-01T00:00:00Z</time><name>WP 1318</name></trkpt>
        <trkpt lat="39.899061396718025" lon="3.0345533788204193"><ele>0</ele><time>1970-01-01T00:00:00Z</time><name>WP 1319</name></trkpt>
        <trkpt lat="39.89879988133907" lon="3.034491688013077"><ele>0</ele><time>1970-01-01T00:00:00Z</time><name>WP 1320</name></trkpt>
        <trkpt lat="39.897910729050636" lon="3.034113496541977"><ele>0</ele><time>1970-01-01T00:00:00Z</time><name>WP 1321</name></trkpt>
        <trkpt lat="39.89764854311943" lon="3.033996820449829"><ele>0</ele><time>1970-01-01T00:00:00Z</time><name>WP 1322</name></trkpt>
        <trkpt lat="39.897076562047005" lon="3.0337728559970856"><ele>0</ele><time>1970-01-01T00:00:00Z</time><name>WP 1323</name></trkpt>
        <trkpt lat="39.89697329699993" lon="3.0337366461753845"><ele>0</ele><time>1970-01-01T00:00:00Z</time><name>WP 1324</name></trkpt>
        <trkpt lat="39.89670440554619" lon="3.033386617898941"><ele>0</ele><time>1970-01-01T00:00:00Z</time><name>WP 1325</name></trkpt>
        <trkpt lat="39.896477088332176" lon="3.03303524851799"><ele>0</ele><time>1970-01-01T00:00:00Z</time><name>WP 1326</name></trkpt>
        <trkpt lat="39.89638052880764" lon="3.0329185724258423"><ele>0</ele><time>1970-01-01T00:00:00Z</time><name>WP 1327</name></trkpt>
        <trkpt lat="39.89607743918896" lon="3.032568544149399"><ele>0</ele><time>1970-01-01T00:00:00Z</time><name>WP 1328</name></trkpt>
        <trkpt lat="39.89593930542469" lon="3.032371401786804"><ele>0</ele><time>1970-01-01T00:00:00Z</time><name>WP 1329</name></trkpt>
        <trkpt lat="39.89576697349548" lon="3.0321380496025085"><ele>0</ele><time>1970-01-01T00:00:00Z</time><name>WP 1330</name></trkpt>
        <trkpt lat="39.89567779004574" lon="3.0320200324058533"><ele>0</ele><time>1970-01-01T00:00:00Z</time><name>WP 1331</name></trkpt>
        <trkpt lat="39.89547796547413" lon="3.0317866802215576"><ele>0</ele><time>1970-01-01T00:00:00Z</time><name>WP 1332</name></trkpt>
        <trkpt lat="39.89538140594959" lon="3.031688779592514"><ele>0</ele><time>1970-01-01T00:00:00Z</time><name>WP 1333</name></trkpt>
        <trkpt lat="39.894891902804375" lon="3.0311670899391174"><ele>0</ele><time>1970-01-01T00:00:00Z</time><name>WP 1334</name></trkpt>
        <trkpt lat="39.89480942487717" lon="3.0310772359371185"><ele>0</ele><time>1970-01-01T00:00:00Z</time><name>WP 1335</name></trkpt>
        <trkpt lat="39.89440977573395" lon="3.030637353658676"><ele>0</ele><time>1970-01-01T00:00:00Z</time><name>WP 1336</name></trkpt>
        <trkpt lat="39.89379622042179" lon="3.030053973197937"><ele>0</ele><time>1970-01-01T00:00:00Z</time><name>WP 1337</name></trkpt>
        <trkpt lat="39.893609806895256" lon="3.029864877462387"><ele>0</ele><time>1970-01-01T00:00:00Z</time><name>WP 1338</name></trkpt>
        <trkpt lat="39.89338919520378" lon="3.0296583473682404"><ele>0</ele><time>1970-01-01T00:00:00Z</time><name>WP 1339</name></trkpt>
        <trkpt lat="39.89310018718243" lon="3.0293981730937958"><ele>0</ele><time>1970-01-01T00:00:00Z</time><name>WP 1340</name></trkpt>
        <trkpt lat="39.892783015966415" lon="3.0290736258029938"><ele>0</ele><time>1970-01-01T00:00:00Z</time><name>WP 1341</name></trkpt>
        <trkpt lat="39.8922036588192" lon="3.0287235975265503"><ele>0</ele><time>1970-01-01T00:00:00Z</time><name>WP 1342</name></trkpt>
        <trkpt lat="39.89192806184292" lon="3.028436601161957"><ele>0</ele><time>1970-01-01T00:00:00Z</time><name>WP 1343</name></trkpt>
        <trkpt lat="39.89167995750904" lon="3.02810400724411"><ele>0</ele><time>1970-01-01T00:00:00Z</time><name>WP 1344</name></trkpt>
        <trkpt lat="39.891439229249954" lon="3.0277901887893677"><ele>0</ele><time>1970-01-01T00:00:00Z</time><name>WP 1345</name></trkpt>
        <trkpt lat="39.891183748841286" lon="3.0274656414985657"><ele>0</ele><time>1970-01-01T00:00:00Z</time><name>WP 1346</name></trkpt>
        <trkpt lat="39.89081829786301" lon="3.0269895493984222"><ele>0</ele><time>1970-01-01T00:00:00Z</time><name>WP 1347</name></trkpt>
        <trkpt lat="39.890466928482056" lon="3.026522845029831"><ele>0</ele><time>1970-01-01T00:00:00Z</time><name>WP 1348</name></trkpt>
        <trkpt lat="39.890005588531494" lon="3.025813400745392"><ele>0</ele><time>1970-01-01T00:00:00Z</time><name>WP 1349</name></trkpt>
        <trkpt lat="39.88997742533684" lon="3.025750368833542"><ele>0</ele><time>1970-01-01T00:00:00Z</time><name>WP 1350</name></trkpt>
        <trkpt lat="39.889825880527496" lon="3.025417774915695"><ele>0</ele><time>1970-01-01T00:00:00Z</time><name>WP 1351</name></trkpt>
        <trkpt lat="39.889508709311485" lon="3.024771362543106"><ele>0</ele><time>1970-01-01T00:00:00Z</time><name>WP 1352</name></trkpt>
        <trkpt lat="39.889357164502144" lon="3.0244924128055573"><ele>0</ele><time>1970-01-01T00:00:00Z</time><name>WP 1353</name></trkpt>
        <trkpt lat="39.88913655281067" lon="3.0244387686252594"><ele>0</ele><time>1970-01-01T00:00:00Z</time><name>WP 1354</name></trkpt>
        <trkpt lat="39.88890253007412" lon="3.0243757367134094"><ele>0</ele><time>1970-01-01T00:00:00Z</time><name>WP 1355</name></trkpt>
        <trkpt lat="39.888799265027046" lon="3.0242590606212616"><ele>0</ele><time>1970-01-01T00:00:00Z</time><name>WP 1356</name></trkpt>
        <trkpt lat="39.88856457173824" lon="3.023989498615265"><ele>0</ele><time>1970-01-01T00:00:00Z</time><name>WP 1357</name></trkpt>
        <trkpt lat="39.887923523783684" lon="3.023226410150528"><ele>0</ele><time>1970-01-01T00:00:00Z</time><name>WP 1358</name></trkpt>
        <trkpt lat="39.88757215440273" lon="3.0227771401405334"><ele>0</ele><time>1970-01-01T00:00:00Z</time><name>WP 1359</name></trkpt>
        <trkpt lat="39.8874755948782" lon="3.0227597057819366"><ele>0</ele><time>1970-01-01T00:00:00Z</time><name>WP 1360</name></trkpt>
        <trkpt lat="39.88737903535366" lon="3.0227234959602356"><ele>0</ele><time>1970-01-01T00:00:00Z</time><name>WP 1361</name></trkpt>
        <trkpt lat="39.887206703424454" lon="3.0225344002246857"><ele>0</ele><time>1970-01-01T00:00:00Z</time><name>WP 1362</name></trkpt>
        <trkpt lat="39.88706924021244" lon="3.022381514310837"><ele>0</ele><time>1970-01-01T00:00:00Z</time><name>WP 1363</name></trkpt>
        <trkpt lat="39.88690361380577" lon="3.0222205817699432"><ele>0</ele><time>1970-01-01T00:00:00Z</time><name>WP 1364</name></trkpt>
        <trkpt lat="39.886455684900284" lon="3.0217713117599487"><ele>0</ele><time>1970-01-01T00:00:00Z</time><name>WP 1365</name></trkpt>
        <trkpt lat="39.88586291670799" lon="3.0212415754795074"><ele>0</ele><time>1970-01-01T00:00:00Z</time><name>WP 1366</name></trkpt>
        <trkpt lat="39.885407611727715" lon="3.0208365619182587"><ele>0</ele><time>1970-01-01T00:00:00Z</time><name>WP 1367</name></trkpt>
        <trkpt lat="39.88492548465729" lon="3.021285831928253"><ele>0</ele><time>1970-01-01T00:00:00Z</time><name>WP 1368</name></trkpt>
        <trkpt lat="39.88449767231941" lon="3.02168145775795"><ele>0</ele><time>1970-01-01T00:00:00Z</time><name>WP 1369</name></trkpt>
        <trkpt lat="39.884332716464996" lon="3.0211959779262543"><ele>0</ele><time>1970-01-01T00:00:00Z</time><name>WP 1370</name></trkpt>
        <trkpt lat="39.884215369820595" lon="3.0207373201847076"><ele>0</ele><time>1970-01-01T00:00:00Z</time><name>WP 1371</name></trkpt>
        <trkpt lat="39.88411881029606" lon="3.020630031824112"><ele>0</ele><time>1970-01-01T00:00:00Z</time><name>WP 1372</name></trkpt>
        <trkpt lat="39.88403633236885" lon="3.020603209733963"><ele>0</ele><time>1970-01-01T00:00:00Z</time><name>WP 1373</name></trkpt>
        <trkpt lat="39.883884117007256" lon="3.020756095647812"><ele>0</ele><time>1970-01-01T00:00:00Z</time><name>WP 1374</name></trkpt>
        <trkpt lat="39.88385662436485" lon="3.0207373201847076"><ele>0</ele><time>1970-01-01T00:00:00Z</time><name>WP 1375</name></trkpt>
        <trkpt lat="39.88379493355751" lon="3.020702451467514"><ele>0</ele><time>1970-01-01T00:00:00Z</time><name>WP 1376</name></trkpt>
        <trkpt lat="39.883774146437645" lon="3.020675629377365"><ele>0</ele><time>1970-01-01T00:00:00Z</time><name>WP 1377</name></trkpt>
        <trkpt lat="39.88351933658123" lon="3.0202344059944153"><ele>0</ele><time>1970-01-01T00:00:00Z</time><name>WP 1378</name></trkpt>
        <trkpt lat="39.88330543041229" lon="3.0199916660785675"><ele>0</ele><time>1970-01-01T00:00:00Z</time><name>WP 1379</name></trkpt>
        <trkpt lat="39.88295406103134" lon="3.019714057445526"><ele>0</ele><time>1970-01-01T00:00:00Z</time><name>WP 1380</name></trkpt>
        <trkpt lat="39.88274686038494" lon="3.019587993621826"><ele>0</ele><time>1970-01-01T00:00:00Z</time><name>WP 1381</name></trkpt>
        <trkpt lat="39.88240957260132" lon="3.0194176733493805"><ele>0</ele><time>1970-01-01T00:00:00Z</time><name>WP 1382</name></trkpt>
        <trkpt lat="39.88223724067211" lon="3.0194713175296783"><ele>0</ele><time>1970-01-01T00:00:00Z</time><name>WP 1383</name></trkpt>
        <trkpt lat="39.88207161426544" lon="3.019524961709976"><ele>0</ele><time>1970-01-01T00:00:00Z</time><name>WP 1384</name></trkpt>
        <trkpt lat="39.88199584186077" lon="3.0195343494415283"><ele>0</ele><time>1970-01-01T00:00:00Z</time><name>WP 1385</name></trkpt>
        <trkpt lat="39.88151304423809" lon="3.0192460119724274"><ele>0</ele><time>1970-01-01T00:00:00Z</time><name>WP 1386</name></trkpt>
        <trkpt lat="39.881182461977005" lon="3.018069863319397"><ele>0</ele><time>1970-01-01T00:00:00Z</time><name>WP 1387</name></trkpt>
        <trkpt lat="39.881051033735275" lon="3.0176031589508057"><ele>0</ele><time>1970-01-01T00:00:00Z</time><name>WP 1388</name></trkpt>
        <trkpt lat="39.880851209163666" lon="3.01686555147171"><ele>0</ele><time>1970-01-01T00:00:00Z</time><name>WP 1389</name></trkpt>
        <trkpt lat="39.880617186427116" lon="3.016030043363571"><ele>0</ele><time>1970-01-01T00:00:00Z</time><name>WP 1390</name></trkpt>
        <trkpt lat="39.88047234714031" lon="3.01550030708313"><ele>0</ele><time>1970-01-01T00:00:00Z</time><name>WP 1391</name></trkpt>
        <trkpt lat="39.87994126975536" lon="3.0158235132694244"><ele>0</ele><time>1970-01-01T00:00:00Z</time><name>WP 1392</name></trkpt>
        <trkpt lat="39.87976893782616" lon="3.0159857869148254"><ele>0</ele><time>1970-01-01T00:00:00Z</time><name>WP 1393</name></trkpt>
        <trkpt lat="39.87958990037441" lon="3.0160850286483765"><ele>0</ele><time>1970-01-01T00:00:00Z</time><name>WP 1394</name></trkpt>
        <trkpt lat="39.87955570220947" lon="3.016093075275421"><ele>0</ele><time>1970-01-01T00:00:00Z</time><name>WP 1395</name></trkpt>
        <trkpt lat="39.87947255373001" lon="3.016129285097122"><ele>0</ele><time>1970-01-01T00:00:00Z</time><name>WP 1396</name></trkpt>
        <trkpt lat="39.87935520708561" lon="3.0161386728286743"><ele>0</ele><time>1970-01-01T00:00:00Z</time><name>WP 1397</name></trkpt>
        <trkpt lat="39.87919025123119" lon="3.0160756409168243"><ele>0</ele><time>1970-01-01T00:00:00Z</time><name>WP 1398</name></trkpt>
        <trkpt lat="39.878990426659584" lon="3.0160219967365265"><ele>0</ele><time>1970-01-01T00:00:00Z</time><name>WP 1399</name></trkpt>
        <trkpt lat="39.87879730761051" lon="3.016030043363571"><ele>0</ele><time>1970-01-01T00:00:00Z</time><name>WP 1400</name></trkpt>
        <trkpt lat="39.878549203276634" lon="3.0158784985542297"><ele>0</ele><time>1970-01-01T00:00:00Z</time><name>WP 1401</name></trkpt>
        <trkpt lat="39.87840436398983" lon="3.0157430469989777"><ele>0</ele><time>1970-01-01T00:00:00Z</time><name>WP 1402</name></trkpt>
        <trkpt lat="39.87823203206062" lon="3.01556333899498"><ele>0</ele><time>1970-01-01T00:00:00Z</time><name>WP 1403</name></trkpt>
        <trkpt lat="39.87799063324928" lon="3.0158784985542297"><ele>0</ele><time>1970-01-01T00:00:00Z</time><name>WP 1404</name></trkpt>
        <trkpt lat="39.87792827188969" lon="3.0159589648246765"><ele>0</ele><time>1970-01-01T00:00:00Z</time><name>WP 1405</name></trkpt>
        <trkpt lat="39.87787328660488" lon="3.0158597230911255"><ele>0</ele><time>1970-01-01T00:00:00Z</time><name>WP 1406</name></trkpt>
        <trkpt lat="39.87782500684261" lon="3.01575243473053"><ele>0</ele><time>1970-01-01T00:00:00Z</time><name>WP 1407</name></trkpt>
        <trkpt lat="39.87767346203327" lon="3.015464097261429"><ele>0</ele><time>1970-01-01T00:00:00Z</time><name>WP 1408</name></trkpt>
        <trkpt lat="39.87754940986633" lon="3.0152857303619385"><ele>0</ele><time>1970-01-01T00:00:00Z</time><name>WP 1409</name></trkpt>
        <trkpt lat="39.877542704343796" lon="3.015293776988983"><ele>0</ele><time>1970-01-01T00:00:00Z</time><name>WP 1410</name></trkpt>
        <trkpt lat="39.877542704343796" lon="3.015293776988983"><ele>0</ele><time>1970-01-01T00:00:00Z</time><name>WP 1411</name></trkpt>
        <trkpt lat="39.877425357699394" lon="3.015492260456085"><ele>0</ele><time>1970-01-01T00:00:00Z</time><name>WP 1412</name></trkpt>
        <trkpt lat="39.87725302577019" lon="3.015671968460083"><ele>0</ele><time>1970-01-01T00:00:00Z</time><name>WP 1413</name></trkpt>
        <trkpt lat="39.877183958888054" lon="3.01575243473053"><ele>0</ele><time>1970-01-01T00:00:00Z</time><name>WP 1414</name></trkpt>
        <trkpt lat="39.87715646624565" lon="3.0157698690891266"><ele>0</ele><time>1970-01-01T00:00:00Z</time><name>WP 1415</name></trkpt>
        <trkpt lat="39.87699754536152" lon="3.0159133672714233"><ele>0</ele><time>1970-01-01T00:00:00Z</time><name>WP 1416</name></trkpt>
        <trkpt lat="39.87687349319458" lon="3.0159951746463776"><ele>0</ele><time>1970-01-01T00:00:00Z</time><name>WP 1417</name></trkpt>
        <trkpt lat="39.876784309744835" lon="3.0160394310951233"><ele>0</ele><time>1970-01-01T00:00:00Z</time><name>WP 1418</name></trkpt>
        <trkpt lat="39.876660257577896" lon="3.0161386728286743"><ele>0</ele><time>1970-01-01T00:00:00Z</time><name>WP 1419</name></trkpt>
        <trkpt lat="39.8765978962183" lon="3.01618292927742"><ele>0</ele><time>1970-01-01T00:00:00Z</time><name>WP 1420</name></trkpt>
        <trkpt lat="39.876501336693764" lon="3.0162647366523743"><ele>0</ele><time>1970-01-01T00:00:00Z</time><name>WP 1421</name></trkpt>
        <trkpt lat="39.876267313957214" lon="3.01637202501297"><ele>0</ele><time>1970-01-01T00:00:00Z</time><name>WP 1422</name></trkpt>
        <trkpt lat="39.876025915145874" lon="3.01643505692482"><ele>0</ele><time>1970-01-01T00:00:00Z</time><name>WP 1423</name></trkpt>
        <trkpt lat="39.875770434737206" lon="3.016461879014969"><ele>0</ele><time>1970-01-01T00:00:00Z</time><name>WP 1424</name></trkpt>
        <trkpt lat="39.87572953104973" lon="3.016488701105118"><ele>0</ele><time>1970-01-01T00:00:00Z</time><name>WP 1425</name></trkpt>
        <trkpt lat="39.8756255954504" lon="3.0165423452854156"><ele>0</ele><time>1970-01-01T00:00:00Z</time><name>WP 1426</name></trkpt>
        <trkpt lat="39.87548813223839" lon="3.0166684091091156"><ele>0</ele><time>1970-01-01T00:00:00Z</time><name>WP 1427</name></trkpt>
        <trkpt lat="39.875750318169594" lon="3.0176380276679993"><ele>0</ele><time>1970-01-01T00:00:00Z</time><name>WP 1428</name></trkpt>
        <trkpt lat="39.875618889927864" lon="3.0177734792232513"><ele>0</ele><time>1970-01-01T00:00:00Z</time><name>WP 1429</name></trkpt>
        <trkpt lat="39.875777810812" lon="3.018096685409546"><ele>0</ele><time>1970-01-01T00:00:00Z</time><name>WP 1430</name></trkpt>
        <trkpt lat="39.87595684826374" lon="3.0184386670589447"><ele>0</ele><time>1970-01-01T00:00:00Z</time><name>WP 1431</name></trkpt>
        <trkpt lat="39.87563297152519" lon="3.0192916095256805"><ele>0</ele><time>1970-01-01T00:00:00Z</time><name>WP 1432</name></trkpt>
        <trkpt lat="39.87599104642868" lon="3.0198749899864197"><ele>0</ele><time>1970-01-01T00:00:00Z</time><name>WP 1433</name></trkpt>
        <trkpt lat="39.87561218440533" lon="3.0201713740825653"><ele>0</ele><time>1970-01-01T00:00:00Z</time><name>WP 1434</name></trkpt>
        <trkpt lat="39.87561218440533" lon="3.020387291908264"><ele>0</ele><time>1970-01-01T00:00:00Z</time><name>WP 1435</name></trkpt>
        <trkpt lat="39.87563967704773" lon="3.020612597465515"><ele>0</ele><time>1970-01-01T00:00:00Z</time><name>WP 1436</name></trkpt>
        <trkpt lat="39.87566716969013" lon="3.0208097398281097"><ele>0</ele><time>1970-01-01T00:00:00Z</time><name>WP 1437</name></trkpt>
        <trkpt lat="39.87568795681" lon="3.020882159471512"><ele>0</ele><time>1970-01-01T00:00:00Z</time><name>WP 1438</name></trkpt>
        <trkpt lat="39.87568125128746" lon="3.0210699141025543"><ele>0</ele><time>1970-01-01T00:00:00Z</time><name>WP 1439</name></trkpt>
        <trkpt lat="39.875660464167595" lon="3.0211785435676575"><ele>0</ele><time>1970-01-01T00:00:00Z</time><name>WP 1440</name></trkpt>
        <trkpt lat="39.87563297152519" lon="3.0212053656578064"><ele>0</ele><time>1970-01-01T00:00:00Z</time><name>WP 1441</name></trkpt>
        <trkpt lat="39.87557731568813" lon="3.021285831928253"><ele>0</ele><time>1970-01-01T00:00:00Z</time><name>WP 1442</name></trkpt>
        <trkpt lat="39.87555719912052" lon="3.021348863840103"><ele>0</ele><time>1970-01-01T00:00:00Z</time><name>WP 1443</name></trkpt>
        <trkpt lat="39.87554982304573" lon="3.021419942378998"><ele>0</ele><time>1970-01-01T00:00:00Z</time><name>WP 1444</name></trkpt>
        <trkpt lat="39.87556390464306" lon="3.021537959575653"><ele>0</ele><time>1970-01-01T00:00:00Z</time><name>WP 1445</name></trkpt>
        <trkpt lat="39.87560547888279" lon="3.021627813577652"><ele>0</ele><time>1970-01-01T00:00:00Z</time><name>WP 1446</name></trkpt>
        <trkpt lat="39.875660464167595" lon="3.02168145775795"><ele>0</ele><time>1970-01-01T00:00:00Z</time><name>WP 1447</name></trkpt>
        <trkpt lat="39.87568125128746" lon="3.0216988921165466"><ele>0</ele><time>1970-01-01T00:00:00Z</time><name>WP 1448</name></trkpt>
        <trkpt lat="39.875818714499474" lon="3.02204892039299"><ele>0</ele><time>1970-01-01T00:00:00Z</time><name>WP 1449</name></trkpt>
        <trkpt lat="39.87586699426174" lon="3.02230104804039"><ele>0</ele><time>1970-01-01T00:00:00Z</time><name>WP 1450</name></trkpt>
        <trkpt lat="39.87596355378628" lon="3.023972064256668"><ele>0</ele><time>1970-01-01T00:00:00Z</time><name>WP 1451</name></trkpt>
        <trkpt lat="39.87596355378628" lon="3.024016320705414"><ele>0</ele><time>1970-01-01T00:00:00Z</time><name>WP 1452</name></trkpt>
        <trkpt lat="39.87599104642868" lon="3.0243046581745148"><ele>0</ele><time>1970-01-01T00:00:00Z</time><name>WP 1453</name></trkpt>
        <trkpt lat="39.87608760595322" lon="3.024788796901703"><ele>0</ele><time>1970-01-01T00:00:00Z</time><name>WP 1454</name></trkpt>
        <trkpt lat="39.87608760595322" lon="3.0250315368175507"><ele>0</ele><time>1970-01-01T00:00:00Z</time><name>WP 1455</name></trkpt>
        <trkpt lat="39.87607419490814" lon="3.0251039564609528"><ele>0</ele><time>1970-01-01T00:00:00Z</time><name>WP 1456</name></trkpt>
        <trkpt lat="39.8759226500988" lon="3.025597482919693"><ele>0</ele><time>1970-01-01T00:00:00Z</time><name>WP 1457</name></trkpt>
        <trkpt lat="39.875860288739204" lon="3.0258040130138397"><ele>0</ele><time>1970-01-01T00:00:00Z</time><name>WP 1458</name></trkpt>
        <trkpt lat="39.875860288739204" lon="3.0261366069316864"><ele>0</ele><time>1970-01-01T00:00:00Z</time><name>WP 1459</name></trkpt>
        <trkpt lat="39.8759226500988" lon="3.02642360329628"><ele>0</ele><time>1970-01-01T00:00:00Z</time><name>WP 1460</name></trkpt>
        <trkpt lat="39.8759226500988" lon="3.0267025530338287"><ele>0</ele><time>1970-01-01T00:00:00Z</time><name>WP 1461</name></trkpt>
        <trkpt lat="39.8759226500988" lon="3.026748150587082"><ele>0</ele><time>1970-01-01T00:00:00Z</time><name>WP 1462</name></trkpt>
        <trkpt lat="39.87605340778828" lon="3.027493804693222"><ele>0</ele><time>1970-01-01T00:00:00Z</time><name>WP 1463</name></trkpt>
        <trkpt lat="39.87606681883335" lon="3.0276185274124146"><ele>0</ele><time>1970-01-01T00:00:00Z</time><name>WP 1464</name></trkpt>
        <trkpt lat="39.87616337835789" lon="3.0283373594284058"><ele>0</ele><time>1970-01-01T00:00:00Z</time><name>WP 1465</name></trkpt>
        <trkpt lat="39.87617075443268" lon="3.029172867536545"><ele>0</ele><time>1970-01-01T00:00:00Z</time><name>WP 1466</name></trkpt>
        <trkpt lat="39.876301512122154" lon="3.0302873253822327"><ele>0</ele><time>1970-01-01T00:00:00Z</time><name>WP 1467</name></trkpt>
        <trkpt lat="39.876418858766556" lon="3.0310866236686707"><ele>0</ele><time>1970-01-01T00:00:00Z</time><name>WP 1468</name></trkpt>
        <trkpt lat="39.87661197781563" lon="3.031625747680664"><ele>0</ele><time>1970-01-01T00:00:00Z</time><name>WP 1469</name></trkpt>
        <trkpt lat="39.87663209438324" lon="3.0317960679531097"><ele>0</ele><time>1970-01-01T00:00:00Z</time><name>WP 1470</name></trkpt>
        <trkpt lat="39.87660460174084" lon="3.0320200324058533"><ele>0</ele><time>1970-01-01T00:00:00Z</time><name>WP 1471</name></trkpt>
        <trkpt lat="39.8765704035759" lon="3.0322547256946564"><ele>0</ele><time>1970-01-01T00:00:00Z</time><name>WP 1472</name></trkpt>
        <trkpt lat="39.87652212381363" lon="3.0324076116085052"><ele>0</ele><time>1970-01-01T00:00:00Z</time><name>WP 1473</name></trkpt>
        <trkpt lat="39.876411482691765" lon="3.0326047539711"><ele>0</ele><time>1970-01-01T00:00:00Z</time><name>WP 1474</name></trkpt>
        <trkpt lat="39.87630821764469" lon="3.0327214300632477"><ele>0</ele><time>1970-01-01T00:00:00Z</time><name>WP 1475</name></trkpt>
        <trkpt lat="39.87624652683735" lon="3.0328743159770966"><ele>0</ele><time>1970-01-01T00:00:00Z</time><name>WP 1476</name></trkpt>
        <trkpt lat="39.87619824707508" lon="3.0330808460712433"><ele>0</ele><time>1970-01-01T00:00:00Z</time><name>WP 1477</name></trkpt>
        <trkpt lat="39.87614996731281" lon="3.0333946645259857"><ele>0</ele><time>1970-01-01T00:00:00Z</time><name>WP 1478</name></trkpt>
        <trkpt lat="39.876143261790276" lon="3.0335569381713867"><ele>0</ele><time>1970-01-01T00:00:00Z</time><name>WP 1479</name></trkpt>
        <trkpt lat="39.87616337835789" lon="3.0337178707122803"><ele>0</ele><time>1970-01-01T00:00:00Z</time><name>WP 1480</name></trkpt>
        <trkpt lat="39.87631559371948" lon="3.0343736708164215"><ele>0</ele><time>1970-01-01T00:00:00Z</time><name>WP 1481</name></trkpt>
        <trkpt lat="39.876418858766556" lon="3.034931570291519"><ele>0</ele><time>1970-01-01T00:00:00Z</time><name>WP 1482</name></trkpt>
        <trkpt lat="39.87647384405136" lon="3.0353258550167084"><ele>0</ele><time>1970-01-01T00:00:00Z</time><name>WP 1483</name></trkpt>
        <trkpt lat="39.876501336693764" lon="3.0354706943035126"><ele>0</ele><time>1970-01-01T00:00:00Z</time><name>WP 1484</name></trkpt>
        <trkpt lat="39.876501336693764" lon="3.0356235802173615"><ele>0</ele><time>1970-01-01T00:00:00Z</time><name>WP 1485</name></trkpt>
        <trkpt lat="39.8764805495739" lon="3.035767078399658"><ele>0</ele><time>1970-01-01T00:00:00Z</time><name>WP 1486</name></trkpt>
        <trkpt lat="39.876453056931496" lon="3.035901188850403"><ele>0</ele><time>1970-01-01T00:00:00Z</time><name>WP 1487</name></trkpt>
        <trkpt lat="39.876101687550545" lon="3.0370786786079407"><ele>0</ele><time>1970-01-01T00:00:00Z</time><name>WP 1488</name></trkpt>
        <trkpt lat="39.876060113310814" lon="3.0373482406139374"><ele>0</ele><time>1970-01-01T00:00:00Z</time><name>WP 1489</name></trkpt>
        <trkpt lat="39.87598434090614" lon="3.0380482971668243"><ele>0</ele><time>1970-01-01T00:00:00Z</time><name>WP 1490</name></trkpt>
        <trkpt lat="39.87597092986107" lon="3.038128763437271"><ele>0</ele><time>1970-01-01T00:00:00Z</time><name>WP 1491</name></trkpt>
        <trkpt lat="39.875936061143875" lon="3.03834468126297"><ele>0</ele><time>1970-01-01T00:00:00Z</time><name>WP 1492</name></trkpt>
        <trkpt lat="39.875784516334534" lon="3.039117157459259"><ele>0</ele><time>1970-01-01T00:00:00Z</time><name>WP 1493</name></trkpt>
        <trkpt lat="39.87572953104973" lon="3.03934246301651"><ele>0</ele><time>1970-01-01T00:00:00Z</time><name>WP 1494</name></trkpt>
        <trkpt lat="39.875660464167595" lon="3.039495348930359"><ele>0</ele><time>1970-01-01T00:00:00Z</time><name>WP 1495</name></trkpt>
        <trkpt lat="39.87472973763943" lon="3.0404649674892426"><ele>0</ele><time>1970-01-01T00:00:00Z</time><name>WP 1496</name></trkpt>
        <trkpt lat="39.874660670757294" lon="3.0405910313129425"><ele>0</ele><time>1970-01-01T00:00:00Z</time><name>WP 1497</name></trkpt>
        <trkpt lat="39.87464725971222" lon="3.0407077074050903"><ele>0</ele><time>1970-01-01T00:00:00Z</time><name>WP 1498</name></trkpt>
        <trkpt lat="39.87478472292423" lon="3.0413809418678284"><ele>0</ele><time>1970-01-01T00:00:00Z</time><name>WP 1499</name></trkpt>
        <trkpt lat="39.8748055100441" lon="3.041614294052124"><ele>0</ele><time>1970-01-01T00:00:00Z</time><name>WP 1500</name></trkpt>
        <trkpt lat="39.874812215566635" lon="3.041812777519226"><ele>0</ele><time>1970-01-01T00:00:00Z</time><name>WP 1501</name></trkpt>
        <trkpt lat="39.874778017401695" lon="3.0420903861522675"><ele>0</ele><time>1970-01-01T00:00:00Z</time><name>WP 1502</name></trkpt>
        <trkpt lat="39.87472303211689" lon="3.0422794818878174"><ele>0</ele><time>1970-01-01T00:00:00Z</time><name>WP 1503</name></trkpt>
        <trkpt lat="39.87464725971222" lon="3.0424323678016663"><ele>0</ele><time>1970-01-01T00:00:00Z</time><name>WP 1504</name></trkpt>
        <trkpt lat="39.87448833882809" lon="3.042692542076111"><ele>0</ele><time>1970-01-01T00:00:00Z</time><name>WP 1505</name></trkpt>
        <trkpt lat="39.874446764588356" lon="3.042764961719513"><ele>0</ele><time>1970-01-01T00:00:00Z</time><name>WP 1506</name></trkpt>
        <trkpt lat="39.87420603632927" lon="3.0431780219078064"><ele>0</ele><time>1970-01-01T00:00:00Z</time><name>WP 1507</name></trkpt>
        <trkpt lat="39.87384729087353" lon="3.0438069999217987"><ele>0</ele><time>1970-01-01T00:00:00Z</time><name>WP 1508</name></trkpt>
        <trkpt lat="39.87366825342178" lon="3.0446505546569824"><ele>0</ele><time>1970-01-01T00:00:00Z</time><name>WP 1509</name></trkpt>
        <trkpt lat="39.873544201254845" lon="3.045189678668976"><ele>0</ele><time>1970-01-01T00:00:00Z</time><name>WP 1510</name></trkpt>
        <trkpt lat="39.87348183989525" lon="3.0454686284065247"><ele>0</ele><time>1970-01-01T00:00:00Z</time><name>WP 1511</name></trkpt>
        <trkpt lat="39.873412773013115" lon="3.0457381904125214"><ele>0</ele><time>1970-01-01T00:00:00Z</time><name>WP 1512</name></trkpt>
        <trkpt lat="39.87332358956337" lon="3.0466903746128082"><ele>0</ele><time>1970-01-01T00:00:00Z</time><name>WP 1513</name></trkpt>
        <trkpt lat="39.873227030038834" lon="3.0471839010715485"><ele>0</ele><time>1970-01-01T00:00:00Z</time><name>WP 1514</name></trkpt>
        <trkpt lat="39.8730681091547" lon="3.047795444726944"><ele>0</ele><time>1970-01-01T00:00:00Z</time><name>WP 1515</name></trkpt>
        <trkpt lat="39.87303391098976" lon="3.0482178926467896"><ele>0</ele><time>1970-01-01T00:00:00Z</time><name>WP 1516</name></trkpt>
        <trkpt lat="39.87282671034336" lon="3.048810660839081"><ele>0</ele><time>1970-01-01T00:00:00Z</time><name>WP 1517</name></trkpt>
        <trkpt lat="39.872805923223495" lon="3.0488817393779755"><ele>0</ele><time>1970-01-01T00:00:00Z</time><name>WP 1518</name></trkpt>
        <trkpt lat="39.872737526893616" lon="3.0492237210273743"><ele>0</ele><time>1970-01-01T00:00:00Z</time><name>WP 1519</name></trkpt>
        <trkpt lat="39.87274423241615" lon="3.049294799566269"><ele>0</ele><time>1970-01-01T00:00:00Z</time><name>WP 1520</name></trkpt>
        <trkpt lat="39.872771725058556" lon="3.0496810376644135"><ele>0</ele><time>1970-01-01T00:00:00Z</time><name>WP 1521</name></trkpt>
        <trkpt lat="39.87279921770096" lon="3.0498607456684113"><ele>0</ele><time>1970-01-01T00:00:00Z</time><name>WP 1522</name></trkpt>
        <trkpt lat="39.87282671034336" lon="3.050103485584259"><ele>0</ele><time>1970-01-01T00:00:00Z</time><name>WP 1523</name></trkpt>
        <trkpt lat="39.87285420298576" lon="3.0503100156784058"><ele>0</ele><time>1970-01-01T00:00:00Z</time><name>WP 1524</name></trkpt>
        <trkpt lat="39.87296484410763" lon="3.050786107778549"><ele>0</ele><time>1970-01-01T00:00:00Z</time><name>WP 1525</name></trkpt>
        <trkpt lat="39.87308219075203" lon="3.0515773594379425"><ele>0</ele><time>1970-01-01T00:00:00Z</time><name>WP 1526</name></trkpt>
        <trkpt lat="39.87310968339443" lon="3.0517302453517914"><ele>0</ele><time>1970-01-01T00:00:00Z</time><name>WP 1527</name></trkpt>
        <trkpt lat="39.873227030038834" lon="3.052636831998825"><ele>0</ele><time>1970-01-01T00:00:00Z</time><name>WP 1528</name></trkpt>
        <trkpt lat="39.87323373556137" lon="3.052709251642227"><ele>0</ele><time>1970-01-01T00:00:00Z</time><name>WP 1529</name></trkpt>
        <trkpt lat="39.87329542636871" lon="3.0533288419246674"><ele>0</ele><time>1970-01-01T00:00:00Z</time><name>WP 1530</name></trkpt>
        <trkpt lat="39.873302802443504" lon="3.0534012615680695"><ele>0</ele><time>1970-01-01T00:00:00Z</time><name>WP 1531</name></trkpt>
        <trkpt lat="39.873371198773384" lon="3.0540651082992554"><ele>0</ele><time>1970-01-01T00:00:00Z</time><name>WP 1532</name></trkpt>
        <trkpt lat="39.87344764173031" lon="3.0547571182250977"><ele>0</ele><time>1970-01-01T00:00:00Z</time><name>WP 1533</name></trkpt>
        <trkpt lat="39.87352341413498" lon="3.0549368262290955"><ele>0</ele><time>1970-01-01T00:00:00Z</time><name>WP 1534</name></trkpt>
        <trkpt lat="39.87360589206219" lon="3.05507093667984"><ele>0</ele><time>1970-01-01T00:00:00Z</time><name>WP 1535</name></trkpt>
        <trkpt lat="39.87376481294632" lon="3.0552157759666443"><ele>0</ele><time>1970-01-01T00:00:00Z</time><name>WP 1536</name></trkpt>
        <trkpt lat="39.87386807799339" lon="3.055359274148941"><ele>0</ele><time>1970-01-01T00:00:00Z</time><name>WP 1537</name></trkpt>
        <trkpt lat="39.874053820967674" lon="3.0557267367839813"><ele>0</ele><time>1970-01-01T00:00:00Z</time><name>WP 1538</name></trkpt>
        <trkpt lat="39.87408868968487" lon="3.0558085441589355"><ele>0</ele><time>1970-01-01T00:00:00Z</time><name>WP 1539</name></trkpt>
        <trkpt lat="39.874129593372345" lon="3.0559158325195312"><ele>0</ele><time>1970-01-01T00:00:00Z</time><name>WP 1540</name></trkpt>
        <trkpt lat="39.874157756567" lon="3.056086152791977"><ele>0</ele><time>1970-01-01T00:00:00Z</time><name>WP 1541</name></trkpt>
        <trkpt lat="39.87414367496967" lon="3.0565810203552246"><ele>0</ele><time>1970-01-01T00:00:00Z</time><name>WP 1542</name></trkpt>
        <trkpt lat="39.87416446208954" lon="3.056678920984268"><ele>0</ele><time>1970-01-01T00:00:00Z</time><name>WP 1543</name></trkpt>
        <trkpt lat="39.874219447374344" lon="3.056931048631668"><ele>0</ele><time>1970-01-01T00:00:00Z</time><name>WP 1544</name></trkpt>
        <trkpt lat="39.87422615289688" lon="3.057137578725815"><ele>0</ele><time>1970-01-01T00:00:00Z</time><name>WP 1545</name></trkpt>
        <trkpt lat="39.87414367496967" lon="3.0575506389141083"><ele>0</ele><time>1970-01-01T00:00:00Z</time><name>WP 1546</name></trkpt>
        <trkpt lat="39.87414367496967" lon="3.0576136708259583"><ele>0</ele><time>1970-01-01T00:00:00Z</time><name>WP 1547</name></trkpt>
        <trkpt lat="39.874157756567" lon="3.0582158267498016"><ele>0</ele><time>1970-01-01T00:00:00Z</time><name>WP 1548</name></trkpt>
        <trkpt lat="39.874136969447136" lon="3.058817982673645"><ele>0</ele><time>1970-01-01T00:00:00Z</time><name>WP 1549</name></trkpt>
        <trkpt lat="39.87408868968487" lon="3.0591318011283875"><ele>0</ele><time>1970-01-01T00:00:00Z</time><name>WP 1550</name></trkpt>
        <trkpt lat="39.874053820967674" lon="3.059355765581131"><ele>0</ele><time>1970-01-01T00:00:00Z</time><name>WP 1551</name></trkpt>
        <trkpt lat="39.873937144875526" lon="3.0600397288799286"><ele>0</ele><time>1970-01-01T00:00:00Z</time><name>WP 1552</name></trkpt>
        <trkpt lat="39.87388148903847" lon="3.0608926713466644"><ele>0</ele><time>1970-01-01T00:00:00Z</time><name>WP 1553</name></trkpt>
        <trkpt lat="39.87378492951393" lon="3.061179667711258"><ele>0</ele><time>1970-01-01T00:00:00Z</time><name>WP 1554</name></trkpt>
        <trkpt lat="39.87357169389725" lon="3.0617013573646545"><ele>0</ele><time>1970-01-01T00:00:00Z</time><name>WP 1555</name></trkpt>
        <trkpt lat="39.873212948441505" lon="3.061862289905548"><ele>0</ele><time>1970-01-01T00:00:00Z</time><name>WP 1556</name></trkpt>
        <trkpt lat="39.87310968339443" lon="3.0619078874588013"><ele>0</ele><time>1970-01-01T00:00:00Z</time><name>WP 1557</name></trkpt>
        <trkpt lat="39.8729232698679" lon="3.0625449120998383"><ele>0</ele><time>1970-01-01T00:00:00Z</time><name>WP 1558</name></trkpt>
        <trkpt lat="39.872620180249214" lon="3.0635789036750793"><ele>0</ele><time>1970-01-01T00:00:00Z</time><name>WP 1559</name></trkpt>
        <trkpt lat="39.87248204648495" lon="3.0640630424022675"><ele>0</ele><time>1970-01-01T00:00:00Z</time><name>WP 1560</name></trkpt>
        <trkpt lat="39.872330501675606" lon="3.064395636320114"><ele>0</ele><time>1970-01-01T00:00:00Z</time><name>WP 1561</name></trkpt>
        <trkpt lat="39.87206161022186" lon="3.0648811161518097"><ele>0</ele><time>1970-01-01T00:00:00Z</time><name>WP 1562</name></trkpt>
        <trkpt lat="39.87174443900585" lon="3.0653035640716553"><ele>0</ele><time>1970-01-01T00:00:00Z</time><name>WP 1563</name></trkpt>
        <trkpt lat="39.87165458500385" lon="3.065393418073654"><ele>0</ele><time>1970-01-01T00:00:00Z</time><name>WP 1564</name></trkpt>
        <trkpt lat="39.87128242850304" lon="3.0657434463500977"><ele>0</ele><time>1970-01-01T00:00:00Z</time><name>WP 1565</name></trkpt>
        <trkpt lat="39.871130883693695" lon="3.0659499764442444"><ele>0</ele><time>1970-01-01T00:00:00Z</time><name>WP 1566</name></trkpt>
        <trkpt lat="39.871130883693695" lon="3.066147118806839"><ele>0</ele><time>1970-01-01T00:00:00Z</time><name>WP 1567</name></trkpt>
        <trkpt lat="39.87112417817116" lon="3.0663536489009857"><ele>0</ele><time>1970-01-01T00:00:00Z</time><name>WP 1568</name></trkpt>
        <trkpt lat="39.87106181681156" lon="3.0667412281036377"><ele>0</ele><time>1970-01-01T00:00:00Z</time><name>WP 1569</name></trkpt>
        <trkpt lat="39.87115167081356" lon="3.0670014023780823"><ele>0</ele><time>1970-01-01T00:00:00Z</time><name>WP 1570</name></trkpt>
        <trkpt lat="39.871254935860634" lon="3.0673514306545258"><ele>0</ele><time>1970-01-01T00:00:00Z</time><name>WP 1571</name></trkpt>
        <trkpt lat="39.8713655769825" lon="3.0678369104862213"><ele>0</ele><time>1970-01-01T00:00:00Z</time><name>WP 1572</name></trkpt>
        <trkpt lat="39.871413856744766" lon="3.0682311952114105"><ele>0</ele><time>1970-01-01T00:00:00Z</time><name>WP 1573</name></trkpt>
        <trkpt lat="39.87142726778984" lon="3.0685825645923615"><ele>0</ele><time>1970-01-01T00:00:00Z</time><name>WP 1574</name></trkpt>
        <trkpt lat="39.8713930696249" lon="3.068932592868805"><ele>0</ele><time>1970-01-01T00:00:00Z</time><name>WP 1575</name></trkpt>
        <trkpt lat="39.8713655769825" lon="3.069058656692505"><ele>0</ele><time>1970-01-01T00:00:00Z</time><name>WP 1576</name></trkpt>
        <trkpt lat="39.871055111289024" lon="3.0698123574256897"><ele>0</ele><time>1970-01-01T00:00:00Z</time><name>WP 1577</name></trkpt>
        <trkpt lat="39.87088277935982" lon="3.0701181292533875"><ele>0</ele><time>1970-01-01T00:00:00Z</time><name>WP 1578</name></trkpt>
        <trkpt lat="39.87080700695515" lon="3.0702535808086395"><ele>0</ele><time>1970-01-01T00:00:00Z</time><name>WP 1579</name></trkpt>
        <trkpt lat="39.87078621983528" lon="3.0703434348106384"><ele>0</ele><time>1970-01-01T00:00:00Z</time><name>WP 1580</name></trkpt>
        <trkpt lat="39.87075135111809" lon="3.070783317089081"><ele>0</ele><time>1970-01-01T00:00:00Z</time><name>WP 1581</name></trkpt>
        <trkpt lat="39.87060718238354" lon="3.0711333453655243"><ele>0</ele><time>1970-01-01T00:00:00Z</time><name>WP 1582</name></trkpt>
        <trkpt lat="39.870420768857" lon="3.07142972946167"><ele>0</ele><time>1970-01-01T00:00:00Z</time><name>WP 1583</name></trkpt>
        <trkpt lat="39.870172664523125" lon="3.0717167258262634"><ele>0</ele><time>1970-01-01T00:00:00Z</time><name>WP 1584</name></trkpt>
        <trkpt lat="39.86998625099659" lon="3.0718427896499634"><ele>0</ele><time>1970-01-01T00:00:00Z</time><name>WP 1585</name></trkpt>
        <trkpt lat="39.869807213544846" lon="3.0719152092933655"><ele>0</ele><time>1970-01-01T00:00:00Z</time><name>WP 1586</name></trkpt>
        <trkpt lat="39.86957989633083" lon="3.0720050632953644"><ele>0</ele><time>1970-01-01T00:00:00Z</time><name>WP 1587</name></trkpt>
        <trkpt lat="39.86942768096924" lon="3.0721579492092133"><ele>0</ele><time>1970-01-01T00:00:00Z</time><name>WP 1588</name></trkpt>
        <trkpt lat="39.86925534904003" lon="3.0724449455738068"><ele>0</ele><time>1970-01-01T00:00:00Z</time><name>WP 1589</name></trkpt>
        <trkpt lat="39.86907631158829" lon="3.072848618030548"><ele>0</ele><time>1970-01-01T00:00:00Z</time><name>WP 1590</name></trkpt>
        <trkpt lat="39.86905552446842" lon="3.0729036033153534"><ele>0</ele><time>1970-01-01T00:00:00Z</time><name>WP 1591</name></trkpt>
        <trkpt lat="39.868883192539215" lon="3.073263019323349"><ele>0</ele><time>1970-01-01T00:00:00Z</time><name>WP 1592</name></trkpt>
        <trkpt lat="39.86870415508747" lon="3.073900043964386"><ele>0</ele><time>1970-01-01T00:00:00Z</time><name>WP 1593</name></trkpt>
        <trkpt lat="39.86863508820534" lon="3.0740073323249817"><ele>0</ele><time>1970-01-01T00:00:00Z</time><name>WP 1594</name></trkpt>
        <trkpt lat="39.86837290227413" lon="3.074555844068527"><ele>0</ele><time>1970-01-01T00:00:00Z</time><name>WP 1595</name></trkpt>
        <trkpt lat="39.86829712986946" lon="3.0746014416217804"><ele>0</ele><time>1970-01-01T00:00:00Z</time><name>WP 1596</name></trkpt>
        <trkpt lat="39.86822806298733" lon="3.0746014416217804"><ele>0</ele><time>1970-01-01T00:00:00Z</time><name>WP 1597</name></trkpt>
        <trkpt lat="39.86780762672424" lon="3.074215203523636"><ele>0</ele><time>1970-01-01T00:00:00Z</time><name>WP 1598</name></trkpt>
        <trkpt lat="39.86754544079304" lon="3.073900043964386"><ele>0</ele><time>1970-01-01T00:00:00Z</time><name>WP 1599</name></trkpt>
        <trkpt lat="39.86726984381676" lon="3.0737391114234924"><ele>0</ele><time>1970-01-01T00:00:00Z</time><name>WP 1600</name></trkpt>
        <trkpt lat="39.86724905669689" lon="3.073720335960388"><ele>0</ele><time>1970-01-01T00:00:00Z</time><name>WP 1601</name></trkpt>
        <trkpt lat="39.866759553551674" lon="3.0734333395957947"><ele>0</ele><time>1970-01-01T00:00:00Z</time><name>WP 1602</name></trkpt>
        <trkpt lat="39.86598037183285" lon="3.0729840695858"><ele>0</ele><time>1970-01-01T00:00:00Z</time><name>WP 1603</name></trkpt>
        <trkpt lat="39.865711480379105" lon="3.072821795940399"><ele>0</ele><time>1970-01-01T00:00:00Z</time><name>WP 1604</name></trkpt>
        <trkpt lat="39.865360110998154" lon="3.0727775394916534"><ele>0</ele><time>1970-01-01T00:00:00Z</time><name>WP 1605</name></trkpt>
        <trkpt lat="39.865311831235886" lon="3.072758764028549"><ele>0</ele><time>1970-01-01T00:00:00Z</time><name>WP 1606</name></trkpt>
        <trkpt lat="39.86525684595108" lon="3.0727238953113556"><ele>0</ele><time>1970-01-01T00:00:00Z</time><name>WP 1607</name></trkpt>
        <trkpt lat="39.865112006664276" lon="3.0726246535778046"><ele>0</ele><time>1970-01-01T00:00:00Z</time><name>WP 1608</name></trkpt>
        <trkpt lat="39.8648015409708" lon="3.07223841547966"><ele>0</ele><time>1970-01-01T00:00:00Z</time><name>WP 1609</name></trkpt>
        <trkpt lat="39.86475996673107" lon="3.0722826719284058"><ele>0</ele><time>1970-01-01T00:00:00Z</time><name>WP 1610</name></trkpt>
        <trkpt lat="39.86475996673107" lon="3.0722826719284058"><ele>0</ele><time>1970-01-01T00:00:00Z</time><name>WP 1611</name></trkpt>
        <trkpt lat="39.864429384469986" lon="3.0726782977581024"><ele>0</ele><time>1970-01-01T00:00:00Z</time><name>WP 1612</name></trkpt>
        <trkpt lat="39.864263758063316" lon="3.072821795940399"><ele>0</ele><time>1970-01-01T00:00:00Z</time><name>WP 1613</name></trkpt>
        <trkpt lat="39.86406393349171" lon="3.072965294122696"><ele>0</ele><time>1970-01-01T00:00:00Z</time><name>WP 1614</name></trkpt>
        <trkpt lat="39.86395999789238" lon="3.073083311319351"><ele>0</ele><time>1970-01-01T00:00:00Z</time><name>WP 1615</name></trkpt>
        <trkpt lat="39.86372597515583" lon="3.0735862255096436"><ele>0</ele><time>1970-01-01T00:00:00Z</time><name>WP 1616</name></trkpt>
        <trkpt lat="39.86353285610676" lon="3.073963075876236"><ele>0</ele><time>1970-01-01T00:00:00Z</time><name>WP 1617</name></trkpt>
        <trkpt lat="39.86349128186703" lon="3.074062317609787"><ele>0</ele><time>1970-01-01T00:00:00Z</time><name>WP 1618</name></trkpt>
        <trkpt lat="39.86344300210476" lon="3.0741333961486816"><ele>0</ele><time>1970-01-01T00:00:00Z</time><name>WP 1619</name></trkpt>
        <trkpt lat="39.863188192248344" lon="3.0744391679763794"><ele>0</ele><time>1970-01-01T00:00:00Z</time><name>WP 1620</name></trkpt>
        <trkpt lat="39.863146618008614" lon="3.074483424425125"><ele>0</ele><time>1970-01-01T00:00:00Z</time><name>WP 1621</name></trkpt>
        <trkpt lat="39.86210525035858" lon="3.075588494539261"><ele>0</ele><time>1970-01-01T00:00:00Z</time><name>WP 1622</name></trkpt>
        <trkpt lat="39.86183635890484" lon="3.0758942663669586"><ele>0</ele><time>1970-01-01T00:00:00Z</time><name>WP 1623</name></trkpt>
        <trkpt lat="39.85925070941448" lon="3.0783551931381226"><ele>0</ele><time>1970-01-01T00:00:00Z</time><name>WP 1624</name></trkpt>
        <trkpt lat="39.85810607671738" lon="3.0794428288936615"><ele>0</ele><time>1970-01-01T00:00:00Z</time><name>WP 1625</name></trkpt>
        <trkpt lat="39.85769234597683" lon="3.0796949565410614"><ele>0</ele><time>1970-01-01T00:00:00Z</time><name>WP 1626</name></trkpt>
        <trkpt lat="39.85748514533043" lon="3.0798733234405518"><ele>0</ele><time>1970-01-01T00:00:00Z</time><name>WP 1627</name></trkpt>
        <trkpt lat="39.85736779868603" lon="3.0800262093544006"><ele>0</ele><time>1970-01-01T00:00:00Z</time><name>WP 1628</name></trkpt>
        <trkpt lat="39.85713377594948" lon="3.0803145468235016"><ele>0</ele><time>1970-01-01T00:00:00Z</time><name>WP 1629</name></trkpt>
        <trkpt lat="39.857023134827614" lon="3.080412447452545"><ele>0</ele><time>1970-01-01T00:00:00Z</time><name>WP 1630</name></trkpt>
        <trkpt lat="39.85687829554081" lon="3.080565333366394"><ele>0</ele><time>1970-01-01T00:00:00Z</time><name>WP 1631</name></trkpt>
        <trkpt lat="39.85652692615986" lon="3.080880492925644"><ele>0</ele><time>1970-01-01T00:00:00Z</time><name>WP 1632</name></trkpt>
        <trkpt lat="39.85616818070412" lon="3.081310987472534"><ele>0</ele><time>1970-01-01T00:00:00Z</time><name>WP 1633</name></trkpt>
        <trkpt lat="39.85611990094185" lon="3.081364631652832"><ele>0</ele><time>1970-01-01T00:00:00Z</time><name>WP 1634</name></trkpt>
        <trkpt lat="39.85540308058262" lon="3.0820298194885254"><ele>0</ele><time>1970-01-01T00:00:00Z</time><name>WP 1635</name></trkpt>
        <trkpt lat="39.85499605536461" lon="3.0824965238571167"><ele>0</ele><time>1970-01-01T00:00:00Z</time><name>WP 1636</name></trkpt>
        <trkpt lat="39.85486462712288" lon="3.0826319754123688"><ele>0</ele><time>1970-01-01T00:00:00Z</time><name>WP 1637</name></trkpt>
        <trkpt lat="39.8546788841486" lon="3.0827848613262177"><ele>0</ele><time>1970-01-01T00:00:00Z</time><name>WP 1638</name></trkpt>
        <trkpt lat="39.85455483198166" lon="3.0828385055065155"><ele>0</ele><time>1970-01-01T00:00:00Z</time><name>WP 1639</name></trkpt>
        <trkpt lat="39.8543818295002" lon="3.0828921496868134"><ele>0</ele><time>1970-01-01T00:00:00Z</time><name>WP 1640</name></trkpt>
        <trkpt lat="39.85420949757099" lon="3.0829913914203644"><ele>0</ele><time>1970-01-01T00:00:00Z</time><name>WP 1641</name></trkpt>
        <trkpt lat="39.854092821478844" lon="3.08309867978096"><ele>0</ele><time>1970-01-01T00:00:00Z</time><name>WP 1642</name></trkpt>
        <trkpt lat="39.85382325947285" lon="3.083152323961258"><ele>0</ele><time>1970-01-01T00:00:00Z</time><name>WP 1643</name></trkpt>
        <trkpt lat="39.85333375632763" lon="3.083242177963257"><ele>0</ele><time>1970-01-01T00:00:00Z</time><name>WP 1644</name></trkpt>
        <trkpt lat="39.85299579799175" lon="3.083377629518509"><ele>0</ele><time>1970-01-01T00:00:00Z</time><name>WP 1645</name></trkpt>
        <trkpt lat="39.8527617752552" lon="3.0835747718811035"><ele>0</ele><time>1970-01-01T00:00:00Z</time><name>WP 1646</name></trkpt>
        <trkpt lat="39.85267862677574" lon="3.0836914479732513"><ele>0</ele><time>1970-01-01T00:00:00Z</time><name>WP 1647</name></trkpt>
        <trkpt lat="39.85212676227093" lon="3.084607422351837"><ele>0</ele><time>1970-01-01T00:00:00Z</time><name>WP 1648</name></trkpt>
        <trkpt lat="39.85187865793705" lon="3.084976226091385"><ele>0</ele><time>1970-01-01T00:00:00Z</time><name>WP 1649</name></trkpt>
        <trkpt lat="39.85176868736744" lon="3.0852726101875305"><ele>0</ele><time>1970-01-01T00:00:00Z</time><name>WP 1650</name></trkpt>
        <trkpt lat="39.851733818650246" lon="3.0854979157447815"><ele>0</ele><time>1970-01-01T00:00:00Z</time><name>WP 1651</name></trkpt>
        <trkpt lat="39.85187195241451" lon="3.0868805944919586"><ele>0</ele><time>1970-01-01T00:00:00Z</time><name>WP 1652</name></trkpt>
        <trkpt lat="39.851865246891975" lon="3.0870066583156586"><ele>0</ele><time>1970-01-01T00:00:00Z</time><name>WP 1653</name></trkpt>
        <trkpt lat="39.851582273840904" lon="3.0885247886180878"><ele>0</ele><time>1970-01-01T00:00:00Z</time><name>WP 1654</name></trkpt>
        <trkpt lat="39.85151991248131" lon="3.089000880718231"><ele>0</ele><time>1970-01-01T00:00:00Z</time><name>WP 1655</name></trkpt>
        <trkpt lat="39.85150650143623" lon="3.089081346988678"><ele>0</ele><time>1970-01-01T00:00:00Z</time><name>WP 1656</name></trkpt>
        <trkpt lat="39.85145151615143" lon="3.0894407629966736"><ele>0</ele><time>1970-01-01T00:00:00Z</time><name>WP 1657</name></trkpt>
        <trkpt lat="39.85138915479183" lon="3.0897291004657745"><ele>0</ele><time>1970-01-01T00:00:00Z</time><name>WP 1658</name></trkpt>
        <trkpt lat="39.8512027412653" lon="3.0904559791088104"><ele>0</ele><time>1970-01-01T00:00:00Z</time><name>WP 1659</name></trkpt>
        <trkpt lat="39.850941225886345" lon="3.091434985399246"><ele>0</ele><time>1970-01-01T00:00:00Z</time><name>WP 1660</name></trkpt>
        <trkpt lat="39.850851371884346" lon="3.091713935136795"><ele>0</ele><time>1970-01-01T00:00:00Z</time><name>WP 1661</name></trkpt>
        <trkpt lat="39.85063076019287" lon="3.0922262370586395"><ele>0</ele><time>1970-01-01T00:00:00Z</time><name>WP 1662</name></trkpt>
        <trkpt lat="39.85056169331074" lon="3.092459589242935"><ele>0</ele><time>1970-01-01T00:00:00Z</time><name>WP 1663</name></trkpt>
        <trkpt lat="39.850526824593544" lon="3.0926835536956787"><ele>0</ele><time>1970-01-01T00:00:00Z</time><name>WP 1664</name></trkpt>
        <trkpt lat="39.85052011907101" lon="3.0928458273410797"><ele>0</ele><time>1970-01-01T00:00:00Z</time><name>WP 1665</name></trkpt>
        <trkpt lat="39.85051341354847" lon="3.0940675735473633"><ele>0</ele><time>1970-01-01T00:00:00Z</time><name>WP 1666</name></trkpt>
        <trkpt lat="39.850492626428604" lon="3.0949030816555023"><ele>0</ele><time>1970-01-01T00:00:00Z</time><name>WP 1667</name></trkpt>
        <trkpt lat="39.85049933195114" lon="3.095235675573349"><ele>0</ele><time>1970-01-01T00:00:00Z</time><name>WP 1668</name></trkpt>
        <trkpt lat="39.85054090619087" lon="3.0954328179359436"><ele>0</ele><time>1970-01-01T00:00:00Z</time><name>WP 1669</name></trkpt>
        <trkpt lat="39.85054090619087" lon="3.0955669283866882"><ele>0</ele><time>1970-01-01T00:00:00Z</time><name>WP 1670</name></trkpt>
        <trkpt lat="39.85052011907101" lon="3.0957117676734924"><ele>0</ele><time>1970-01-01T00:00:00Z</time><name>WP 1671</name></trkpt>
        <trkpt lat="39.85039606690407" lon="3.0962589383125305"><ele>0</ele><time>1970-01-01T00:00:00Z</time><name>WP 1672</name></trkpt>
        <trkpt lat="39.850237146019936" lon="3.096591532230377"><ele>0</ele><time>1970-01-01T00:00:00Z</time><name>WP 1673</name></trkpt>
        <trkpt lat="39.849795922636986" lon="3.0972473323345184"><ele>0</ele><time>1970-01-01T00:00:00Z</time><name>WP 1674</name></trkpt>
        <trkpt lat="39.84987907111645" lon="3.0974632501602173"><ele>0</ele><time>1970-01-01T00:00:00Z</time><name>WP 1675</name></trkpt>
        <trkpt lat="39.850237146019936" lon="3.0981458723545074"><ele>0</ele><time>1970-01-01T00:00:00Z</time><name>WP 1676</name></trkpt>
        <trkpt lat="39.85033370554447" lon="3.098406046628952"><ele>0</ele><time>1970-01-01T00:00:00Z</time><name>WP 1677</name></trkpt>
        <trkpt lat="39.85035449266434" lon="3.098541498184204"><ele>0</ele><time>1970-01-01T00:00:00Z</time><name>WP 1678</name></trkpt>
        <trkpt lat="39.85039606690407" lon="3.0989277362823486"><ele>0</ele><time>1970-01-01T00:00:00Z</time><name>WP 1679</name></trkpt>
        <trkpt lat="39.85045105218887" lon="3.0992871522903442"><ele>0</ele><time>1970-01-01T00:00:00Z</time><name>WP 1680</name></trkpt>
        <trkpt lat="39.850458428263664" lon="3.09933140873909"><ele>0</ele><time>1970-01-01T00:00:00Z</time><name>WP 1681</name></trkpt>
        <trkpt lat="39.85057510435581" lon="3.0998530983924866"><ele>0</ele><time>1970-01-01T00:00:00Z</time><name>WP 1682</name></trkpt>
        <trkpt lat="39.850734025239944" lon="3.100409656763077"><ele>0</ele><time>1970-01-01T00:00:00Z</time><name>WP 1683</name></trkpt>
        <trkpt lat="39.850768223404884" lon="3.1005531549453735"><ele>0</ele><time>1970-01-01T00:00:00Z</time><name>WP 1684</name></trkpt>
        <trkpt lat="39.85078230500221" lon="3.100750297307968"><ele>0</ele><time>1970-01-01T00:00:00Z</time><name>WP 1685</name></trkpt>
        <trkpt lat="39.850851371884346" lon="3.100956827402115"><ele>0</ele><time>1970-01-01T00:00:00Z</time><name>WP 1686</name></trkpt>
        <trkpt lat="39.85103711485863" lon="3.1012357771396637"><ele>0</ele><time>1970-01-01T00:00:00Z</time><name>WP 1687</name></trkpt>
        <trkpt lat="39.85127851366997" lon="3.101612627506256"><ele>0</ele><time>1970-01-01T00:00:00Z</time><name>WP 1688</name></trkpt>
        <trkpt lat="39.851340875029564" lon="3.101801723241806"><ele>0</ele><time>1970-01-01T00:00:00Z</time><name>WP 1689</name></trkpt>
        <trkpt lat="39.85133416950703" lon="3.102044463157654"><ele>0</ele><time>1970-01-01T00:00:00Z</time><name>WP 1690</name></trkpt>
        <trkpt lat="39.8513200879097" lon="3.1022778153419495"><ele>0</ele><time>1970-01-01T00:00:00Z</time><name>WP 1691</name></trkpt>
        <trkpt lat="39.85127180814743" lon="3.102511167526245"><ele>0</ele><time>1970-01-01T00:00:00Z</time><name>WP 1692</name></trkpt>
        <trkpt lat="39.851258397102356" lon="3.1031589210033417"><ele>0</ele><time>1970-01-01T00:00:00Z</time><name>WP 1693</name></trkpt>
        <trkpt lat="39.851216822862625" lon="3.1039220094680786"><ele>0</ele><time>1970-01-01T00:00:00Z</time><name>WP 1694</name></trkpt>
        <trkpt lat="39.85121011734009" lon="3.1040480732917786"><ele>0</ele><time>1970-01-01T00:00:00Z</time><name>WP 1695</name></trkpt>
        <trkpt lat="39.85121011734009" lon="3.1041647493839264"><ele>0</ele><time>1970-01-01T00:00:00Z</time><name>WP 1696</name></trkpt>
        <trkpt lat="39.8512302339077" lon="3.1042908132076263"><ele>0</ele><time>1970-01-01T00:00:00Z</time><name>WP 1697</name></trkpt>
        <trkpt lat="39.85177539288998" lon="3.1058263778686523"><ele>0</ele><time>1970-01-01T00:00:00Z</time><name>WP 1698</name></trkpt>
        <trkpt lat="39.85184445977211" lon="3.1060691177845"><ele>0</ele><time>1970-01-01T00:00:00Z</time><name>WP 1699</name></trkpt>
        <trkpt lat="39.851865246891975" lon="3.106185793876648"><ele>0</ele><time>1970-01-01T00:00:00Z</time><name>WP 1700</name></trkpt>
        <trkpt lat="39.851899445056915" lon="3.106311857700348"><ele>0</ele><time>1970-01-01T00:00:00Z</time><name>WP 1701</name></trkpt>
        <trkpt lat="39.85193431377411" lon="3.1065264344215393"><ele>0</ele><time>1970-01-01T00:00:00Z</time><name>WP 1702</name></trkpt>
        <trkpt lat="39.85191352665424" lon="3.106805384159088"><ele>0</ele><time>1970-01-01T00:00:00Z</time><name>WP 1703</name></trkpt>
        <trkpt lat="39.851865246891975" lon="3.107048124074936"><ele>0</ele><time>1970-01-01T00:00:00Z</time><name>WP 1704</name></trkpt>
        <trkpt lat="39.85185116529465" lon="3.107084333896637"><ele>0</ele><time>1970-01-01T00:00:00Z</time><name>WP 1705</name></trkpt>
        <trkpt lat="39.851789474487305" lon="3.1071916222572327"><ele>0</ele><time>1970-01-01T00:00:00Z</time><name>WP 1706</name></trkpt>
        <trkpt lat="39.85163725912571" lon="3.1074343621730804"><ele>0</ele><time>1970-01-01T00:00:00Z</time><name>WP 1707</name></trkpt>
        <trkpt lat="39.851533994078636" lon="3.1076502799987793"><ele>0</ele><time>1970-01-01T00:00:00Z</time><name>WP 1708</name></trkpt>
        <trkpt lat="39.85150650143623" lon="3.107757568359375"><ele>0</ele><time>1970-01-01T00:00:00Z</time><name>WP 1709</name></trkpt>
        <trkpt lat="39.85128588974476" lon="3.107703924179077"><ele>0</ele><time>1970-01-01T00:00:00Z</time><name>WP 1710</name></trkpt>
        <trkpt lat="39.851092770695686" lon="3.107631504535675"><ele>0</ele><time>1970-01-01T00:00:00Z</time><name>WP 1711</name></trkpt>
        <trkpt lat="39.85026530921459" lon="3.106841593980789"><ele>0</ele><time>1970-01-01T00:00:00Z</time><name>WP 1712</name></trkpt>
        <trkpt lat="39.848947674036026" lon="3.1063561141490936"><ele>0</ele><time>1970-01-01T00:00:00Z</time><name>WP 1713</name></trkpt>
        <trkpt lat="39.84738193452358" lon="3.10588002204895"><ele>0</ele><time>1970-01-01T00:00:00Z</time><name>WP 1714</name></trkpt>
        <trkpt lat="39.847223684191704" lon="3.1058625876903534"><ele>0</ele><time>1970-01-01T00:00:00Z</time><name>WP 1715</name></trkpt>
        <trkpt lat="39.8470513522625" lon="3.1058894097805023"><ele>0</ele><time>1970-01-01T00:00:00Z</time><name>WP 1716</name></trkpt>
        <trkpt lat="39.84682336449623" lon="3.105960488319397"><ele>0</ele><time>1970-01-01T00:00:00Z</time><name>WP 1717</name></trkpt>
        <trkpt lat="39.846044182777405" lon="3.1063467264175415"><ele>0</ele><time>1970-01-01T00:00:00Z</time><name>WP 1718</name></trkpt>
        <trkpt lat="39.84594091773033" lon="3.106401711702347"><ele>0</ele><time>1970-01-01T00:00:00Z</time><name>WP 1719</name></trkpt>
        <trkpt lat="39.845712929964066" lon="3.1065358221530914"><ele>0</ele><time>1970-01-01T00:00:00Z</time><name>WP 1720</name></trkpt>
        <trkpt lat="39.84563045203686" lon="3.1065988540649414"><ele>0</ele><time>1970-01-01T00:00:00Z</time><name>WP 1721</name></trkpt>
        <trkpt lat="39.84555467963219" lon="3.1067155301570892"><ele>0</ele><time>1970-01-01T00:00:00Z</time><name>WP 1722</name></trkpt>
        <trkpt lat="39.845478907227516" lon="3.106832206249237"><ele>0</ele><time>1970-01-01T00:00:00Z</time><name>WP 1723</name></trkpt>
        <trkpt lat="39.84511278569698" lon="3.1071648001670837"><ele>0</ele><time>1970-01-01T00:00:00Z</time><name>WP 1724</name></trkpt>
        <trkpt lat="39.8448096960783" lon="3.1074880063533783"><ele>0</ele><time>1970-01-01T00:00:00Z</time><name>WP 1725</name></trkpt>
        <trkpt lat="39.84464406967163" lon="3.107595294713974"><ele>0</ele><time>1970-01-01T00:00:00Z</time><name>WP 1726</name></trkpt>
        <trkpt lat="39.844471737742424" lon="3.1074075400829315"><ele>0</ele><time>1970-01-01T00:00:00Z</time><name>WP 1727</name></trkpt>
        <trkpt lat="39.84427861869335" lon="3.107237219810486"><ele>0</ele><time>1970-01-01T00:00:00Z</time><name>WP 1728</name></trkpt>
        <trkpt lat="39.84420284628868" lon="3.1072090566158295"><ele>0</ele><time>1970-01-01T00:00:00Z</time><name>WP 1729</name></trkpt>
        <trkpt lat="39.84409220516682" lon="3.1072546541690826"><ele>0</ele><time>1970-01-01T00:00:00Z</time><name>WP 1730</name></trkpt>
        <trkpt lat="39.84395407140255" lon="3.1073270738124847"><ele>0</ele><time>1970-01-01T00:00:00Z</time><name>WP 1731</name></trkpt>
        <trkpt lat="39.84387829899788" lon="3.1073445081710815"><ele>0</ele><time>1970-01-01T00:00:00Z</time><name>WP 1732</name></trkpt>
        <trkpt lat="39.84379582107067" lon="3.1073538959026337"><ele>0</ele><time>1970-01-01T00:00:00Z</time><name>WP 1733</name></trkpt>
        <trkpt lat="39.84361611306667" lon="3.1073445081710815"><ele>0</ele><time>1970-01-01T00:00:00Z</time><name>WP 1734</name></trkpt>
        <trkpt lat="39.84340287744999" lon="3.1073887646198273"><ele>0</ele><time>1970-01-01T00:00:00Z</time><name>WP 1735</name></trkpt>
        <trkpt lat="39.84302334487438" lon="3.1073713302612305"><ele>0</ele><time>1970-01-01T00:00:00Z</time><name>WP 1736</name></trkpt>
        <trkpt lat="39.842761158943176" lon="3.1073082983493805"><ele>0</ele><time>1970-01-01T00:00:00Z</time><name>WP 1737</name></trkpt>
        <trkpt lat="39.84269209206104" lon="3.1072720885276794"><ele>0</ele><time>1970-01-01T00:00:00Z</time><name>WP 1738</name></trkpt>
        <trkpt lat="39.842643812298775" lon="3.1072090566158295"><ele>0</ele><time>1970-01-01T00:00:00Z</time><name>WP 1739</name></trkpt>
        <trkpt lat="39.84256133437157" lon="3.1071017682552338"><ele>0</ele><time>1970-01-01T00:00:00Z</time><name>WP 1740</name></trkpt>
        <trkpt lat="39.8425130546093" lon="3.107084333896637"><ele>0</ele><time>1970-01-01T00:00:00Z</time><name>WP 1741</name></trkpt>
        <trkpt lat="39.8423058539629" lon="3.107174187898636"><ele>0</ele><time>1970-01-01T00:00:00Z</time><name>WP 1742</name></trkpt>
        <trkpt lat="39.8422159999609" lon="3.1071916222572327"><ele>0</ele><time>1970-01-01T00:00:00Z</time><name>WP 1743</name></trkpt>
        <trkpt lat="39.84211944043636" lon="3.107174187898636"><ele>0</ele><time>1970-01-01T00:00:00Z</time><name>WP 1744</name></trkpt>
        <trkpt lat="39.841995388269424" lon="3.1071554124355316"><ele>0</ele><time>1970-01-01T00:00:00Z</time><name>WP 1745</name></trkpt>
        <trkpt lat="39.841512590646744" lon="3.106985092163086"><ele>0</ele><time>1970-01-01T00:00:00Z</time><name>WP 1746</name></trkpt>
        <trkpt lat="39.84140932559967" lon="3.106931447982788"><ele>0</ele><time>1970-01-01T00:00:00Z</time><name>WP 1747</name></trkpt>
        <trkpt lat="39.841312766075134" lon="3.106822818517685"><ele>0</ele><time>1970-01-01T00:00:00Z</time><name>WP 1748</name></trkpt>
        <trkpt lat="39.84116122126579" lon="3.1065720319747925"><ele>0</ele><time>1970-01-01T00:00:00Z</time><name>WP 1749</name></trkpt>
        <trkpt lat="39.8410364985466" lon="3.106374889612198"><ele>0</ele><time>1970-01-01T00:00:00Z</time><name>WP 1750</name></trkpt>
        <trkpt lat="39.840891659259796" lon="3.106212615966797"><ele>0</ele><time>1970-01-01T00:00:00Z</time><name>WP 1751</name></trkpt>
        <trkpt lat="39.840650260448456" lon="3.106059730052948"><ele>0</ele><time>1970-01-01T00:00:00Z</time><name>WP 1752</name></trkpt>
        <trkpt lat="39.84052620828152" lon="3.105996698141098"><ele>0</ele><time>1970-01-01T00:00:00Z</time><name>WP 1753</name></trkpt>
        <trkpt lat="39.840388745069504" lon="3.1059430539608"><ele>0</ele><time>1970-01-01T00:00:00Z</time><name>WP 1754</name></trkpt>
        <trkpt lat="39.839850291609764" lon="3.105780780315399"><ele>0</ele><time>1970-01-01T00:00:00Z</time><name>WP 1755</name></trkpt>
        <trkpt lat="39.83967795968056" lon="3.1056560575962067"><ele>0</ele><time>1970-01-01T00:00:00Z</time><name>WP 1756</name></trkpt>
        <trkpt lat="39.83935408294201" lon="3.105350285768509"><ele>0</ele><time>1970-01-01T00:00:00Z</time><name>WP 1757</name></trkpt>
        <trkpt lat="39.83919516205788" lon="3.10519739985466"><ele>0</ele><time>1970-01-01T00:00:00Z</time><name>WP 1758</name></trkpt>
        <trkpt lat="39.83900874853134" lon="3.105107545852661"><ele>0</ele><time>1970-01-01T00:00:00Z</time><name>WP 1759</name></trkpt>
        <trkpt lat="39.83875393867493" lon="3.104981482028961"><ele>0</ele><time>1970-01-01T00:00:00Z</time><name>WP 1760</name></trkpt>
        <trkpt lat="39.838429391384125" lon="3.1049104034900665"><ele>0</ele><time>1970-01-01T00:00:00Z</time><name>WP 1761</name></trkpt>
        <trkpt lat="39.83810551464558" lon="3.1047749519348145"><ele>0</ele><time>1970-01-01T00:00:00Z</time><name>WP 1762</name></trkpt>
        <trkpt lat="39.837822541594505" lon="3.1045590341091156"><ele>0</ele><time>1970-01-01T00:00:00Z</time><name>WP 1763</name></trkpt>
        <trkpt lat="39.8376777023077" lon="3.1044423580169678"><ele>0</ele><time>1970-01-01T00:00:00Z</time><name>WP 1764</name></trkpt>
        <trkpt lat="39.83756706118584" lon="3.104407489299774"><ele>0</ele><time>1970-01-01T00:00:00Z</time><name>WP 1765</name></trkpt>
        <trkpt lat="39.83751207590103" lon="3.104344457387924"><ele>0</ele><time>1970-01-01T00:00:00Z</time><name>WP 1766</name></trkpt>
        <trkpt lat="39.83747787773609" lon="3.10432568192482"><ele>0</ele><time>1970-01-01T00:00:00Z</time><name>WP 1767</name></trkpt>
        <trkpt lat="39.83746379613876" lon="3.104281425476074"><ele>0</ele><time>1970-01-01T00:00:00Z</time><name>WP 1768</name></trkpt>
        <trkpt lat="39.83743630349636" lon="3.104245215654373"><ele>0</ele><time>1970-01-01T00:00:00Z</time><name>WP 1769</name></trkpt>
        <trkpt lat="39.83740143477917" lon="3.1042277812957764"><ele>0</ele><time>1970-01-01T00:00:00Z</time><name>WP 1770</name></trkpt>
        <trkpt lat="39.83736723661423" lon="3.1042277812957764"><ele>0</ele><time>1970-01-01T00:00:00Z</time><name>WP 1771</name></trkpt>
        <trkpt lat="39.837339743971825" lon="3.1042277812957764"><ele>0</ele><time>1970-01-01T00:00:00Z</time><name>WP 1772</name></trkpt>
        <trkpt lat="39.83731225132942" lon="3.1042546033859253"><ele>0</ele><time>1970-01-01T00:00:00Z</time><name>WP 1773</name></trkpt>
        <trkpt lat="39.83728475868702" lon="3.104281425476074"><ele>0</ele><time>1970-01-01T00:00:00Z</time><name>WP 1774</name></trkpt>
        <trkpt lat="39.83727067708969" lon="3.10432568192482"><ele>0</ele><time>1970-01-01T00:00:00Z</time><name>WP 1775</name></trkpt>
        <trkpt lat="39.837263971567154" lon="3.104371279478073"><ele>0</ele><time>1970-01-01T00:00:00Z</time><name>WP 1776</name></trkpt>
        <trkpt lat="39.83727738261223" lon="3.104415535926819"><ele>0</ele><time>1970-01-01T00:00:00Z</time><name>WP 1777</name></trkpt>
        <trkpt lat="39.83698099851608" lon="3.10457780957222"><ele>0</ele><time>1970-01-01T00:00:00Z</time><name>WP 1778</name></trkpt>
        <trkpt lat="39.836615547537804" lon="3.1047843396663666"><ele>0</ele><time>1970-01-01T00:00:00Z</time><name>WP 1779</name></trkpt>
        <trkpt lat="39.836270213127136" lon="3.1049640476703644"><ele>0</ele><time>1970-01-01T00:00:00Z</time><name>WP 1780</name></trkpt>
        <trkpt lat="39.83590476214886" lon="3.105143755674362"><ele>0</ele><time>1970-01-01T00:00:00Z</time><name>WP 1781</name></trkpt>
        <trkpt lat="39.83566336333752" lon="3.1051531434059143"><ele>0</ele><time>1970-01-01T00:00:00Z</time><name>WP 1782</name></trkpt>
        <trkpt lat="39.83535289764404" lon="3.1051169335842133"><ele>0</ele><time>1970-01-01T00:00:00Z</time><name>WP 1783</name></trkpt>
        <trkpt lat="39.8351738601923" lon="3.105143755674362"><ele>0</ele><time>1970-01-01T00:00:00Z</time><name>WP 1784</name></trkpt>
        <trkpt lat="39.834739342331886" lon="3.105269819498062"><ele>0</ele><time>1970-01-01T00:00:00Z</time><name>WP 1785</name></trkpt>
        <trkpt lat="39.83451135456562" lon="3.105359673500061"><ele>0</ele><time>1970-01-01T00:00:00Z</time><name>WP 1786</name></trkpt>
        <trkpt lat="39.834090918302536" lon="3.1056292355060577"><ele>0</ele><time>1970-01-01T00:00:00Z</time><name>WP 1787</name></trkpt>
        <trkpt lat="39.8337596654892" lon="3.105780780315399"><ele>0</ele><time>1970-01-01T00:00:00Z</time><name>WP 1788</name></trkpt>
        <trkpt lat="39.83338013291359" lon="3.1059256196022034"><ele>0</ele><time>1970-01-01T00:00:00Z</time><name>WP 1789</name></trkpt>
        <trkpt lat="39.8328423500061" lon="3.1062032282352448"><ele>0</ele><time>1970-01-01T00:00:00Z</time><name>WP 1790</name></trkpt>
        <trkpt lat="39.83193174004555" lon="3.1064996123313904"><ele>0</ele><time>1970-01-01T00:00:00Z</time><name>WP 1791</name></trkpt>
        <trkpt lat="39.83160048723221" lon="3.1065720319747925"><ele>0</ele><time>1970-01-01T00:00:00Z</time><name>WP 1792</name></trkpt>
        <trkpt lat="39.83160048723221" lon="3.1065720319747925"><ele>0</ele><time>1970-01-01T00:00:00Z</time><name>WP 1793</name></trkpt>
        <trkpt lat="39.83160048723221" lon="3.1065720319747925"><ele>0</ele><time>1970-01-01T00:00:00Z</time><name>WP 1794</name></trkpt>
        <trkpt lat="39.8311311006546" lon="3.1066524982452393"><ele>0</ele><time>1970-01-01T00:00:00Z</time><name>WP 1795</name></trkpt>
        <trkpt lat="39.83106203377247" lon="3.105332851409912"><ele>0</ele><time>1970-01-01T00:00:00Z</time><name>WP 1796</name></trkpt>
        <trkpt lat="39.831082820892334" lon="3.1053046882152557"><ele>0</ele><time>1970-01-01T00:00:00Z</time><name>WP 1797</name></trkpt>
        <trkpt lat="39.83106203377247" lon="3.105124980211258"><ele>0</ele><time>1970-01-01T00:00:00Z</time><name>WP 1798</name></trkpt>
        <trkpt lat="39.83102783560753" lon="3.105044513940811"><ele>0</ele><time>1970-01-01T00:00:00Z</time><name>WP 1799</name></trkpt>
        <trkpt lat="39.83097955584526" lon="3.10494527220726"><ele>0</ele><time>1970-01-01T00:00:00Z</time><name>WP 1800</name></trkpt>
        <trkpt lat="39.83062081038952" lon="3.10513436794281"><ele>0</ele><time>1970-01-01T00:00:00Z</time><name>WP 1801</name></trkpt>
        <trkpt lat="39.83030363917351" lon="3.105251044034958"><ele>0</ele><time>1970-01-01T00:00:00Z</time><name>WP 1802</name></trkpt>
        <trkpt lat="39.83013801276684" lon="3.105296641588211"><ele>0</ele><time>1970-01-01T00:00:00Z</time><name>WP 1803</name></trkpt>
        <trkpt lat="39.829627722501755" lon="3.10538649559021"><ele>0</ele><time>1970-01-01T00:00:00Z</time><name>WP 1804</name></trkpt>
        <trkpt lat="39.82930988073349" lon="3.1054039299488068"><ele>0</ele><time>1970-01-01T00:00:00Z</time><name>WP 1805</name></trkpt>
        <trkpt lat="39.82899270951748" lon="3.1053945422172546"><ele>0</ele><time>1970-01-01T00:00:00Z</time><name>WP 1806</name></trkpt>
        <trkpt lat="39.828564897179604" lon="3.10538649559021"><ele>0</ele><time>1970-01-01T00:00:00Z</time><name>WP 1807</name></trkpt>
        <trkpt lat="39.828068017959595" lon="3.1053046882152557"><ele>0</ele><time>1970-01-01T00:00:00Z</time><name>WP 1808</name></trkpt>
        <trkpt lat="39.827343821525574" lon="3.105080723762512"><ele>0</ele><time>1970-01-01T00:00:00Z</time><name>WP 1809</name></trkpt>
        <trkpt lat="39.82664041221142" lon="3.1047575175762177"><ele>0</ele><time>1970-01-01T00:00:00Z</time><name>WP 1810</name></trkpt>
        <trkpt lat="39.82617773115635" lon="3.1044691801071167"><ele>0</ele><time>1970-01-01T00:00:00Z</time><name>WP 1811</name></trkpt>
        <trkpt lat="39.825709015131" lon="3.1041111052036285"><ele>0</ele><time>1970-01-01T00:00:00Z</time><name>WP 1812</name></trkpt>
        <trkpt lat="39.824887588620186" lon="3.1030409038066864"><ele>0</ele><time>1970-01-01T00:00:00Z</time><name>WP 1813</name></trkpt>
        <trkpt lat="39.82406012713909" lon="3.101937174797058"><ele>0</ele><time>1970-01-01T00:00:00Z</time><name>WP 1814</name></trkpt>
        <trkpt lat="39.823997765779495" lon="3.101882189512253"><ele>0</ele><time>1970-01-01T00:00:00Z</time><name>WP 1815</name></trkpt>
        <trkpt lat="39.82385292649269" lon="3.101738691329956"><ele>0</ele><time>1970-01-01T00:00:00Z</time><name>WP 1816</name></trkpt>
        <trkpt lat="39.823390915989876" lon="3.101308196783066"><ele>0</ele><time>1970-01-01T00:00:00Z</time><name>WP 1817</name></trkpt>
        <trkpt lat="39.82269421219826" lon="3.1008589267730713"><ele>0</ele><time>1970-01-01T00:00:00Z</time><name>WP 1818</name></trkpt>
        <trkpt lat="39.82187278568745" lon="3.1004726886749268"><ele>0</ele><time>1970-01-01T00:00:00Z</time><name>WP 1819</name></trkpt>
        <trkpt lat="39.8212793469429" lon="3.100319802761078"><ele>0</ele><time>1970-01-01T00:00:00Z</time><name>WP 1820</name></trkpt>
        <trkpt lat="39.820789843797684" lon="3.100256770849228"><ele>0</ele><time>1970-01-01T00:00:00Z</time><name>WP 1821</name></trkpt>
        <trkpt lat="39.82017561793327" lon="3.1002742052078247"><ele>0</ele><time>1970-01-01T00:00:00Z</time><name>WP 1822</name></trkpt>
        <trkpt lat="39.81961704790592" lon="3.1003640592098236"><ele>0</ele><time>1970-01-01T00:00:00Z</time><name>WP 1823</name></trkpt>
        <trkpt lat="39.81908529996872" lon="3.1005625426769257"><ele>0</ele><time>1970-01-01T00:00:00Z</time><name>WP 1824</name></trkpt>
        <trkpt lat="39.81852002441883" lon="3.1007958948612213"><ele>0</ele><time>1970-01-01T00:00:00Z</time><name>WP 1825</name></trkpt>
        <trkpt lat="39.81747128069401" lon="3.1014423072338104"><ele>0</ele><time>1970-01-01T00:00:00Z</time><name>WP 1826</name></trkpt>
        <trkpt lat="39.81622874736786" lon="3.1022684276103973"><ele>0</ele><time>1970-01-01T00:00:00Z</time><name>WP 1827</name></trkpt>
        <trkpt lat="39.81512501835823" lon="3.1030865013599396"><ele>0</ele><time>1970-01-01T00:00:00Z</time><name>WP 1828</name></trkpt>
        <trkpt lat="39.81357268989086" lon="3.10426265001297"><ele>0</ele><time>1970-01-01T00:00:00Z</time><name>WP 1829</name></trkpt>
        <trkpt lat="39.81342785060406" lon="3.104308247566223"><ele>0</ele><time>1970-01-01T00:00:00Z</time><name>WP 1830</name></trkpt>
        <trkpt lat="39.813358783721924" lon="3.104344457387924"><ele>0</ele><time>1970-01-01T00:00:00Z</time><name>WP 1831</name></trkpt>
        <trkpt lat="39.81327563524246" lon="3.104379326105118"><ele>0</ele><time>1970-01-01T00:00:00Z</time><name>WP 1832</name></trkpt>
        <trkpt lat="39.81321394443512" lon="3.104398101568222"><ele>0</ele><time>1970-01-01T00:00:00Z</time><name>WP 1833</name></trkpt>
        <trkpt lat="39.81317237019539" lon="3.104379326105118"><ele>0</ele><time>1970-01-01T00:00:00Z</time><name>WP 1834</name></trkpt>
        <trkpt lat="39.81313079595566" lon="3.104361891746521"><ele>0</ele><time>1970-01-01T00:00:00Z</time><name>WP 1835</name></trkpt>
        <trkpt lat="39.81308922171593" lon="3.104361891746521"><ele>0</ele><time>1970-01-01T00:00:00Z</time><name>WP 1836</name></trkpt>
        <trkpt lat="39.813013449311256" lon="3.104379326105118"><ele>0</ele><time>1970-01-01T00:00:00Z</time><name>WP 1837</name></trkpt>
        <trkpt lat="39.81294438242912" lon="3.104434311389923"><ele>0</ele><time>1970-01-01T00:00:00Z</time><name>WP 1838</name></trkpt>
        <trkpt lat="39.81290280818939" lon="3.1045053899288177"><ele>0</ele><time>1970-01-01T00:00:00Z</time><name>WP 1839</name></trkpt>
        <trkpt lat="39.81287531554699" lon="3.1045952439308167"><ele>0</ele><time>1970-01-01T00:00:00Z</time><name>WP 1840</name></trkpt>
        <trkpt lat="39.81287531554699" lon="3.1046850979328156"><ele>0</ele><time>1970-01-01T00:00:00Z</time><name>WP 1841</name></trkpt>
        <trkpt lat="39.812896102666855" lon="3.1047749519348145"><ele>0</ele><time>1970-01-01T00:00:00Z</time><name>WP 1842</name></trkpt>
        <trkpt lat="39.812937676906586" lon="3.1048567593097687"><ele>0</ele><time>1970-01-01T00:00:00Z</time><name>WP 1843</name></trkpt>
        <trkpt lat="39.81299936771393" lon="3.1049104034900665"><ele>0</ele><time>1970-01-01T00:00:00Z</time><name>WP 1844</name></trkpt>
        <trkpt lat="39.81306843459606" lon="3.1049372255802155"><ele>0</ele><time>1970-01-01T00:00:00Z</time><name>WP 1845</name></trkpt>
        <trkpt lat="39.813144877552986" lon="3.1049278378486633"><ele>0</ele><time>1970-01-01T00:00:00Z</time><name>WP 1846</name></trkpt>
        <trkpt lat="39.81315158307552" lon="3.1049278378486633"><ele>0</ele><time>1970-01-01T00:00:00Z</time><name>WP 1847</name></trkpt>
        <trkpt lat="39.81324814260006" lon="3.10494527220726"><ele>0</ele><time>1970-01-01T00:00:00Z</time><name>WP 1848</name></trkpt>
        <trkpt lat="39.81331720948219" lon="3.1049908697605133"><ele>0</ele><time>1970-01-01T00:00:00Z</time><name>WP 1849</name></trkpt>
        <trkpt lat="39.813434556126595" lon="3.1050632894039154"><ele>0</ele><time>1970-01-01T00:00:00Z</time><name>WP 1850</name></trkpt>
        <trkpt lat="39.813710153102875" lon="3.1053677201271057"><ele>0</ele><time>1970-01-01T00:00:00Z</time><name>WP 1851</name></trkpt>
        <trkpt lat="39.814041405916214" lon="3.1057539582252502"><ele>0</ele><time>1970-01-01T00:00:00Z</time><name>WP 1852</name></trkpt>
        <trkpt lat="39.814234524965286" lon="3.105996698141098"><ele>0</ele><time>1970-01-01T00:00:00Z</time><name>WP 1853</name></trkpt>
        <trkpt lat="39.81431096792221" lon="3.10613214969635"><ele>0</ele><time>1970-01-01T00:00:00Z</time><name>WP 1854</name></trkpt>
        <trkpt lat="39.814365953207016" lon="3.106285035610199"><ele>0</ele><time>1970-01-01T00:00:00Z</time><name>WP 1855</name></trkpt>
        <trkpt lat="39.81442831456661" lon="3.1064915657043457"><ele>0</ele><time>1970-01-01T00:00:00Z</time><name>WP 1856</name></trkpt>
        <trkpt lat="39.814455807209015" lon="3.1066712737083435"><ele>0</ele><time>1970-01-01T00:00:00Z</time><name>WP 1857</name></trkpt>
        <trkpt lat="39.814455807209015" lon="3.106805384159088"><ele>0</ele><time>1970-01-01T00:00:00Z</time><name>WP 1858</name></trkpt>
        <trkpt lat="39.814448431134224" lon="3.107030689716339"><ele>0</ele><time>1970-01-01T00:00:00Z</time><name>WP 1859</name></trkpt>
        <trkpt lat="39.814400151371956" lon="3.1072989106178284"><ele>0</ele><time>1970-01-01T00:00:00Z</time><name>WP 1860</name></trkpt>
        <trkpt lat="39.814365953207016" lon="3.1075067818164825"><ele>0</ele><time>1970-01-01T00:00:00Z</time><name>WP 1861</name></trkpt>
        <trkpt lat="39.814331755042076" lon="3.107721358537674"><ele>0</ele><time>1970-01-01T00:00:00Z</time><name>WP 1862</name></trkpt>
        <trkpt lat="39.814331755042076" lon="3.1080271303653717"><ele>0</ele><time>1970-01-01T00:00:00Z</time><name>WP 1863</name></trkpt>
        <trkpt lat="39.814248606562614" lon="3.1080445647239685"><ele>0</ele><time>1970-01-01T00:00:00Z</time><name>WP 1864</name></trkpt>
        <trkpt lat="39.81397233903408" lon="3.1081075966358185"><ele>0</ele><time>1970-01-01T00:00:00Z</time><name>WP 1865</name></trkpt>
        <trkpt lat="39.813827499747276" lon="3.1081438064575195"><ele>0</ele><time>1970-01-01T00:00:00Z</time><name>WP 1866</name></trkpt>
        <trkpt lat="39.81340706348419" lon="3.1082336604595184"><ele>0</ele><time>1970-01-01T00:00:00Z</time><name>WP 1867</name></trkpt>
        <trkpt lat="39.81324814260006" lon="3.1082698702812195"><ele>0</ele><time>1970-01-01T00:00:00Z</time><name>WP 1868</name></trkpt>
        <trkpt lat="39.81336548924446" lon="3.109275698661804"><ele>0</ele><time>1970-01-01T00:00:00Z</time><name>WP 1869</name></trkpt>
    </trkseg>
    </trk>
</gpx>